<?xml version="1.0" encoding="UTF-8" standalone="no" ?>
<gpx xmlns="http://www.topografix.com/GPX/1/1" xmlns:xsi="http://www.w3.org/2001/XMLSchema-instance" xsi:schemaLocation="http://www.topografix.com/GPX/1/1 http://www.topografix.com/GPX/1/1/gpx.xsd" version="1.1" creator="VisuGPX - https://www.visugpx.com">
  <metadata>
    <name>Sortie AS Vélo-Route</name>
    <desc><![CDATA[sortie dans le cadre de l'AS du 11/10/2017]]></desc>
  </metadata>
  <trk>
    <name><![CDATA[Afternoon Ride]]></name>
    <trkseg>
      <trkpt lat="47.35117" lon="6.3541">
        <ele>266</ele>
        <time>2017-10-11T11:57:10Z</time>
      </trkpt>
      <trkpt lat="47.3512" lon="6.35424">
        <ele>267</ele>
        <time>2017-10-11T11:57:23Z</time>
      </trkpt>
      <trkpt lat="47.35112" lon="6.35433">
        <ele>267</ele>
        <time>2017-10-11T11:57:33Z</time>
      </trkpt>
      <trkpt lat="47.35102" lon="6.35439">
        <ele>267</ele>
        <time>2017-10-11T11:57:36Z</time>
      </trkpt>
      <trkpt lat="47.35092" lon="6.35445">
        <ele>267</ele>
        <time>2017-10-11T11:57:39Z</time>
      </trkpt>
      <trkpt lat="47.35084" lon="6.35453">
        <ele>267</ele>
        <time>2017-10-11T11:57:42Z</time>
      </trkpt>
      <trkpt lat="47.35074" lon="6.35449">
        <ele>266</ele>
        <time>2017-10-11T11:57:45Z</time>
      </trkpt>
      <trkpt lat="47.35065" lon="6.3544">
        <ele>266</ele>
        <time>2017-10-11T11:57:48Z</time>
      </trkpt>
      <trkpt lat="47.35056" lon="6.35435">
        <ele>266</ele>
        <time>2017-10-11T11:57:51Z</time>
      </trkpt>
      <trkpt lat="47.35046" lon="6.35442">
        <ele>266</ele>
        <time>2017-10-11T11:57:54Z</time>
      </trkpt>
      <trkpt lat="47.35037" lon="6.35454">
        <ele>266</ele>
        <time>2017-10-11T11:57:57Z</time>
      </trkpt>
      <trkpt lat="47.35029" lon="6.35462">
        <ele>266</ele>
        <time>2017-10-11T11:58:00Z</time>
      </trkpt>
      <trkpt lat="47.35017" lon="6.35459">
        <ele>266</ele>
        <time>2017-10-11T11:58:04Z</time>
      </trkpt>
      <trkpt lat="47.35011" lon="6.3545">
        <ele>266</ele>
        <time>2017-10-11T11:58:08Z</time>
      </trkpt>
      <trkpt lat="47.35004" lon="6.3544">
        <ele>266</ele>
        <time>2017-10-11T11:58:13Z</time>
      </trkpt>
      <trkpt lat="47.34999" lon="6.35428">
        <ele>266</ele>
        <time>2017-10-11T11:58:18Z</time>
      </trkpt>
      <trkpt lat="47.34994" lon="6.35416">
        <ele>266</ele>
        <time>2017-10-11T11:58:22Z</time>
      </trkpt>
      <trkpt lat="47.34988" lon="6.35405">
        <ele>266</ele>
        <time>2017-10-11T11:58:25Z</time>
      </trkpt>
      <trkpt lat="47.34983" lon="6.35392">
        <ele>265</ele>
        <time>2017-10-11T11:58:28Z</time>
      </trkpt>
      <trkpt lat="47.34979" lon="6.35379">
        <ele>265</ele>
        <time>2017-10-11T11:58:31Z</time>
      </trkpt>
      <trkpt lat="47.34974" lon="6.35368">
        <ele>265</ele>
        <time>2017-10-11T11:58:34Z</time>
      </trkpt>
      <trkpt lat="47.34968" lon="6.35356">
        <ele>265</ele>
        <time>2017-10-11T11:58:38Z</time>
      </trkpt>
      <trkpt lat="47.34961" lon="6.35342">
        <ele>265</ele>
        <time>2017-10-11T11:58:43Z</time>
      </trkpt>
      <trkpt lat="47.34955" lon="6.3533">
        <ele>265</ele>
        <time>2017-10-11T11:58:46Z</time>
      </trkpt>
      <trkpt lat="47.34949" lon="6.35315">
        <ele>265</ele>
        <time>2017-10-11T11:58:49Z</time>
      </trkpt>
      <trkpt lat="47.34944" lon="6.35298">
        <ele>265</ele>
        <time>2017-10-11T11:58:52Z</time>
      </trkpt>
      <trkpt lat="47.34939" lon="6.35282">
        <ele>265</ele>
        <time>2017-10-11T11:58:55Z</time>
      </trkpt>
      <trkpt lat="47.34935" lon="6.35266">
        <ele>265</ele>
        <time>2017-10-11T11:58:58Z</time>
      </trkpt>
      <trkpt lat="47.34931" lon="6.35252">
        <ele>265</ele>
        <time>2017-10-11T11:59:01Z</time>
      </trkpt>
      <trkpt lat="47.34921" lon="6.35246">
        <ele>265</ele>
        <time>2017-10-11T11:59:04Z</time>
      </trkpt>
      <trkpt lat="47.34909" lon="6.35242">
        <ele>265</ele>
        <time>2017-10-11T11:59:07Z</time>
      </trkpt>
      <trkpt lat="47.34897" lon="6.35244">
        <ele>265</ele>
        <time>2017-10-11T11:59:10Z</time>
      </trkpt>
      <trkpt lat="47.34885" lon="6.35247">
        <ele>264</ele>
        <time>2017-10-11T11:59:13Z</time>
      </trkpt>
      <trkpt lat="47.34873" lon="6.35251">
        <ele>264</ele>
        <time>2017-10-11T11:59:16Z</time>
      </trkpt>
      <trkpt lat="47.34862" lon="6.35257">
        <ele>264</ele>
        <time>2017-10-11T11:59:19Z</time>
      </trkpt>
      <trkpt lat="47.3485" lon="6.35263">
        <ele>263</ele>
        <time>2017-10-11T11:59:22Z</time>
      </trkpt>
      <trkpt lat="47.34837" lon="6.35268">
        <ele>263</ele>
        <time>2017-10-11T11:59:25Z</time>
      </trkpt>
      <trkpt lat="47.34826" lon="6.35273">
        <ele>264</ele>
        <time>2017-10-11T11:59:28Z</time>
      </trkpt>
      <trkpt lat="47.34814" lon="6.35277">
        <ele>264</ele>
        <time>2017-10-11T11:59:31Z</time>
      </trkpt>
      <trkpt lat="47.34803" lon="6.3528">
        <ele>264</ele>
        <time>2017-10-11T11:59:34Z</time>
      </trkpt>
      <trkpt lat="47.34793" lon="6.35276">
        <ele>264</ele>
        <time>2017-10-11T11:59:37Z</time>
      </trkpt>
      <trkpt lat="47.34787" lon="6.35262">
        <ele>264</ele>
        <time>2017-10-11T11:59:40Z</time>
      </trkpt>
      <trkpt lat="47.34784" lon="6.35249">
        <ele>264</ele>
        <time>2017-10-11T11:59:44Z</time>
      </trkpt>
      <trkpt lat="47.34779" lon="6.35237">
        <ele>264</ele>
        <time>2017-10-11T11:59:49Z</time>
      </trkpt>
      <trkpt lat="47.34774" lon="6.35223">
        <ele>264</ele>
        <time>2017-10-11T11:59:54Z</time>
      </trkpt>
      <trkpt lat="47.34769" lon="6.35209">
        <ele>264</ele>
        <time>2017-10-11T11:59:59Z</time>
      </trkpt>
      <trkpt lat="47.34765" lon="6.35196">
        <ele>264</ele>
        <time>2017-10-11T12:00:03Z</time>
      </trkpt>
      <trkpt lat="47.34763" lon="6.35182">
        <ele>264</ele>
        <time>2017-10-11T12:00:07Z</time>
      </trkpt>
      <trkpt lat="47.3476" lon="6.3517">
        <ele>264</ele>
        <time>2017-10-11T12:00:11Z</time>
      </trkpt>
      <trkpt lat="47.34754" lon="6.35156">
        <ele>264</ele>
        <time>2017-10-11T12:00:16Z</time>
      </trkpt>
      <trkpt lat="47.34749" lon="6.35145">
        <ele>265</ele>
        <time>2017-10-11T12:00:20Z</time>
      </trkpt>
      <trkpt lat="47.34743" lon="6.3513">
        <ele>265</ele>
        <time>2017-10-11T12:00:24Z</time>
      </trkpt>
      <trkpt lat="47.34738" lon="6.35118">
        <ele>265</ele>
        <time>2017-10-11T12:00:27Z</time>
      </trkpt>
      <trkpt lat="47.34732" lon="6.35104">
        <ele>265</ele>
        <time>2017-10-11T12:00:31Z</time>
      </trkpt>
      <trkpt lat="47.34728" lon="6.3509">
        <ele>265</ele>
        <time>2017-10-11T12:00:35Z</time>
      </trkpt>
      <trkpt lat="47.34723" lon="6.35075">
        <ele>265</ele>
        <time>2017-10-11T12:00:39Z</time>
      </trkpt>
      <trkpt lat="47.34717" lon="6.35061">
        <ele>265</ele>
        <time>2017-10-11T12:00:43Z</time>
      </trkpt>
      <trkpt lat="47.34712" lon="6.35047">
        <ele>265</ele>
        <time>2017-10-11T12:00:47Z</time>
      </trkpt>
      <trkpt lat="47.34712" lon="6.35034">
        <ele>265</ele>
        <time>2017-10-11T12:00:52Z</time>
      </trkpt>
      <trkpt lat="47.34721" lon="6.35032">
        <ele>265</ele>
        <time>2017-10-11T12:00:56Z</time>
      </trkpt>
      <trkpt lat="47.34725" lon="6.35018">
        <ele>265</ele>
        <time>2017-10-11T12:00:59Z</time>
      </trkpt>
      <trkpt lat="47.34728" lon="6.35004">
        <ele>265</ele>
        <time>2017-10-11T12:01:02Z</time>
      </trkpt>
      <trkpt lat="47.34736" lon="6.34994">
        <ele>265</ele>
        <time>2017-10-11T12:01:06Z</time>
      </trkpt>
      <trkpt lat="47.34744" lon="6.34986">
        <ele>265</ele>
        <time>2017-10-11T12:01:11Z</time>
      </trkpt>
      <trkpt lat="47.34736" lon="6.34976">
        <ele>265</ele>
        <time>2017-10-11T12:01:15Z</time>
      </trkpt>
      <trkpt lat="47.34726" lon="6.34978">
        <ele>265</ele>
        <time>2017-10-11T12:01:18Z</time>
      </trkpt>
      <trkpt lat="47.34715" lon="6.3498">
        <ele>265</ele>
        <time>2017-10-11T12:01:22Z</time>
      </trkpt>
      <trkpt lat="47.34705" lon="6.34981">
        <ele>265</ele>
        <time>2017-10-11T12:01:25Z</time>
      </trkpt>
      <trkpt lat="47.34695" lon="6.34982">
        <ele>265</ele>
        <time>2017-10-11T12:01:28Z</time>
      </trkpt>
      <trkpt lat="47.34687" lon="6.34971">
        <ele>265</ele>
        <time>2017-10-11T12:01:32Z</time>
      </trkpt>
      <trkpt lat="47.34683" lon="6.34955">
        <ele>265</ele>
        <time>2017-10-11T12:01:36Z</time>
      </trkpt>
      <trkpt lat="47.34678" lon="6.34939">
        <ele>265</ele>
        <time>2017-10-11T12:01:40Z</time>
      </trkpt>
      <trkpt lat="47.34674" lon="6.34926">
        <ele>265</ele>
        <time>2017-10-11T12:01:43Z</time>
      </trkpt>
      <trkpt lat="47.3467" lon="6.34913">
        <ele>265</ele>
        <time>2017-10-11T12:01:46Z</time>
      </trkpt>
      <trkpt lat="47.34665" lon="6.34898">
        <ele>265</ele>
        <time>2017-10-11T12:01:50Z</time>
      </trkpt>
      <trkpt lat="47.34659" lon="6.34885">
        <ele>265</ele>
        <time>2017-10-11T12:01:53Z</time>
      </trkpt>
      <trkpt lat="47.34654" lon="6.34871">
        <ele>265</ele>
        <time>2017-10-11T12:01:56Z</time>
      </trkpt>
      <trkpt lat="47.34648" lon="6.34855">
        <ele>265</ele>
        <time>2017-10-11T12:01:59Z</time>
      </trkpt>
      <trkpt lat="47.34644" lon="6.34841">
        <ele>264</ele>
        <time>2017-10-11T12:02:02Z</time>
      </trkpt>
      <trkpt lat="47.3464" lon="6.34829">
        <ele>264</ele>
        <time>2017-10-11T12:02:05Z</time>
      </trkpt>
      <trkpt lat="47.34634" lon="6.34816">
        <ele>264</ele>
        <time>2017-10-11T12:02:08Z</time>
      </trkpt>
      <trkpt lat="47.34629" lon="6.34802">
        <ele>264</ele>
        <time>2017-10-11T12:02:11Z</time>
      </trkpt>
      <trkpt lat="47.34625" lon="6.34788">
        <ele>265</ele>
        <time>2017-10-11T12:02:14Z</time>
      </trkpt>
      <trkpt lat="47.3462" lon="6.34774">
        <ele>265</ele>
        <time>2017-10-11T12:02:17Z</time>
      </trkpt>
      <trkpt lat="47.34614" lon="6.3476">
        <ele>265</ele>
        <time>2017-10-11T12:02:20Z</time>
      </trkpt>
      <trkpt lat="47.34609" lon="6.34747">
        <ele>265</ele>
        <time>2017-10-11T12:02:23Z</time>
      </trkpt>
      <trkpt lat="47.34604" lon="6.34734">
        <ele>265</ele>
        <time>2017-10-11T12:02:26Z</time>
      </trkpt>
      <trkpt lat="47.34601" lon="6.34721">
        <ele>265</ele>
        <time>2017-10-11T12:02:29Z</time>
      </trkpt>
      <trkpt lat="47.34592" lon="6.34711">
        <ele>265</ele>
        <time>2017-10-11T12:02:33Z</time>
      </trkpt>
      <trkpt lat="47.34581" lon="6.34714">
        <ele>265</ele>
        <time>2017-10-11T12:02:36Z</time>
      </trkpt>
      <trkpt lat="47.34571" lon="6.34717">
        <ele>265</ele>
        <time>2017-10-11T12:02:39Z</time>
      </trkpt>
      <trkpt lat="47.34559" lon="6.34719">
        <ele>265</ele>
        <time>2017-10-11T12:02:42Z</time>
      </trkpt>
      <trkpt lat="47.34549" lon="6.34724">
        <ele>265</ele>
        <time>2017-10-11T12:02:45Z</time>
      </trkpt>
      <trkpt lat="47.34539" lon="6.34731">
        <ele>265</ele>
        <time>2017-10-11T12:02:48Z</time>
      </trkpt>
      <trkpt lat="47.34529" lon="6.34736">
        <ele>265</ele>
        <time>2017-10-11T12:02:51Z</time>
      </trkpt>
      <trkpt lat="47.34518" lon="6.34741">
        <ele>265</ele>
        <time>2017-10-11T12:02:54Z</time>
      </trkpt>
      <trkpt lat="47.34506" lon="6.34747">
        <ele>265</ele>
        <time>2017-10-11T12:02:57Z</time>
      </trkpt>
      <trkpt lat="47.34496" lon="6.34753">
        <ele>265</ele>
        <time>2017-10-11T12:03:00Z</time>
      </trkpt>
      <trkpt lat="47.34485" lon="6.34757">
        <ele>265</ele>
        <time>2017-10-11T12:03:03Z</time>
      </trkpt>
      <trkpt lat="47.34476" lon="6.34761">
        <ele>265</ele>
        <time>2017-10-11T12:03:06Z</time>
      </trkpt>
      <trkpt lat="47.34467" lon="6.34765">
        <ele>265</ele>
        <time>2017-10-11T12:03:09Z</time>
      </trkpt>
      <trkpt lat="47.34457" lon="6.34772">
        <ele>264</ele>
        <time>2017-10-11T12:03:12Z</time>
      </trkpt>
      <trkpt lat="47.34446" lon="6.3478">
        <ele>264</ele>
        <time>2017-10-11T12:03:15Z</time>
      </trkpt>
      <trkpt lat="47.34435" lon="6.34787">
        <ele>264</ele>
        <time>2017-10-11T12:03:18Z</time>
      </trkpt>
      <trkpt lat="47.34425" lon="6.34794">
        <ele>264</ele>
        <time>2017-10-11T12:03:21Z</time>
      </trkpt>
      <trkpt lat="47.34415" lon="6.34802">
        <ele>268</ele>
        <time>2017-10-11T12:03:24Z</time>
      </trkpt>
      <trkpt lat="47.34407" lon="6.3481">
        <ele>268</ele>
        <time>2017-10-11T12:03:26Z</time>
      </trkpt>
      <trkpt lat="47.344" lon="6.3482">
        <ele>267</ele>
        <time>2017-10-11T12:03:28Z</time>
      </trkpt>
      <trkpt lat="47.34394" lon="6.34831">
        <ele>268</ele>
        <time>2017-10-11T12:03:30Z</time>
      </trkpt>
      <trkpt lat="47.34388" lon="6.34843">
        <ele>267</ele>
        <time>2017-10-11T12:03:32Z</time>
      </trkpt>
      <trkpt lat="47.34383" lon="6.34857">
        <ele>267</ele>
        <time>2017-10-11T12:03:34Z</time>
      </trkpt>
      <trkpt lat="47.34379" lon="6.34869">
        <ele>267</ele>
        <time>2017-10-11T12:03:36Z</time>
      </trkpt>
      <trkpt lat="47.34375" lon="6.34881">
        <ele>267</ele>
        <time>2017-10-11T12:03:39Z</time>
      </trkpt>
      <trkpt lat="47.3437" lon="6.34898">
        <ele>267</ele>
        <time>2017-10-11T12:03:43Z</time>
      </trkpt>
      <trkpt lat="47.34367" lon="6.34915">
        <ele>267</ele>
        <time>2017-10-11T12:03:46Z</time>
      </trkpt>
      <trkpt lat="47.34364" lon="6.34932">
        <ele>266</ele>
        <time>2017-10-11T12:03:49Z</time>
      </trkpt>
      <trkpt lat="47.34362" lon="6.34949">
        <ele>266</ele>
        <time>2017-10-11T12:03:52Z</time>
      </trkpt>
      <trkpt lat="47.34359" lon="6.34965">
        <ele>266</ele>
        <time>2017-10-11T12:03:55Z</time>
      </trkpt>
      <trkpt lat="47.34354" lon="6.34979">
        <ele>266</ele>
        <time>2017-10-11T12:03:58Z</time>
      </trkpt>
      <trkpt lat="47.34345" lon="6.34987">
        <ele>266</ele>
        <time>2017-10-11T12:04:01Z</time>
      </trkpt>
      <trkpt lat="47.34336" lon="6.34992">
        <ele>266</ele>
        <time>2017-10-11T12:04:04Z</time>
      </trkpt>
      <trkpt lat="47.34325" lon="6.34996">
        <ele>272</ele>
        <time>2017-10-11T12:04:08Z</time>
      </trkpt>
      <trkpt lat="47.34314" lon="6.34997">
        <ele>277</ele>
        <time>2017-10-11T12:04:11Z</time>
      </trkpt>
      <trkpt lat="47.34302" lon="6.35">
        <ele>281</ele>
        <time>2017-10-11T12:04:14Z</time>
      </trkpt>
      <trkpt lat="47.34293" lon="6.35006">
        <ele>279</ele>
        <time>2017-10-11T12:04:17Z</time>
      </trkpt>
      <trkpt lat="47.34285" lon="6.35019">
        <ele>280</ele>
        <time>2017-10-11T12:04:20Z</time>
      </trkpt>
      <trkpt lat="47.34281" lon="6.35033">
        <ele>280</ele>
        <time>2017-10-11T12:04:23Z</time>
      </trkpt>
      <trkpt lat="47.34277" lon="6.35047">
        <ele>280</ele>
        <time>2017-10-11T12:04:26Z</time>
      </trkpt>
      <trkpt lat="47.34274" lon="6.35062">
        <ele>279</ele>
        <time>2017-10-11T12:04:29Z</time>
      </trkpt>
      <trkpt lat="47.34272" lon="6.35077">
        <ele>280</ele>
        <time>2017-10-11T12:04:32Z</time>
      </trkpt>
      <trkpt lat="47.34269" lon="6.35092">
        <ele>277</ele>
        <time>2017-10-11T12:04:35Z</time>
      </trkpt>
      <trkpt lat="47.34263" lon="6.35107">
        <ele>276</ele>
        <time>2017-10-11T12:04:38Z</time>
      </trkpt>
      <trkpt lat="47.34258" lon="6.35121">
        <ele>274</ele>
        <time>2017-10-11T12:04:41Z</time>
      </trkpt>
      <trkpt lat="47.34255" lon="6.35136">
        <ele>274</ele>
        <time>2017-10-11T12:04:44Z</time>
      </trkpt>
      <trkpt lat="47.34253" lon="6.3515">
        <ele>274</ele>
        <time>2017-10-11T12:04:47Z</time>
      </trkpt>
      <trkpt lat="47.3425" lon="6.35169">
        <ele>274</ele>
        <time>2017-10-11T12:04:50Z</time>
      </trkpt>
      <trkpt lat="47.34247" lon="6.35182">
        <ele>281</ele>
        <time>2017-10-11T12:04:52Z</time>
      </trkpt>
      <trkpt lat="47.34243" lon="6.35194">
        <ele>283</ele>
        <time>2017-10-11T12:04:54Z</time>
      </trkpt>
      <trkpt lat="47.34236" lon="6.35208">
        <ele>283</ele>
        <time>2017-10-11T12:04:57Z</time>
      </trkpt>
      <trkpt lat="47.34226" lon="6.3522">
        <ele>284</ele>
        <time>2017-10-11T12:05:00Z</time>
      </trkpt>
      <trkpt lat="47.34221" lon="6.35231">
        <ele>284</ele>
        <time>2017-10-11T12:05:02Z</time>
      </trkpt>
      <trkpt lat="47.34214" lon="6.35241">
        <ele>284</ele>
        <time>2017-10-11T12:05:04Z</time>
      </trkpt>
      <trkpt lat="47.34206" lon="6.35254">
        <ele>276</ele>
        <time>2017-10-11T12:05:07Z</time>
      </trkpt>
      <trkpt lat="47.342" lon="6.35266">
        <ele>277</ele>
        <time>2017-10-11T12:05:10Z</time>
      </trkpt>
      <trkpt lat="47.34193" lon="6.35278">
        <ele>277</ele>
        <time>2017-10-11T12:05:13Z</time>
      </trkpt>
      <trkpt lat="47.34186" lon="6.35292">
        <ele>275</ele>
        <time>2017-10-11T12:05:16Z</time>
      </trkpt>
      <trkpt lat="47.34179" lon="6.35307">
        <ele>273</ele>
        <time>2017-10-11T12:05:19Z</time>
      </trkpt>
      <trkpt lat="47.34172" lon="6.35322">
        <ele>272</ele>
        <time>2017-10-11T12:05:22Z</time>
      </trkpt>
      <trkpt lat="47.34164" lon="6.35333">
        <ele>272</ele>
        <time>2017-10-11T12:05:25Z</time>
      </trkpt>
      <trkpt lat="47.34157" lon="6.35344">
        <ele>271</ele>
        <time>2017-10-11T12:05:28Z</time>
      </trkpt>
      <trkpt lat="47.34149" lon="6.35353">
        <ele>272</ele>
        <time>2017-10-11T12:05:30Z</time>
      </trkpt>
      <trkpt lat="47.34142" lon="6.35364">
        <ele>272</ele>
        <time>2017-10-11T12:05:32Z</time>
      </trkpt>
      <trkpt lat="47.34135" lon="6.35374">
        <ele>272</ele>
        <time>2017-10-11T12:05:34Z</time>
      </trkpt>
      <trkpt lat="47.34128" lon="6.35384">
        <ele>271</ele>
        <time>2017-10-11T12:05:36Z</time>
      </trkpt>
      <trkpt lat="47.34122" lon="6.35394">
        <ele>271</ele>
        <time>2017-10-11T12:05:38Z</time>
      </trkpt>
      <trkpt lat="47.34111" lon="6.35405">
        <ele>270</ele>
        <time>2017-10-11T12:05:41Z</time>
      </trkpt>
      <trkpt lat="47.34104" lon="6.35413">
        <ele>270</ele>
        <time>2017-10-11T12:05:43Z</time>
      </trkpt>
      <trkpt lat="47.34094" lon="6.35425">
        <ele>266</ele>
        <time>2017-10-11T12:05:46Z</time>
      </trkpt>
      <trkpt lat="47.34088" lon="6.35441">
        <ele>266</ele>
        <time>2017-10-11T12:05:49Z</time>
      </trkpt>
      <trkpt lat="47.34083" lon="6.35454">
        <ele>266</ele>
        <time>2017-10-11T12:05:52Z</time>
      </trkpt>
      <trkpt lat="47.34083" lon="6.3547">
        <ele>265</ele>
        <time>2017-10-11T12:05:56Z</time>
      </trkpt>
      <trkpt lat="47.34083" lon="6.35483">
        <ele>265</ele>
        <time>2017-10-11T12:05:59Z</time>
      </trkpt>
      <trkpt lat="47.34087" lon="6.35495">
        <ele>264</ele>
        <time>2017-10-11T12:06:02Z</time>
      </trkpt>
      <trkpt lat="47.34094" lon="6.35508">
        <ele>265</ele>
        <time>2017-10-11T12:06:05Z</time>
      </trkpt>
      <trkpt lat="47.34099" lon="6.35522">
        <ele>265</ele>
        <time>2017-10-11T12:06:08Z</time>
      </trkpt>
      <trkpt lat="47.34105" lon="6.35533">
        <ele>265</ele>
        <time>2017-10-11T12:06:11Z</time>
      </trkpt>
      <trkpt lat="47.34111" lon="6.35544">
        <ele>265</ele>
        <time>2017-10-11T12:06:15Z</time>
      </trkpt>
      <trkpt lat="47.34105" lon="6.35554">
        <ele>265</ele>
        <time>2017-10-11T12:06:21Z</time>
      </trkpt>
      <trkpt lat="47.34095" lon="6.35562">
        <ele>264</ele>
        <time>2017-10-11T12:06:25Z</time>
      </trkpt>
      <trkpt lat="47.34086" lon="6.35571">
        <ele>263</ele>
        <time>2017-10-11T12:06:29Z</time>
      </trkpt>
      <trkpt lat="47.34078" lon="6.35579">
        <ele>263</ele>
        <time>2017-10-11T12:06:32Z</time>
      </trkpt>
      <trkpt lat="47.34069" lon="6.35588">
        <ele>264</ele>
        <time>2017-10-11T12:06:35Z</time>
      </trkpt>
      <trkpt lat="47.34059" lon="6.35597">
        <ele>265</ele>
        <time>2017-10-11T12:06:38Z</time>
      </trkpt>
      <trkpt lat="47.34051" lon="6.3561">
        <ele>265</ele>
        <time>2017-10-11T12:06:41Z</time>
      </trkpt>
      <trkpt lat="47.34055" lon="6.35627">
        <ele>265</ele>
        <time>2017-10-11T12:06:44Z</time>
      </trkpt>
      <trkpt lat="47.34061" lon="6.35637">
        <ele>265</ele>
        <time>2017-10-11T12:06:46Z</time>
      </trkpt>
      <trkpt lat="47.34066" lon="6.35652">
        <ele>265</ele>
        <time>2017-10-11T12:06:49Z</time>
      </trkpt>
      <trkpt lat="47.34069" lon="6.35669">
        <ele>266</ele>
        <time>2017-10-11T12:06:52Z</time>
      </trkpt>
      <trkpt lat="47.34073" lon="6.35683">
        <ele>266</ele>
        <time>2017-10-11T12:06:54Z</time>
      </trkpt>
      <trkpt lat="47.34076" lon="6.35697">
        <ele>267</ele>
        <time>2017-10-11T12:06:56Z</time>
      </trkpt>
      <trkpt lat="47.3408" lon="6.35711">
        <ele>267</ele>
        <time>2017-10-11T12:06:58Z</time>
      </trkpt>
      <trkpt lat="47.34083" lon="6.35724">
        <ele>267</ele>
        <time>2017-10-11T12:07:00Z</time>
      </trkpt>
      <trkpt lat="47.34087" lon="6.35741">
        <ele>267</ele>
        <time>2017-10-11T12:07:03Z</time>
      </trkpt>
      <trkpt lat="47.34093" lon="6.35758">
        <ele>267</ele>
        <time>2017-10-11T12:07:06Z</time>
      </trkpt>
      <trkpt lat="47.34098" lon="6.35773">
        <ele>267</ele>
        <time>2017-10-11T12:07:09Z</time>
      </trkpt>
      <trkpt lat="47.34104" lon="6.3579">
        <ele>267</ele>
        <time>2017-10-11T12:07:12Z</time>
      </trkpt>
      <trkpt lat="47.3411" lon="6.35805">
        <ele>267</ele>
        <time>2017-10-11T12:07:15Z</time>
      </trkpt>
      <trkpt lat="47.34115" lon="6.35817">
        <ele>267</ele>
        <time>2017-10-11T12:07:17Z</time>
      </trkpt>
      <trkpt lat="47.3412" lon="6.35829">
        <ele>267</ele>
        <time>2017-10-11T12:07:19Z</time>
      </trkpt>
      <trkpt lat="47.34124" lon="6.35842">
        <ele>267</ele>
        <time>2017-10-11T12:07:21Z</time>
      </trkpt>
      <trkpt lat="47.34129" lon="6.35855">
        <ele>267</ele>
        <time>2017-10-11T12:07:23Z</time>
      </trkpt>
      <trkpt lat="47.34134" lon="6.35867">
        <ele>267</ele>
        <time>2017-10-11T12:07:25Z</time>
      </trkpt>
      <trkpt lat="47.34138" lon="6.35879">
        <ele>267</ele>
        <time>2017-10-11T12:07:27Z</time>
      </trkpt>
      <trkpt lat="47.34143" lon="6.35892">
        <ele>267</ele>
        <time>2017-10-11T12:07:29Z</time>
      </trkpt>
      <trkpt lat="47.34148" lon="6.35903">
        <ele>267</ele>
        <time>2017-10-11T12:07:31Z</time>
      </trkpt>
      <trkpt lat="47.34155" lon="6.3592">
        <ele>267</ele>
        <time>2017-10-11T12:07:34Z</time>
      </trkpt>
      <trkpt lat="47.34159" lon="6.35937">
        <ele>268</ele>
        <time>2017-10-11T12:07:37Z</time>
      </trkpt>
      <trkpt lat="47.34163" lon="6.35954">
        <ele>268</ele>
        <time>2017-10-11T12:07:40Z</time>
      </trkpt>
      <trkpt lat="47.34167" lon="6.35967">
        <ele>265</ele>
        <time>2017-10-11T12:07:42Z</time>
      </trkpt>
      <trkpt lat="47.34173" lon="6.35981">
        <ele>265</ele>
        <time>2017-10-11T12:07:44Z</time>
      </trkpt>
      <trkpt lat="47.34179" lon="6.35993">
        <ele>265</ele>
        <time>2017-10-11T12:07:46Z</time>
      </trkpt>
      <trkpt lat="47.34185" lon="6.36004">
        <ele>265</ele>
        <time>2017-10-11T12:07:48Z</time>
      </trkpt>
      <trkpt lat="47.34192" lon="6.36017">
        <ele>265</ele>
        <time>2017-10-11T12:07:51Z</time>
      </trkpt>
      <trkpt lat="47.34193" lon="6.36032">
        <ele>266</ele>
        <time>2017-10-11T12:07:55Z</time>
      </trkpt>
      <trkpt lat="47.34186" lon="6.36044">
        <ele>266</ele>
        <time>2017-10-11T12:07:58Z</time>
      </trkpt>
      <trkpt lat="47.34185" lon="6.3606">
        <ele>266</ele>
        <time>2017-10-11T12:08:01Z</time>
      </trkpt>
      <trkpt lat="47.34191" lon="6.36078">
        <ele>266</ele>
        <time>2017-10-11T12:08:04Z</time>
      </trkpt>
      <trkpt lat="47.34194" lon="6.36092">
        <ele>267</ele>
        <time>2017-10-11T12:08:06Z</time>
      </trkpt>
      <trkpt lat="47.34197" lon="6.3611">
        <ele>266</ele>
        <time>2017-10-11T12:08:08Z</time>
      </trkpt>
      <trkpt lat="47.342" lon="6.36126">
        <ele>266</ele>
        <time>2017-10-11T12:08:10Z</time>
      </trkpt>
      <trkpt lat="47.34204" lon="6.36143">
        <ele>266</ele>
        <time>2017-10-11T12:08:12Z</time>
      </trkpt>
      <trkpt lat="47.34208" lon="6.36158">
        <ele>266</ele>
        <time>2017-10-11T12:08:14Z</time>
      </trkpt>
      <trkpt lat="47.34211" lon="6.36173">
        <ele>266</ele>
        <time>2017-10-11T12:08:16Z</time>
      </trkpt>
      <trkpt lat="47.34212" lon="6.36187">
        <ele>266</ele>
        <time>2017-10-11T12:08:18Z</time>
      </trkpt>
      <trkpt lat="47.34205" lon="6.362">
        <ele>266</ele>
        <time>2017-10-11T12:08:20Z</time>
      </trkpt>
      <trkpt lat="47.342" lon="6.36214">
        <ele>266</ele>
        <time>2017-10-11T12:08:22Z</time>
      </trkpt>
      <trkpt lat="47.34199" lon="6.36232">
        <ele>267</ele>
        <time>2017-10-11T12:08:25Z</time>
      </trkpt>
      <trkpt lat="47.34196" lon="6.3625">
        <ele>267</ele>
        <time>2017-10-11T12:08:28Z</time>
      </trkpt>
      <trkpt lat="47.34193" lon="6.36268">
        <ele>268</ele>
        <time>2017-10-11T12:08:31Z</time>
      </trkpt>
      <trkpt lat="47.3419" lon="6.36284">
        <ele>268</ele>
        <time>2017-10-11T12:08:34Z</time>
      </trkpt>
      <trkpt lat="47.34186" lon="6.36303">
        <ele>269</ele>
        <time>2017-10-11T12:08:37Z</time>
      </trkpt>
      <trkpt lat="47.34181" lon="6.36318">
        <ele>270</ele>
        <time>2017-10-11T12:08:40Z</time>
      </trkpt>
      <trkpt lat="47.34177" lon="6.36331">
        <ele>270</ele>
        <time>2017-10-11T12:08:43Z</time>
      </trkpt>
      <trkpt lat="47.34174" lon="6.36348">
        <ele>270</ele>
        <time>2017-10-11T12:08:46Z</time>
      </trkpt>
      <trkpt lat="47.34171" lon="6.36367">
        <ele>270</ele>
        <time>2017-10-11T12:08:49Z</time>
      </trkpt>
      <trkpt lat="47.34169" lon="6.36381">
        <ele>270</ele>
        <time>2017-10-11T12:08:51Z</time>
      </trkpt>
      <trkpt lat="47.34166" lon="6.36394">
        <ele>278</ele>
        <time>2017-10-11T12:08:53Z</time>
      </trkpt>
      <trkpt lat="47.34162" lon="6.36412">
        <ele>275</ele>
        <time>2017-10-11T12:08:56Z</time>
      </trkpt>
      <trkpt lat="47.3416" lon="6.3643">
        <ele>277</ele>
        <time>2017-10-11T12:08:59Z</time>
      </trkpt>
      <trkpt lat="47.34155" lon="6.36446">
        <ele>280</ele>
        <time>2017-10-11T12:09:02Z</time>
      </trkpt>
      <trkpt lat="47.34152" lon="6.36463">
        <ele>280</ele>
        <time>2017-10-11T12:09:05Z</time>
      </trkpt>
      <trkpt lat="47.3415" lon="6.3648">
        <ele>279</ele>
        <time>2017-10-11T12:09:08Z</time>
      </trkpt>
      <trkpt lat="47.34148" lon="6.36494">
        <ele>278</ele>
        <time>2017-10-11T12:09:10Z</time>
      </trkpt>
      <trkpt lat="47.34146" lon="6.3651">
        <ele>277</ele>
        <time>2017-10-11T12:09:12Z</time>
      </trkpt>
      <trkpt lat="47.34145" lon="6.36526">
        <ele>278</ele>
        <time>2017-10-11T12:09:14Z</time>
      </trkpt>
      <trkpt lat="47.34142" lon="6.36544">
        <ele>279</ele>
        <time>2017-10-11T12:09:16Z</time>
      </trkpt>
      <trkpt lat="47.3414" lon="6.3656">
        <ele>279</ele>
        <time>2017-10-11T12:09:18Z</time>
      </trkpt>
      <trkpt lat="47.34137" lon="6.36577">
        <ele>278</ele>
        <time>2017-10-11T12:09:21Z</time>
      </trkpt>
      <trkpt lat="47.34134" lon="6.36595">
        <ele>279</ele>
        <time>2017-10-11T12:09:24Z</time>
      </trkpt>
      <trkpt lat="47.34131" lon="6.3661">
        <ele>279</ele>
        <time>2017-10-11T12:09:26Z</time>
      </trkpt>
      <trkpt lat="47.34129" lon="6.36624">
        <ele>280</ele>
        <time>2017-10-11T12:09:28Z</time>
      </trkpt>
      <trkpt lat="47.34126" lon="6.36642">
        <ele>280</ele>
        <time>2017-10-11T12:09:31Z</time>
      </trkpt>
      <trkpt lat="47.34125" lon="6.36655">
        <ele>281</ele>
        <time>2017-10-11T12:09:33Z</time>
      </trkpt>
      <trkpt lat="47.34124" lon="6.36669">
        <ele>280</ele>
        <time>2017-10-11T12:09:35Z</time>
      </trkpt>
      <trkpt lat="47.34123" lon="6.36687">
        <ele>279</ele>
        <time>2017-10-11T12:09:38Z</time>
      </trkpt>
      <trkpt lat="47.34122" lon="6.36706">
        <ele>279</ele>
        <time>2017-10-11T12:09:41Z</time>
      </trkpt>
      <trkpt lat="47.34121" lon="6.36722">
        <ele>279</ele>
        <time>2017-10-11T12:09:44Z</time>
      </trkpt>
      <trkpt lat="47.34121" lon="6.36739">
        <ele>279</ele>
        <time>2017-10-11T12:09:47Z</time>
      </trkpt>
      <trkpt lat="47.34121" lon="6.36755">
        <ele>276</ele>
        <time>2017-10-11T12:09:50Z</time>
      </trkpt>
      <trkpt lat="47.34121" lon="6.36771">
        <ele>276</ele>
        <time>2017-10-11T12:09:53Z</time>
      </trkpt>
      <trkpt lat="47.34121" lon="6.36787">
        <ele>276</ele>
        <time>2017-10-11T12:09:56Z</time>
      </trkpt>
      <trkpt lat="47.34122" lon="6.36803">
        <ele>276</ele>
        <time>2017-10-11T12:09:59Z</time>
      </trkpt>
      <trkpt lat="47.34121" lon="6.36821">
        <ele>276</ele>
        <time>2017-10-11T12:10:02Z</time>
      </trkpt>
      <trkpt lat="47.3412" lon="6.36836">
        <ele>274</ele>
        <time>2017-10-11T12:10:04Z</time>
      </trkpt>
      <trkpt lat="47.34121" lon="6.36853">
        <ele>274</ele>
        <time>2017-10-11T12:10:06Z</time>
      </trkpt>
      <trkpt lat="47.34121" lon="6.36871">
        <ele>273</ele>
        <time>2017-10-11T12:10:08Z</time>
      </trkpt>
      <trkpt lat="47.34121" lon="6.36889">
        <ele>273</ele>
        <time>2017-10-11T12:10:10Z</time>
      </trkpt>
      <trkpt lat="47.3412" lon="6.36903">
        <ele>273</ele>
        <time>2017-10-11T12:10:12Z</time>
      </trkpt>
      <trkpt lat="47.34121" lon="6.36917">
        <ele>273</ele>
        <time>2017-10-11T12:10:14Z</time>
      </trkpt>
      <trkpt lat="47.34121" lon="6.3693">
        <ele>273</ele>
        <time>2017-10-11T12:10:16Z</time>
      </trkpt>
      <trkpt lat="47.34121" lon="6.36944">
        <ele>273</ele>
        <time>2017-10-11T12:10:18Z</time>
      </trkpt>
      <trkpt lat="47.34121" lon="6.36957">
        <ele>273</ele>
        <time>2017-10-11T12:10:20Z</time>
      </trkpt>
      <trkpt lat="47.34121" lon="6.36971">
        <ele>274</ele>
        <time>2017-10-11T12:10:22Z</time>
      </trkpt>
      <trkpt lat="47.34122" lon="6.36985">
        <ele>274</ele>
        <time>2017-10-11T12:10:24Z</time>
      </trkpt>
      <trkpt lat="47.34122" lon="6.36998">
        <ele>274</ele>
        <time>2017-10-11T12:10:26Z</time>
      </trkpt>
      <trkpt lat="47.34122" lon="6.37017">
        <ele>278</ele>
        <time>2017-10-11T12:10:29Z</time>
      </trkpt>
      <trkpt lat="47.34122" lon="6.37031">
        <ele>279</ele>
        <time>2017-10-11T12:10:31Z</time>
      </trkpt>
      <trkpt lat="47.34123" lon="6.37045">
        <ele>279</ele>
        <time>2017-10-11T12:10:33Z</time>
      </trkpt>
      <trkpt lat="47.34124" lon="6.3706">
        <ele>280</ele>
        <time>2017-10-11T12:10:35Z</time>
      </trkpt>
      <trkpt lat="47.34126" lon="6.37074">
        <ele>280</ele>
        <time>2017-10-11T12:10:37Z</time>
      </trkpt>
      <trkpt lat="47.34126" lon="6.37087">
        <ele>285</ele>
        <time>2017-10-11T12:10:39Z</time>
      </trkpt>
      <trkpt lat="47.34126" lon="6.37104">
        <ele>285</ele>
        <time>2017-10-11T12:10:41Z</time>
      </trkpt>
      <trkpt lat="47.34125" lon="6.3712">
        <ele>286</ele>
        <time>2017-10-11T12:10:43Z</time>
      </trkpt>
      <trkpt lat="47.34124" lon="6.37136">
        <ele>287</ele>
        <time>2017-10-11T12:10:45Z</time>
      </trkpt>
      <trkpt lat="47.34124" lon="6.37151">
        <ele>288</ele>
        <time>2017-10-11T12:10:47Z</time>
      </trkpt>
      <trkpt lat="47.34124" lon="6.37167">
        <ele>288</ele>
        <time>2017-10-11T12:10:49Z</time>
      </trkpt>
      <trkpt lat="47.34124" lon="6.37181">
        <ele>289</ele>
        <time>2017-10-11T12:10:51Z</time>
      </trkpt>
      <trkpt lat="47.34124" lon="6.37197">
        <ele>288</ele>
        <time>2017-10-11T12:10:53Z</time>
      </trkpt>
      <trkpt lat="47.34123" lon="6.37213">
        <ele>288</ele>
        <time>2017-10-11T12:10:55Z</time>
      </trkpt>
      <trkpt lat="47.34123" lon="6.37229">
        <ele>288</ele>
        <time>2017-10-11T12:10:57Z</time>
      </trkpt>
      <trkpt lat="47.34121" lon="6.37243">
        <ele>288</ele>
        <time>2017-10-11T12:10:59Z</time>
      </trkpt>
      <trkpt lat="47.34118" lon="6.3726">
        <ele>286</ele>
        <time>2017-10-11T12:11:02Z</time>
      </trkpt>
      <trkpt lat="47.34116" lon="6.37274">
        <ele>286</ele>
        <time>2017-10-11T12:11:05Z</time>
      </trkpt>
      <trkpt lat="47.34119" lon="6.37287">
        <ele>285</ele>
        <time>2017-10-11T12:11:08Z</time>
      </trkpt>
      <trkpt lat="47.34123" lon="6.373">
        <ele>284</ele>
        <time>2017-10-11T12:11:11Z</time>
      </trkpt>
      <trkpt lat="47.34126" lon="6.37315">
        <ele>283</ele>
        <time>2017-10-11T12:11:16Z</time>
      </trkpt>
      <trkpt lat="47.34131" lon="6.37332">
        <ele>281</ele>
        <time>2017-10-11T12:11:20Z</time>
      </trkpt>
      <trkpt lat="47.34135" lon="6.37344">
        <ele>277</ele>
        <time>2017-10-11T12:11:23Z</time>
      </trkpt>
      <trkpt lat="47.34143" lon="6.37353">
        <ele>275</ele>
        <time>2017-10-11T12:11:27Z</time>
      </trkpt>
      <trkpt lat="47.34154" lon="6.37362">
        <ele>274</ele>
        <time>2017-10-11T12:11:30Z</time>
      </trkpt>
      <trkpt lat="47.34162" lon="6.37368">
        <ele>274</ele>
        <time>2017-10-11T12:11:32Z</time>
      </trkpt>
      <trkpt lat="47.34172" lon="6.37372">
        <ele>265</ele>
        <time>2017-10-11T12:11:34Z</time>
      </trkpt>
      <trkpt lat="47.34184" lon="6.37376">
        <ele>265</ele>
        <time>2017-10-11T12:11:36Z</time>
      </trkpt>
      <trkpt lat="47.34195" lon="6.37377">
        <ele>265</ele>
        <time>2017-10-11T12:11:38Z</time>
      </trkpt>
      <trkpt lat="47.34206" lon="6.37379">
        <ele>265</ele>
        <time>2017-10-11T12:11:40Z</time>
      </trkpt>
      <trkpt lat="47.34216" lon="6.3738">
        <ele>265</ele>
        <time>2017-10-11T12:11:42Z</time>
      </trkpt>
      <trkpt lat="47.34227" lon="6.37382">
        <ele>265</ele>
        <time>2017-10-11T12:11:44Z</time>
      </trkpt>
      <trkpt lat="47.34237" lon="6.37386">
        <ele>265</ele>
        <time>2017-10-11T12:11:46Z</time>
      </trkpt>
      <trkpt lat="47.3425" lon="6.37389">
        <ele>265</ele>
        <time>2017-10-11T12:11:49Z</time>
      </trkpt>
      <trkpt lat="47.34263" lon="6.37393">
        <ele>265</ele>
        <time>2017-10-11T12:11:52Z</time>
      </trkpt>
      <trkpt lat="47.34272" lon="6.37397">
        <ele>265</ele>
        <time>2017-10-11T12:11:54Z</time>
      </trkpt>
      <trkpt lat="47.34285" lon="6.37401">
        <ele>265</ele>
        <time>2017-10-11T12:11:57Z</time>
      </trkpt>
      <trkpt lat="47.34294" lon="6.37405">
        <ele>265</ele>
        <time>2017-10-11T12:11:59Z</time>
      </trkpt>
      <trkpt lat="47.34304" lon="6.37408">
        <ele>265</ele>
        <time>2017-10-11T12:12:01Z</time>
      </trkpt>
      <trkpt lat="47.34314" lon="6.37409">
        <ele>266</ele>
        <time>2017-10-11T12:12:03Z</time>
      </trkpt>
      <trkpt lat="47.34327" lon="6.37407">
        <ele>266</ele>
        <time>2017-10-11T12:12:06Z</time>
      </trkpt>
      <trkpt lat="47.34335" lon="6.37403">
        <ele>266</ele>
        <time>2017-10-11T12:12:08Z</time>
      </trkpt>
      <trkpt lat="47.34347" lon="6.37398">
        <ele>267</ele>
        <time>2017-10-11T12:12:11Z</time>
      </trkpt>
      <trkpt lat="47.34361" lon="6.37394">
        <ele>267</ele>
        <time>2017-10-11T12:12:14Z</time>
      </trkpt>
      <trkpt lat="47.34369" lon="6.37393">
        <ele>267</ele>
        <time>2017-10-11T12:12:16Z</time>
      </trkpt>
      <trkpt lat="47.34382" lon="6.37389">
        <ele>267</ele>
        <time>2017-10-11T12:12:19Z</time>
      </trkpt>
      <trkpt lat="47.34395" lon="6.37386">
        <ele>267</ele>
        <time>2017-10-11T12:12:22Z</time>
      </trkpt>
      <trkpt lat="47.34407" lon="6.37384">
        <ele>267</ele>
        <time>2017-10-11T12:12:25Z</time>
      </trkpt>
      <trkpt lat="47.34419" lon="6.37384">
        <ele>269</ele>
        <time>2017-10-11T12:12:28Z</time>
      </trkpt>
      <trkpt lat="47.34432" lon="6.37384">
        <ele>269</ele>
        <time>2017-10-11T12:12:31Z</time>
      </trkpt>
      <trkpt lat="47.34444" lon="6.37383">
        <ele>269</ele>
        <time>2017-10-11T12:12:34Z</time>
      </trkpt>
      <trkpt lat="47.34457" lon="6.37382">
        <ele>270</ele>
        <time>2017-10-11T12:12:37Z</time>
      </trkpt>
      <trkpt lat="47.3447" lon="6.37379">
        <ele>270</ele>
        <time>2017-10-11T12:12:40Z</time>
      </trkpt>
      <trkpt lat="47.34482" lon="6.37377">
        <ele>270</ele>
        <time>2017-10-11T12:12:43Z</time>
      </trkpt>
      <trkpt lat="47.34496" lon="6.37376">
        <ele>270</ele>
        <time>2017-10-11T12:12:46Z</time>
      </trkpt>
      <trkpt lat="47.34506" lon="6.37377">
        <ele>271</ele>
        <time>2017-10-11T12:12:48Z</time>
      </trkpt>
      <trkpt lat="47.34516" lon="6.37378">
        <ele>271</ele>
        <time>2017-10-11T12:12:50Z</time>
      </trkpt>
      <trkpt lat="47.34526" lon="6.37381">
        <ele>271</ele>
        <time>2017-10-11T12:12:52Z</time>
      </trkpt>
      <trkpt lat="47.34535" lon="6.37385">
        <ele>271</ele>
        <time>2017-10-11T12:12:54Z</time>
      </trkpt>
      <trkpt lat="47.34547" lon="6.3739">
        <ele>271</ele>
        <time>2017-10-11T12:12:57Z</time>
      </trkpt>
      <trkpt lat="47.3456" lon="6.37393">
        <ele>271</ele>
        <time>2017-10-11T12:13:00Z</time>
      </trkpt>
      <trkpt lat="47.34573" lon="6.37395">
        <ele>272</ele>
        <time>2017-10-11T12:13:03Z</time>
      </trkpt>
      <trkpt lat="47.34582" lon="6.37398">
        <ele>272</ele>
        <time>2017-10-11T12:13:05Z</time>
      </trkpt>
      <trkpt lat="47.34591" lon="6.374">
        <ele>272</ele>
        <time>2017-10-11T12:13:07Z</time>
      </trkpt>
      <trkpt lat="47.34605" lon="6.37403">
        <ele>271</ele>
        <time>2017-10-11T12:13:10Z</time>
      </trkpt>
      <trkpt lat="47.34615" lon="6.37406">
        <ele>271</ele>
        <time>2017-10-11T12:13:12Z</time>
      </trkpt>
      <trkpt lat="47.34625" lon="6.3741">
        <ele>271</ele>
        <time>2017-10-11T12:13:14Z</time>
      </trkpt>
      <trkpt lat="47.34634" lon="6.37413">
        <ele>271</ele>
        <time>2017-10-11T12:13:16Z</time>
      </trkpt>
      <trkpt lat="47.34643" lon="6.37417">
        <ele>277</ele>
        <time>2017-10-11T12:13:18Z</time>
      </trkpt>
      <trkpt lat="47.34652" lon="6.37419">
        <ele>276</ele>
        <time>2017-10-11T12:13:20Z</time>
      </trkpt>
      <trkpt lat="47.34664" lon="6.37421">
        <ele>274</ele>
        <time>2017-10-11T12:13:23Z</time>
      </trkpt>
      <trkpt lat="47.34674" lon="6.37422">
        <ele>275</ele>
        <time>2017-10-11T12:13:25Z</time>
      </trkpt>
      <trkpt lat="47.34684" lon="6.37425">
        <ele>277</ele>
        <time>2017-10-11T12:13:27Z</time>
      </trkpt>
      <trkpt lat="47.34693" lon="6.37426">
        <ele>278</ele>
        <time>2017-10-11T12:13:29Z</time>
      </trkpt>
      <trkpt lat="47.34706" lon="6.3743">
        <ele>279</ele>
        <time>2017-10-11T12:13:32Z</time>
      </trkpt>
      <trkpt lat="47.34719" lon="6.37435">
        <ele>279</ele>
        <time>2017-10-11T12:13:35Z</time>
      </trkpt>
      <trkpt lat="47.34732" lon="6.37438">
        <ele>279</ele>
        <time>2017-10-11T12:13:38Z</time>
      </trkpt>
      <trkpt lat="47.34741" lon="6.37438">
        <ele>278</ele>
        <time>2017-10-11T12:13:40Z</time>
      </trkpt>
      <trkpt lat="47.34754" lon="6.37439">
        <ele>278</ele>
        <time>2017-10-11T12:13:43Z</time>
      </trkpt>
      <trkpt lat="47.34768" lon="6.37438">
        <ele>278</ele>
        <time>2017-10-11T12:13:46Z</time>
      </trkpt>
      <trkpt lat="47.3478" lon="6.37437">
        <ele>279</ele>
        <time>2017-10-11T12:13:49Z</time>
      </trkpt>
      <trkpt lat="47.34792" lon="6.37437">
        <ele>279</ele>
        <time>2017-10-11T12:13:52Z</time>
      </trkpt>
      <trkpt lat="47.34805" lon="6.37438">
        <ele>278</ele>
        <time>2017-10-11T12:13:55Z</time>
      </trkpt>
      <trkpt lat="47.34814" lon="6.37439">
        <ele>278</ele>
        <time>2017-10-11T12:13:57Z</time>
      </trkpt>
      <trkpt lat="47.34823" lon="6.37438">
        <ele>277</ele>
        <time>2017-10-11T12:13:59Z</time>
      </trkpt>
      <trkpt lat="47.34835" lon="6.37436">
        <ele>275</ele>
        <time>2017-10-11T12:14:02Z</time>
      </trkpt>
      <trkpt lat="47.34847" lon="6.37433">
        <ele>275</ele>
        <time>2017-10-11T12:14:05Z</time>
      </trkpt>
      <trkpt lat="47.34857" lon="6.37431">
        <ele>275</ele>
        <time>2017-10-11T12:14:07Z</time>
      </trkpt>
      <trkpt lat="47.34868" lon="6.37429">
        <ele>274</ele>
        <time>2017-10-11T12:14:09Z</time>
      </trkpt>
      <trkpt lat="47.34878" lon="6.37426">
        <ele>274</ele>
        <time>2017-10-11T12:14:11Z</time>
      </trkpt>
      <trkpt lat="47.34888" lon="6.37424">
        <ele>273</ele>
        <time>2017-10-11T12:14:13Z</time>
      </trkpt>
      <trkpt lat="47.34897" lon="6.3742">
        <ele>272</ele>
        <time>2017-10-11T12:14:15Z</time>
      </trkpt>
      <trkpt lat="47.34909" lon="6.37414">
        <ele>268</ele>
        <time>2017-10-11T12:14:18Z</time>
      </trkpt>
      <trkpt lat="47.34922" lon="6.37407">
        <ele>269</ele>
        <time>2017-10-11T12:14:21Z</time>
      </trkpt>
      <trkpt lat="47.34931" lon="6.37403">
        <ele>269</ele>
        <time>2017-10-11T12:14:23Z</time>
      </trkpt>
      <trkpt lat="47.34939" lon="6.37398">
        <ele>269</ele>
        <time>2017-10-11T12:14:25Z</time>
      </trkpt>
      <trkpt lat="47.34948" lon="6.37392">
        <ele>269</ele>
        <time>2017-10-11T12:14:27Z</time>
      </trkpt>
      <trkpt lat="47.34958" lon="6.37388">
        <ele>270</ele>
        <time>2017-10-11T12:14:29Z</time>
      </trkpt>
      <trkpt lat="47.34966" lon="6.37383">
        <ele>270</ele>
        <time>2017-10-11T12:14:31Z</time>
      </trkpt>
      <trkpt lat="47.34976" lon="6.37379">
        <ele>270</ele>
        <time>2017-10-11T12:14:33Z</time>
      </trkpt>
      <trkpt lat="47.34985" lon="6.37375">
        <ele>270</ele>
        <time>2017-10-11T12:14:35Z</time>
      </trkpt>
      <trkpt lat="47.34994" lon="6.37371">
        <ele>270</ele>
        <time>2017-10-11T12:14:37Z</time>
      </trkpt>
      <trkpt lat="47.35007" lon="6.37367">
        <ele>270</ele>
        <time>2017-10-11T12:14:40Z</time>
      </trkpt>
      <trkpt lat="47.3502" lon="6.37363">
        <ele>270</ele>
        <time>2017-10-11T12:14:43Z</time>
      </trkpt>
      <trkpt lat="47.3503" lon="6.37361">
        <ele>270</ele>
        <time>2017-10-11T12:14:45Z</time>
      </trkpt>
      <trkpt lat="47.35042" lon="6.37356">
        <ele>269</ele>
        <time>2017-10-11T12:14:48Z</time>
      </trkpt>
      <trkpt lat="47.35055" lon="6.37353">
        <ele>269</ele>
        <time>2017-10-11T12:14:51Z</time>
      </trkpt>
      <trkpt lat="47.35067" lon="6.3735">
        <ele>269</ele>
        <time>2017-10-11T12:14:54Z</time>
      </trkpt>
      <trkpt lat="47.3508" lon="6.37351">
        <ele>268</ele>
        <time>2017-10-11T12:14:57Z</time>
      </trkpt>
      <trkpt lat="47.35089" lon="6.37359">
        <ele>267</ele>
        <time>2017-10-11T12:15:00Z</time>
      </trkpt>
      <trkpt lat="47.35096" lon="6.3737">
        <ele>267</ele>
        <time>2017-10-11T12:15:03Z</time>
      </trkpt>
      <trkpt lat="47.35105" lon="6.3738">
        <ele>267</ele>
        <time>2017-10-11T12:15:06Z</time>
      </trkpt>
      <trkpt lat="47.35116" lon="6.37375">
        <ele>267</ele>
        <time>2017-10-11T12:15:09Z</time>
      </trkpt>
      <trkpt lat="47.35123" lon="6.37362">
        <ele>267</ele>
        <time>2017-10-11T12:15:12Z</time>
      </trkpt>
      <trkpt lat="47.35132" lon="6.37351">
        <ele>266</ele>
        <time>2017-10-11T12:15:16Z</time>
      </trkpt>
      <trkpt lat="47.35143" lon="6.37348">
        <ele>266</ele>
        <time>2017-10-11T12:15:20Z</time>
      </trkpt>
      <trkpt lat="47.35152" lon="6.37355">
        <ele>266</ele>
        <time>2017-10-11T12:15:23Z</time>
      </trkpt>
      <trkpt lat="47.35162" lon="6.37363">
        <ele>266</ele>
        <time>2017-10-11T12:15:27Z</time>
      </trkpt>
      <trkpt lat="47.35172" lon="6.37374">
        <ele>265</ele>
        <time>2017-10-11T12:15:31Z</time>
      </trkpt>
      <trkpt lat="47.35181" lon="6.37382">
        <ele>265</ele>
        <time>2017-10-11T12:17:49Z</time>
      </trkpt>
      <trkpt lat="47.35189" lon="6.37392">
        <ele>265</ele>
        <time>2017-10-11T12:17:53Z</time>
      </trkpt>
      <trkpt lat="47.35194" lon="6.37405">
        <ele>265</ele>
        <time>2017-10-11T12:17:57Z</time>
      </trkpt>
      <trkpt lat="47.352" lon="6.3742">
        <ele>266</ele>
        <time>2017-10-11T12:18:01Z</time>
      </trkpt>
      <trkpt lat="47.35206" lon="6.37433">
        <ele>266</ele>
        <time>2017-10-11T12:18:04Z</time>
      </trkpt>
      <trkpt lat="47.35212" lon="6.37446">
        <ele>267</ele>
        <time>2017-10-11T12:18:07Z</time>
      </trkpt>
      <trkpt lat="47.35218" lon="6.3746">
        <ele>267</ele>
        <time>2017-10-11T12:18:10Z</time>
      </trkpt>
      <trkpt lat="47.35226" lon="6.37474">
        <ele>267</ele>
        <time>2017-10-11T12:18:13Z</time>
      </trkpt>
      <trkpt lat="47.35233" lon="6.3749">
        <ele>267</ele>
        <time>2017-10-11T12:18:16Z</time>
      </trkpt>
      <trkpt lat="47.3524" lon="6.37507">
        <ele>267</ele>
        <time>2017-10-11T12:18:19Z</time>
      </trkpt>
      <trkpt lat="47.35245" lon="6.37518">
        <ele>268</ele>
        <time>2017-10-11T12:18:21Z</time>
      </trkpt>
      <trkpt lat="47.35249" lon="6.3753">
        <ele>268</ele>
        <time>2017-10-11T12:18:23Z</time>
      </trkpt>
      <trkpt lat="47.35254" lon="6.37543">
        <ele>266</ele>
        <time>2017-10-11T12:18:25Z</time>
      </trkpt>
      <trkpt lat="47.35258" lon="6.37556">
        <ele>266</ele>
        <time>2017-10-11T12:18:27Z</time>
      </trkpt>
      <trkpt lat="47.35263" lon="6.3757">
        <ele>267</ele>
        <time>2017-10-11T12:18:29Z</time>
      </trkpt>
      <trkpt lat="47.35267" lon="6.37583">
        <ele>267</ele>
        <time>2017-10-11T12:18:31Z</time>
      </trkpt>
      <trkpt lat="47.3527" lon="6.37596">
        <ele>267</ele>
        <time>2017-10-11T12:18:33Z</time>
      </trkpt>
      <trkpt lat="47.35272" lon="6.37609">
        <ele>267</ele>
        <time>2017-10-11T12:18:35Z</time>
      </trkpt>
      <trkpt lat="47.35275" lon="6.37623">
        <ele>267</ele>
        <time>2017-10-11T12:18:37Z</time>
      </trkpt>
      <trkpt lat="47.35277" lon="6.37638">
        <ele>268</ele>
        <time>2017-10-11T12:18:39Z</time>
      </trkpt>
      <trkpt lat="47.3528" lon="6.37653">
        <ele>268</ele>
        <time>2017-10-11T12:18:41Z</time>
      </trkpt>
      <trkpt lat="47.35282" lon="6.37667">
        <ele>269</ele>
        <time>2017-10-11T12:18:43Z</time>
      </trkpt>
      <trkpt lat="47.35284" lon="6.37681">
        <ele>269</ele>
        <time>2017-10-11T12:18:45Z</time>
      </trkpt>
      <trkpt lat="47.35286" lon="6.37695">
        <ele>269</ele>
        <time>2017-10-11T12:18:47Z</time>
      </trkpt>
      <trkpt lat="47.35287" lon="6.37709">
        <ele>270</ele>
        <time>2017-10-11T12:18:49Z</time>
      </trkpt>
      <trkpt lat="47.35288" lon="6.37727">
        <ele>270</ele>
        <time>2017-10-11T12:18:52Z</time>
      </trkpt>
      <trkpt lat="47.35289" lon="6.37744">
        <ele>270</ele>
        <time>2017-10-11T12:18:55Z</time>
      </trkpt>
      <trkpt lat="47.35289" lon="6.37764">
        <ele>274</ele>
        <time>2017-10-11T12:18:58Z</time>
      </trkpt>
      <trkpt lat="47.35288" lon="6.37778">
        <ele>275</ele>
        <time>2017-10-11T12:19:00Z</time>
      </trkpt>
      <trkpt lat="47.35288" lon="6.37793">
        <ele>275</ele>
        <time>2017-10-11T12:19:02Z</time>
      </trkpt>
      <trkpt lat="47.35287" lon="6.37809">
        <ele>276</ele>
        <time>2017-10-11T12:19:04Z</time>
      </trkpt>
      <trkpt lat="47.35286" lon="6.37824">
        <ele>277</ele>
        <time>2017-10-11T12:19:06Z</time>
      </trkpt>
      <trkpt lat="47.35283" lon="6.3784">
        <ele>282</ele>
        <time>2017-10-11T12:19:08Z</time>
      </trkpt>
      <trkpt lat="47.35281" lon="6.37857">
        <ele>282</ele>
        <time>2017-10-11T12:19:10Z</time>
      </trkpt>
      <trkpt lat="47.35276" lon="6.37873">
        <ele>283</ele>
        <time>2017-10-11T12:19:12Z</time>
      </trkpt>
      <trkpt lat="47.35271" lon="6.37888">
        <ele>284</ele>
        <time>2017-10-11T12:19:14Z</time>
      </trkpt>
      <trkpt lat="47.35267" lon="6.379">
        <ele>286</ele>
        <time>2017-10-11T12:19:16Z</time>
      </trkpt>
      <trkpt lat="47.35262" lon="6.37918">
        <ele>289</ele>
        <time>2017-10-11T12:19:19Z</time>
      </trkpt>
      <trkpt lat="47.3526" lon="6.37932">
        <ele>288</ele>
        <time>2017-10-11T12:19:21Z</time>
      </trkpt>
      <trkpt lat="47.35259" lon="6.37947">
        <ele>287</ele>
        <time>2017-10-11T12:19:23Z</time>
      </trkpt>
      <trkpt lat="47.35259" lon="6.37965">
        <ele>287</ele>
        <time>2017-10-11T12:19:25Z</time>
      </trkpt>
      <trkpt lat="47.35258" lon="6.37982">
        <ele>288</ele>
        <time>2017-10-11T12:19:27Z</time>
      </trkpt>
      <trkpt lat="47.35256" lon="6.37998">
        <ele>291</ele>
        <time>2017-10-11T12:19:29Z</time>
      </trkpt>
      <trkpt lat="47.35253" lon="6.38014">
        <ele>288</ele>
        <time>2017-10-11T12:19:31Z</time>
      </trkpt>
      <trkpt lat="47.3525" lon="6.38031">
        <ele>305</ele>
        <time>2017-10-11T12:19:33Z</time>
      </trkpt>
      <trkpt lat="47.35246" lon="6.38046">
        <ele>305</ele>
        <time>2017-10-11T12:19:35Z</time>
      </trkpt>
      <trkpt lat="47.35243" lon="6.38062">
        <ele>302</ele>
        <time>2017-10-11T12:19:37Z</time>
      </trkpt>
      <trkpt lat="47.35239" lon="6.38077">
        <ele>298</ele>
        <time>2017-10-11T12:19:39Z</time>
      </trkpt>
      <trkpt lat="47.35235" lon="6.38092">
        <ele>298</ele>
        <time>2017-10-11T12:19:41Z</time>
      </trkpt>
      <trkpt lat="47.3523" lon="6.38107">
        <ele>301</ele>
        <time>2017-10-11T12:19:43Z</time>
      </trkpt>
      <trkpt lat="47.35228" lon="6.38124">
        <ele>302</ele>
        <time>2017-10-11T12:19:45Z</time>
      </trkpt>
      <trkpt lat="47.35226" lon="6.38141">
        <ele>301</ele>
        <time>2017-10-11T12:19:47Z</time>
      </trkpt>
      <trkpt lat="47.35223" lon="6.38156">
        <ele>300</ele>
        <time>2017-10-11T12:19:49Z</time>
      </trkpt>
      <trkpt lat="47.35219" lon="6.38173">
        <ele>295</ele>
        <time>2017-10-11T12:19:51Z</time>
      </trkpt>
      <trkpt lat="47.35216" lon="6.38189">
        <ele>296</ele>
        <time>2017-10-11T12:19:53Z</time>
      </trkpt>
      <trkpt lat="47.35214" lon="6.38205">
        <ele>296</ele>
        <time>2017-10-11T12:19:55Z</time>
      </trkpt>
      <trkpt lat="47.3521" lon="6.38222">
        <ele>295</ele>
        <time>2017-10-11T12:19:57Z</time>
      </trkpt>
      <trkpt lat="47.35208" lon="6.38238">
        <ele>295</ele>
        <time>2017-10-11T12:19:59Z</time>
      </trkpt>
      <trkpt lat="47.35205" lon="6.38254">
        <ele>288</ele>
        <time>2017-10-11T12:20:01Z</time>
      </trkpt>
      <trkpt lat="47.35202" lon="6.38269">
        <ele>288</ele>
        <time>2017-10-11T12:20:03Z</time>
      </trkpt>
      <trkpt lat="47.352" lon="6.38286">
        <ele>287</ele>
        <time>2017-10-11T12:20:05Z</time>
      </trkpt>
      <trkpt lat="47.35199" lon="6.38304">
        <ele>285</ele>
        <time>2017-10-11T12:20:07Z</time>
      </trkpt>
      <trkpt lat="47.35198" lon="6.3832">
        <ele>285</ele>
        <time>2017-10-11T12:20:09Z</time>
      </trkpt>
      <trkpt lat="47.35196" lon="6.38336">
        <ele>280</ele>
        <time>2017-10-11T12:20:11Z</time>
      </trkpt>
      <trkpt lat="47.35194" lon="6.38352">
        <ele>280</ele>
        <time>2017-10-11T12:20:14Z</time>
      </trkpt>
      <trkpt lat="47.35191" lon="6.3837">
        <ele>280</ele>
        <time>2017-10-11T12:20:17Z</time>
      </trkpt>
      <trkpt lat="47.3519" lon="6.38383">
        <ele>279</ele>
        <time>2017-10-11T12:20:19Z</time>
      </trkpt>
      <trkpt lat="47.35189" lon="6.38398">
        <ele>279</ele>
        <time>2017-10-11T12:20:21Z</time>
      </trkpt>
      <trkpt lat="47.35188" lon="6.38414">
        <ele>280</ele>
        <time>2017-10-11T12:20:23Z</time>
      </trkpt>
      <trkpt lat="47.35186" lon="6.38431">
        <ele>277</ele>
        <time>2017-10-11T12:20:25Z</time>
      </trkpt>
      <trkpt lat="47.35184" lon="6.38445">
        <ele>276</ele>
        <time>2017-10-11T12:20:27Z</time>
      </trkpt>
      <trkpt lat="47.35181" lon="6.38458">
        <ele>276</ele>
        <time>2017-10-11T12:20:29Z</time>
      </trkpt>
      <trkpt lat="47.35177" lon="6.38473">
        <ele>276</ele>
        <time>2017-10-11T12:20:31Z</time>
      </trkpt>
      <trkpt lat="47.35175" lon="6.3849">
        <ele>276</ele>
        <time>2017-10-11T12:20:33Z</time>
      </trkpt>
      <trkpt lat="47.35173" lon="6.38507">
        <ele>276</ele>
        <time>2017-10-11T12:20:35Z</time>
      </trkpt>
      <trkpt lat="47.35172" lon="6.38525">
        <ele>274</ele>
        <time>2017-10-11T12:20:37Z</time>
      </trkpt>
      <trkpt lat="47.35174" lon="6.38542">
        <ele>273</ele>
        <time>2017-10-11T12:20:39Z</time>
      </trkpt>
      <trkpt lat="47.35175" lon="6.38559">
        <ele>272</ele>
        <time>2017-10-11T12:20:41Z</time>
      </trkpt>
      <trkpt lat="47.35176" lon="6.38577">
        <ele>272</ele>
        <time>2017-10-11T12:20:43Z</time>
      </trkpt>
      <trkpt lat="47.35177" lon="6.38595">
        <ele>272</ele>
        <time>2017-10-11T12:20:45Z</time>
      </trkpt>
      <trkpt lat="47.35178" lon="6.38612">
        <ele>272</ele>
        <time>2017-10-11T12:20:47Z</time>
      </trkpt>
      <trkpt lat="47.35179" lon="6.38629">
        <ele>273</ele>
        <time>2017-10-11T12:20:49Z</time>
      </trkpt>
      <trkpt lat="47.35181" lon="6.38645">
        <ele>273</ele>
        <time>2017-10-11T12:20:51Z</time>
      </trkpt>
      <trkpt lat="47.35182" lon="6.38661">
        <ele>274</ele>
        <time>2017-10-11T12:20:53Z</time>
      </trkpt>
      <trkpt lat="47.35183" lon="6.38676">
        <ele>276</ele>
        <time>2017-10-11T12:20:55Z</time>
      </trkpt>
      <trkpt lat="47.35185" lon="6.38692">
        <ele>276</ele>
        <time>2017-10-11T12:20:57Z</time>
      </trkpt>
      <trkpt lat="47.35188" lon="6.38706">
        <ele>276</ele>
        <time>2017-10-11T12:20:59Z</time>
      </trkpt>
      <trkpt lat="47.35191" lon="6.38722">
        <ele>276</ele>
        <time>2017-10-11T12:21:01Z</time>
      </trkpt>
      <trkpt lat="47.35195" lon="6.38737">
        <ele>277</ele>
        <time>2017-10-11T12:21:03Z</time>
      </trkpt>
      <trkpt lat="47.352" lon="6.38752">
        <ele>280</ele>
        <time>2017-10-11T12:21:05Z</time>
      </trkpt>
      <trkpt lat="47.35205" lon="6.38767">
        <ele>279</ele>
        <time>2017-10-11T12:21:07Z</time>
      </trkpt>
      <trkpt lat="47.3521" lon="6.38781">
        <ele>279</ele>
        <time>2017-10-11T12:21:09Z</time>
      </trkpt>
      <trkpt lat="47.35215" lon="6.38793">
        <ele>279</ele>
        <time>2017-10-11T12:21:11Z</time>
      </trkpt>
      <trkpt lat="47.35221" lon="6.38804">
        <ele>279</ele>
        <time>2017-10-11T12:21:13Z</time>
      </trkpt>
      <trkpt lat="47.35225" lon="6.38816">
        <ele>279</ele>
        <time>2017-10-11T12:21:15Z</time>
      </trkpt>
      <trkpt lat="47.35229" lon="6.38828">
        <ele>278</ele>
        <time>2017-10-11T12:21:17Z</time>
      </trkpt>
      <trkpt lat="47.35232" lon="6.38841">
        <ele>284</ele>
        <time>2017-10-11T12:21:19Z</time>
      </trkpt>
      <trkpt lat="47.35236" lon="6.38856">
        <ele>287</ele>
        <time>2017-10-11T12:21:21Z</time>
      </trkpt>
      <trkpt lat="47.35241" lon="6.3887">
        <ele>289</ele>
        <time>2017-10-11T12:21:23Z</time>
      </trkpt>
      <trkpt lat="47.35246" lon="6.38883">
        <ele>291</ele>
        <time>2017-10-11T12:21:25Z</time>
      </trkpt>
      <trkpt lat="47.35252" lon="6.38897">
        <ele>282</ele>
        <time>2017-10-11T12:21:27Z</time>
      </trkpt>
      <trkpt lat="47.35258" lon="6.38913">
        <ele>286</ele>
        <time>2017-10-11T12:21:29Z</time>
      </trkpt>
      <trkpt lat="47.35264" lon="6.38929">
        <ele>292</ele>
        <time>2017-10-11T12:21:31Z</time>
      </trkpt>
      <trkpt lat="47.3527" lon="6.38946">
        <ele>294</ele>
        <time>2017-10-11T12:21:33Z</time>
      </trkpt>
      <trkpt lat="47.35276" lon="6.38958">
        <ele>296</ele>
        <time>2017-10-11T12:21:35Z</time>
      </trkpt>
      <trkpt lat="47.3528" lon="6.3897">
        <ele>298</ele>
        <time>2017-10-11T12:21:37Z</time>
      </trkpt>
      <trkpt lat="47.35286" lon="6.38981">
        <ele>298</ele>
        <time>2017-10-11T12:21:39Z</time>
      </trkpt>
      <trkpt lat="47.35296" lon="6.38995">
        <ele>297</ele>
        <time>2017-10-11T12:21:42Z</time>
      </trkpt>
      <trkpt lat="47.35303" lon="6.39009">
        <ele>311</ele>
        <time>2017-10-11T12:21:44Z</time>
      </trkpt>
      <trkpt lat="47.35312" lon="6.39022">
        <ele>311</ele>
        <time>2017-10-11T12:21:46Z</time>
      </trkpt>
      <trkpt lat="47.3532" lon="6.39036">
        <ele>313</ele>
        <time>2017-10-11T12:21:48Z</time>
      </trkpt>
      <trkpt lat="47.35331" lon="6.39048">
        <ele>314</ele>
        <time>2017-10-11T12:21:50Z</time>
      </trkpt>
      <trkpt lat="47.35341" lon="6.39059">
        <ele>298</ele>
        <time>2017-10-11T12:21:52Z</time>
      </trkpt>
      <trkpt lat="47.35349" lon="6.3907">
        <ele>299</ele>
        <time>2017-10-11T12:21:54Z</time>
      </trkpt>
      <trkpt lat="47.35355" lon="6.39082">
        <ele>299</ele>
        <time>2017-10-11T12:21:56Z</time>
      </trkpt>
      <trkpt lat="47.35362" lon="6.39096">
        <ele>307</ele>
        <time>2017-10-11T12:21:59Z</time>
      </trkpt>
      <trkpt lat="47.3537" lon="6.39107">
        <ele>306</ele>
        <time>2017-10-11T12:22:02Z</time>
      </trkpt>
      <trkpt lat="47.35378" lon="6.39116">
        <ele>305</ele>
        <time>2017-10-11T12:22:04Z</time>
      </trkpt>
      <trkpt lat="47.35387" lon="6.39125">
        <ele>304</ele>
        <time>2017-10-11T12:22:06Z</time>
      </trkpt>
      <trkpt lat="47.35396" lon="6.39133">
        <ele>303</ele>
        <time>2017-10-11T12:22:08Z</time>
      </trkpt>
      <trkpt lat="47.35405" lon="6.39141">
        <ele>302</ele>
        <time>2017-10-11T12:22:10Z</time>
      </trkpt>
      <trkpt lat="47.35413" lon="6.39152">
        <ele>300</ele>
        <time>2017-10-11T12:22:12Z</time>
      </trkpt>
      <trkpt lat="47.35422" lon="6.39167">
        <ele>293</ele>
        <time>2017-10-11T12:22:15Z</time>
      </trkpt>
      <trkpt lat="47.35429" lon="6.3918">
        <ele>291</ele>
        <time>2017-10-11T12:22:17Z</time>
      </trkpt>
      <trkpt lat="47.35437" lon="6.39194">
        <ele>291</ele>
        <time>2017-10-11T12:22:19Z</time>
      </trkpt>
      <trkpt lat="47.35445" lon="6.39206">
        <ele>290</ele>
        <time>2017-10-11T12:22:21Z</time>
      </trkpt>
      <trkpt lat="47.35455" lon="6.39217">
        <ele>290</ele>
        <time>2017-10-11T12:22:23Z</time>
      </trkpt>
      <trkpt lat="47.35464" lon="6.39227">
        <ele>289</ele>
        <time>2017-10-11T12:22:25Z</time>
      </trkpt>
      <trkpt lat="47.35473" lon="6.39237">
        <ele>287</ele>
        <time>2017-10-11T12:22:27Z</time>
      </trkpt>
      <trkpt lat="47.35482" lon="6.39247">
        <ele>284</ele>
        <time>2017-10-11T12:22:29Z</time>
      </trkpt>
      <trkpt lat="47.35491" lon="6.39257">
        <ele>285</ele>
        <time>2017-10-11T12:22:31Z</time>
      </trkpt>
      <trkpt lat="47.355" lon="6.39267">
        <ele>277</ele>
        <time>2017-10-11T12:22:33Z</time>
      </trkpt>
      <trkpt lat="47.3551" lon="6.39278">
        <ele>276</ele>
        <time>2017-10-11T12:22:35Z</time>
      </trkpt>
      <trkpt lat="47.35519" lon="6.39288">
        <ele>276</ele>
        <time>2017-10-11T12:22:37Z</time>
      </trkpt>
      <trkpt lat="47.35535" lon="6.39294">
        <ele>275</ele>
        <time>2017-10-11T12:22:39Z</time>
      </trkpt>
      <trkpt lat="47.35544" lon="6.39296">
        <ele>274</ele>
        <time>2017-10-11T12:22:40Z</time>
      </trkpt>
      <trkpt lat="47.35563" lon="6.39301">
        <ele>272</ele>
        <time>2017-10-11T12:22:42Z</time>
      </trkpt>
      <trkpt lat="47.35578" lon="6.39307">
        <ele>271</ele>
        <time>2017-10-11T12:22:44Z</time>
      </trkpt>
      <trkpt lat="47.3559" lon="6.39315">
        <ele>268</ele>
        <time>2017-10-11T12:22:46Z</time>
      </trkpt>
      <trkpt lat="47.35602" lon="6.39321">
        <ele>268</ele>
        <time>2017-10-11T12:22:48Z</time>
      </trkpt>
      <trkpt lat="47.35613" lon="6.39328">
        <ele>269</ele>
        <time>2017-10-11T12:22:50Z</time>
      </trkpt>
      <trkpt lat="47.35624" lon="6.39336">
        <ele>268</ele>
        <time>2017-10-11T12:22:52Z</time>
      </trkpt>
      <trkpt lat="47.35633" lon="6.39346">
        <ele>269</ele>
        <time>2017-10-11T12:22:54Z</time>
      </trkpt>
      <trkpt lat="47.35642" lon="6.39357">
        <ele>269</ele>
        <time>2017-10-11T12:22:56Z</time>
      </trkpt>
      <trkpt lat="47.3565" lon="6.39369">
        <ele>269</ele>
        <time>2017-10-11T12:22:58Z</time>
      </trkpt>
      <trkpt lat="47.35658" lon="6.39381">
        <ele>268</ele>
        <time>2017-10-11T12:23:00Z</time>
      </trkpt>
      <trkpt lat="47.35666" lon="6.39391">
        <ele>268</ele>
        <time>2017-10-11T12:23:02Z</time>
      </trkpt>
      <trkpt lat="47.35673" lon="6.394">
        <ele>268</ele>
        <time>2017-10-11T12:23:04Z</time>
      </trkpt>
      <trkpt lat="47.35682" lon="6.39414">
        <ele>268</ele>
        <time>2017-10-11T12:23:07Z</time>
      </trkpt>
      <trkpt lat="47.35688" lon="6.39425">
        <ele>267</ele>
        <time>2017-10-11T12:23:09Z</time>
      </trkpt>
      <trkpt lat="47.35694" lon="6.39436">
        <ele>267</ele>
        <time>2017-10-11T12:23:11Z</time>
      </trkpt>
      <trkpt lat="47.35699" lon="6.39448">
        <ele>267</ele>
        <time>2017-10-11T12:23:13Z</time>
      </trkpt>
      <trkpt lat="47.35704" lon="6.39461">
        <ele>267</ele>
        <time>2017-10-11T12:23:15Z</time>
      </trkpt>
      <trkpt lat="47.35708" lon="6.39474">
        <ele>267</ele>
        <time>2017-10-11T12:23:17Z</time>
      </trkpt>
      <trkpt lat="47.35712" lon="6.39488">
        <ele>267</ele>
        <time>2017-10-11T12:23:19Z</time>
      </trkpt>
      <trkpt lat="47.35717" lon="6.39502">
        <ele>267</ele>
        <time>2017-10-11T12:23:21Z</time>
      </trkpt>
      <trkpt lat="47.35721" lon="6.39515">
        <ele>267</ele>
        <time>2017-10-11T12:23:23Z</time>
      </trkpt>
      <trkpt lat="47.35725" lon="6.39529">
        <ele>267</ele>
        <time>2017-10-11T12:23:25Z</time>
      </trkpt>
      <trkpt lat="47.3573" lon="6.39542">
        <ele>267</ele>
        <time>2017-10-11T12:23:27Z</time>
      </trkpt>
      <trkpt lat="47.35734" lon="6.39555">
        <ele>267</ele>
        <time>2017-10-11T12:23:29Z</time>
      </trkpt>
      <trkpt lat="47.35737" lon="6.39568">
        <ele>267</ele>
        <time>2017-10-11T12:23:31Z</time>
      </trkpt>
      <trkpt lat="47.35741" lon="6.39585">
        <ele>267</ele>
        <time>2017-10-11T12:23:34Z</time>
      </trkpt>
      <trkpt lat="47.35745" lon="6.39602">
        <ele>268</ele>
        <time>2017-10-11T12:23:37Z</time>
      </trkpt>
      <trkpt lat="47.35748" lon="6.39615">
        <ele>268</ele>
        <time>2017-10-11T12:23:39Z</time>
      </trkpt>
      <trkpt lat="47.35752" lon="6.39628">
        <ele>271</ele>
        <time>2017-10-11T12:23:41Z</time>
      </trkpt>
      <trkpt lat="47.35754" lon="6.39642">
        <ele>270</ele>
        <time>2017-10-11T12:23:43Z</time>
      </trkpt>
      <trkpt lat="47.35757" lon="6.39656">
        <ele>268</ele>
        <time>2017-10-11T12:23:45Z</time>
      </trkpt>
      <trkpt lat="47.3576" lon="6.3967">
        <ele>268</ele>
        <time>2017-10-11T12:23:47Z</time>
      </trkpt>
      <trkpt lat="47.35762" lon="6.39683">
        <ele>269</ele>
        <time>2017-10-11T12:23:49Z</time>
      </trkpt>
      <trkpt lat="47.35761" lon="6.39701">
        <ele>270</ele>
        <time>2017-10-11T12:23:52Z</time>
      </trkpt>
      <trkpt lat="47.35764" lon="6.39721">
        <ele>270</ele>
        <time>2017-10-11T12:23:55Z</time>
      </trkpt>
      <trkpt lat="47.35765" lon="6.39735">
        <ele>269</ele>
        <time>2017-10-11T12:23:57Z</time>
      </trkpt>
      <trkpt lat="47.35765" lon="6.3975">
        <ele>267</ele>
        <time>2017-10-11T12:23:59Z</time>
      </trkpt>
      <trkpt lat="47.35764" lon="6.39766">
        <ele>268</ele>
        <time>2017-10-11T12:24:01Z</time>
      </trkpt>
      <trkpt lat="47.35765" lon="6.39782">
        <ele>269</ele>
        <time>2017-10-11T12:24:03Z</time>
      </trkpt>
      <trkpt lat="47.35766" lon="6.39796">
        <ele>269</ele>
        <time>2017-10-11T12:24:05Z</time>
      </trkpt>
      <trkpt lat="47.35766" lon="6.39812">
        <ele>268</ele>
        <time>2017-10-11T12:24:07Z</time>
      </trkpt>
      <trkpt lat="47.35767" lon="6.39827">
        <ele>268</ele>
        <time>2017-10-11T12:24:09Z</time>
      </trkpt>
      <trkpt lat="47.35767" lon="6.39843">
        <ele>267</ele>
        <time>2017-10-11T12:24:11Z</time>
      </trkpt>
      <trkpt lat="47.35768" lon="6.39858">
        <ele>268</ele>
        <time>2017-10-11T12:24:13Z</time>
      </trkpt>
      <trkpt lat="47.35768" lon="6.39873">
        <ele>268</ele>
        <time>2017-10-11T12:24:15Z</time>
      </trkpt>
      <trkpt lat="47.35766" lon="6.3989">
        <ele>268</ele>
        <time>2017-10-11T12:24:18Z</time>
      </trkpt>
      <trkpt lat="47.35762" lon="6.39904">
        <ele>268</ele>
        <time>2017-10-11T12:24:21Z</time>
      </trkpt>
      <trkpt lat="47.35757" lon="6.39914">
        <ele>267</ele>
        <time>2017-10-11T12:24:24Z</time>
      </trkpt>
      <trkpt lat="47.35751" lon="6.39925">
        <ele>268</ele>
        <time>2017-10-11T12:27:28Z</time>
      </trkpt>
      <trkpt lat="47.35748" lon="6.39941">
        <ele>273</ele>
        <time>2017-10-11T12:27:33Z</time>
      </trkpt>
      <trkpt lat="47.3575" lon="6.39956">
        <ele>269</ele>
        <time>2017-10-11T12:27:37Z</time>
      </trkpt>
      <trkpt lat="47.35754" lon="6.39972">
        <ele>269</ele>
        <time>2017-10-11T12:27:40Z</time>
      </trkpt>
      <trkpt lat="47.35751" lon="6.39989">
        <ele>269</ele>
        <time>2017-10-11T12:27:43Z</time>
      </trkpt>
      <trkpt lat="47.35745" lon="6.40005">
        <ele>272</ele>
        <time>2017-10-11T12:27:46Z</time>
      </trkpt>
      <trkpt lat="47.3574" lon="6.40023">
        <ele>276</ele>
        <time>2017-10-11T12:27:49Z</time>
      </trkpt>
      <trkpt lat="47.35737" lon="6.40036">
        <ele>277</ele>
        <time>2017-10-11T12:27:51Z</time>
      </trkpt>
      <trkpt lat="47.35735" lon="6.40049">
        <ele>277</ele>
        <time>2017-10-11T12:27:53Z</time>
      </trkpt>
      <trkpt lat="47.35733" lon="6.40062">
        <ele>276</ele>
        <time>2017-10-11T12:27:55Z</time>
      </trkpt>
      <trkpt lat="47.3573" lon="6.40075">
        <ele>276</ele>
        <time>2017-10-11T12:27:57Z</time>
      </trkpt>
      <trkpt lat="47.35727" lon="6.40088">
        <ele>276</ele>
        <time>2017-10-11T12:27:59Z</time>
      </trkpt>
      <trkpt lat="47.35725" lon="6.40101">
        <ele>277</ele>
        <time>2017-10-11T12:28:01Z</time>
      </trkpt>
      <trkpt lat="47.35722" lon="6.40116">
        <ele>278</ele>
        <time>2017-10-11T12:28:03Z</time>
      </trkpt>
      <trkpt lat="47.3572" lon="6.40131">
        <ele>278</ele>
        <time>2017-10-11T12:28:05Z</time>
      </trkpt>
      <trkpt lat="47.35717" lon="6.40144">
        <ele>278</ele>
        <time>2017-10-11T12:28:07Z</time>
      </trkpt>
      <trkpt lat="47.35711" lon="6.40162">
        <ele>279</ele>
        <time>2017-10-11T12:28:10Z</time>
      </trkpt>
      <trkpt lat="47.35706" lon="6.40175">
        <ele>279</ele>
        <time>2017-10-11T12:28:12Z</time>
      </trkpt>
      <trkpt lat="47.35702" lon="6.40187">
        <ele>280</ele>
        <time>2017-10-11T12:28:14Z</time>
      </trkpt>
      <trkpt lat="47.35698" lon="6.40201">
        <ele>280</ele>
        <time>2017-10-11T12:28:16Z</time>
      </trkpt>
      <trkpt lat="47.35694" lon="6.40215">
        <ele>281</ele>
        <time>2017-10-11T12:28:18Z</time>
      </trkpt>
      <trkpt lat="47.35689" lon="6.40231">
        <ele>282</ele>
        <time>2017-10-11T12:28:20Z</time>
      </trkpt>
      <trkpt lat="47.35684" lon="6.40247">
        <ele>285</ele>
        <time>2017-10-11T12:28:22Z</time>
      </trkpt>
      <trkpt lat="47.35679" lon="6.40263">
        <ele>284</ele>
        <time>2017-10-11T12:28:24Z</time>
      </trkpt>
      <trkpt lat="47.35674" lon="6.40279">
        <ele>283</ele>
        <time>2017-10-11T12:28:26Z</time>
      </trkpt>
      <trkpt lat="47.3567" lon="6.40295">
        <ele>282</ele>
        <time>2017-10-11T12:28:28Z</time>
      </trkpt>
      <trkpt lat="47.35666" lon="6.40315">
        <ele>303</ele>
        <time>2017-10-11T12:28:30Z</time>
      </trkpt>
      <trkpt lat="47.35663" lon="6.40341">
        <ele>294</ele>
        <time>2017-10-11T12:28:32Z</time>
      </trkpt>
      <trkpt lat="47.3566" lon="6.40365">
        <ele>306</ele>
        <time>2017-10-11T12:28:34Z</time>
      </trkpt>
      <trkpt lat="47.35656" lon="6.40384">
        <ele>307</ele>
        <time>2017-10-11T12:28:36Z</time>
      </trkpt>
      <trkpt lat="47.35652" lon="6.40404">
        <ele>304</ele>
        <time>2017-10-11T12:28:38Z</time>
      </trkpt>
      <trkpt lat="47.35648" lon="6.40422">
        <ele>303</ele>
        <time>2017-10-11T12:28:40Z</time>
      </trkpt>
      <trkpt lat="47.35645" lon="6.40445">
        <ele>309</ele>
        <time>2017-10-11T12:28:42Z</time>
      </trkpt>
      <trkpt lat="47.35642" lon="6.40468">
        <ele>310</ele>
        <time>2017-10-11T12:28:44Z</time>
      </trkpt>
      <trkpt lat="47.35639" lon="6.40491">
        <ele>309</ele>
        <time>2017-10-11T12:28:46Z</time>
      </trkpt>
      <trkpt lat="47.35638" lon="6.40514">
        <ele>305</ele>
        <time>2017-10-11T12:28:48Z</time>
      </trkpt>
      <trkpt lat="47.35636" lon="6.40537">
        <ele>306</ele>
        <time>2017-10-11T12:28:50Z</time>
      </trkpt>
      <trkpt lat="47.35635" lon="6.40558">
        <ele>305</ele>
        <time>2017-10-11T12:28:52Z</time>
      </trkpt>
      <trkpt lat="47.3563" lon="6.4058">
        <ele>305</ele>
        <time>2017-10-11T12:28:54Z</time>
      </trkpt>
      <trkpt lat="47.35629" lon="6.40603">
        <ele>301</ele>
        <time>2017-10-11T12:28:56Z</time>
      </trkpt>
      <trkpt lat="47.35627" lon="6.40625">
        <ele>302</ele>
        <time>2017-10-11T12:28:58Z</time>
      </trkpt>
      <trkpt lat="47.35625" lon="6.40645">
        <ele>302</ele>
        <time>2017-10-11T12:29:00Z</time>
      </trkpt>
      <trkpt lat="47.35624" lon="6.40667">
        <ele>299</ele>
        <time>2017-10-11T12:29:02Z</time>
      </trkpt>
      <trkpt lat="47.35624" lon="6.40691">
        <ele>299</ele>
        <time>2017-10-11T12:29:04Z</time>
      </trkpt>
      <trkpt lat="47.35624" lon="6.40713">
        <ele>298</ele>
        <time>2017-10-11T12:29:06Z</time>
      </trkpt>
      <trkpt lat="47.35625" lon="6.40737">
        <ele>298</ele>
        <time>2017-10-11T12:29:08Z</time>
      </trkpt>
      <trkpt lat="47.35626" lon="6.40761">
        <ele>294</ele>
        <time>2017-10-11T12:29:10Z</time>
      </trkpt>
      <trkpt lat="47.35628" lon="6.40782">
        <ele>292</ele>
        <time>2017-10-11T12:29:12Z</time>
      </trkpt>
      <trkpt lat="47.3563" lon="6.40802">
        <ele>291</ele>
        <time>2017-10-11T12:29:14Z</time>
      </trkpt>
      <trkpt lat="47.35631" lon="6.40824">
        <ele>290</ele>
        <time>2017-10-11T12:29:16Z</time>
      </trkpt>
      <trkpt lat="47.35632" lon="6.40846">
        <ele>286</ele>
        <time>2017-10-11T12:29:18Z</time>
      </trkpt>
      <trkpt lat="47.35632" lon="6.40866">
        <ele>286</ele>
        <time>2017-10-11T12:29:20Z</time>
      </trkpt>
      <trkpt lat="47.35632" lon="6.40887">
        <ele>285</ele>
        <time>2017-10-11T12:29:22Z</time>
      </trkpt>
      <trkpt lat="47.35633" lon="6.40909">
        <ele>284</ele>
        <time>2017-10-11T12:29:24Z</time>
      </trkpt>
      <trkpt lat="47.35632" lon="6.4093">
        <ele>284</ele>
        <time>2017-10-11T12:29:26Z</time>
      </trkpt>
      <trkpt lat="47.35633" lon="6.40952">
        <ele>284</ele>
        <time>2017-10-11T12:29:28Z</time>
      </trkpt>
      <trkpt lat="47.35635" lon="6.40973">
        <ele>284</ele>
        <time>2017-10-11T12:29:30Z</time>
      </trkpt>
      <trkpt lat="47.35638" lon="6.40993">
        <ele>282</ele>
        <time>2017-10-11T12:29:32Z</time>
      </trkpt>
      <trkpt lat="47.35642" lon="6.41013">
        <ele>283</ele>
        <time>2017-10-11T12:29:34Z</time>
      </trkpt>
      <trkpt lat="47.35644" lon="6.41034">
        <ele>284</ele>
        <time>2017-10-11T12:29:36Z</time>
      </trkpt>
      <trkpt lat="47.35646" lon="6.41053">
        <ele>284</ele>
        <time>2017-10-11T12:29:38Z</time>
      </trkpt>
      <trkpt lat="47.35648" lon="6.41072">
        <ele>281</ele>
        <time>2017-10-11T12:29:40Z</time>
      </trkpt>
      <trkpt lat="47.35652" lon="6.41092">
        <ele>282</ele>
        <time>2017-10-11T12:29:42Z</time>
      </trkpt>
      <trkpt lat="47.35656" lon="6.41111">
        <ele>286</ele>
        <time>2017-10-11T12:29:44Z</time>
      </trkpt>
      <trkpt lat="47.3566" lon="6.4113">
        <ele>287</ele>
        <time>2017-10-11T12:29:46Z</time>
      </trkpt>
      <trkpt lat="47.35663" lon="6.4115">
        <ele>284</ele>
        <time>2017-10-11T12:29:48Z</time>
      </trkpt>
      <trkpt lat="47.35664" lon="6.41171">
        <ele>280</ele>
        <time>2017-10-11T12:29:50Z</time>
      </trkpt>
      <trkpt lat="47.35667" lon="6.4119">
        <ele>273</ele>
        <time>2017-10-11T12:29:52Z</time>
      </trkpt>
      <trkpt lat="47.35671" lon="6.41207">
        <ele>273</ele>
        <time>2017-10-11T12:29:54Z</time>
      </trkpt>
      <trkpt lat="47.35675" lon="6.41225">
        <ele>273</ele>
        <time>2017-10-11T12:29:56Z</time>
      </trkpt>
      <trkpt lat="47.35679" lon="6.41244">
        <ele>273</ele>
        <time>2017-10-11T12:29:58Z</time>
      </trkpt>
      <trkpt lat="47.35683" lon="6.41262">
        <ele>273</ele>
        <time>2017-10-11T12:30:00Z</time>
      </trkpt>
      <trkpt lat="47.35687" lon="6.41281">
        <ele>273</ele>
        <time>2017-10-11T12:30:02Z</time>
      </trkpt>
      <trkpt lat="47.35692" lon="6.413">
        <ele>273</ele>
        <time>2017-10-11T12:30:04Z</time>
      </trkpt>
      <trkpt lat="47.35696" lon="6.4132">
        <ele>274</ele>
        <time>2017-10-11T12:30:06Z</time>
      </trkpt>
      <trkpt lat="47.35702" lon="6.4134">
        <ele>277</ele>
        <time>2017-10-11T12:30:08Z</time>
      </trkpt>
      <trkpt lat="47.35708" lon="6.4136">
        <ele>277</ele>
        <time>2017-10-11T12:30:10Z</time>
      </trkpt>
      <trkpt lat="47.35713" lon="6.4138">
        <ele>278</ele>
        <time>2017-10-11T12:30:12Z</time>
      </trkpt>
      <trkpt lat="47.35719" lon="6.41398">
        <ele>277</ele>
        <time>2017-10-11T12:30:14Z</time>
      </trkpt>
      <trkpt lat="47.35723" lon="6.41418">
        <ele>282</ele>
        <time>2017-10-11T12:30:16Z</time>
      </trkpt>
      <trkpt lat="47.35728" lon="6.41437">
        <ele>282</ele>
        <time>2017-10-11T12:30:18Z</time>
      </trkpt>
      <trkpt lat="47.3573" lon="6.41456">
        <ele>283</ele>
        <time>2017-10-11T12:30:20Z</time>
      </trkpt>
      <trkpt lat="47.35731" lon="6.41472">
        <ele>283</ele>
        <time>2017-10-11T12:30:22Z</time>
      </trkpt>
      <trkpt lat="47.35733" lon="6.41489">
        <ele>282</ele>
        <time>2017-10-11T12:30:24Z</time>
      </trkpt>
      <trkpt lat="47.35737" lon="6.41506">
        <ele>285</ele>
        <time>2017-10-11T12:30:26Z</time>
      </trkpt>
      <trkpt lat="47.3574" lon="6.41524">
        <ele>289</ele>
        <time>2017-10-11T12:30:28Z</time>
      </trkpt>
      <trkpt lat="47.35745" lon="6.41543">
        <ele>291</ele>
        <time>2017-10-11T12:30:30Z</time>
      </trkpt>
      <trkpt lat="47.35749" lon="6.41563">
        <ele>291</ele>
        <time>2017-10-11T12:30:32Z</time>
      </trkpt>
      <trkpt lat="47.35752" lon="6.41586">
        <ele>283</ele>
        <time>2017-10-11T12:30:34Z</time>
      </trkpt>
      <trkpt lat="47.35756" lon="6.4161">
        <ele>281</ele>
        <time>2017-10-11T12:30:36Z</time>
      </trkpt>
      <trkpt lat="47.35759" lon="6.41633">
        <ele>282</ele>
        <time>2017-10-11T12:30:38Z</time>
      </trkpt>
      <trkpt lat="47.35763" lon="6.41654">
        <ele>285</ele>
        <time>2017-10-11T12:30:40Z</time>
      </trkpt>
      <trkpt lat="47.35766" lon="6.41677">
        <ele>288</ele>
        <time>2017-10-11T12:30:42Z</time>
      </trkpt>
      <trkpt lat="47.35772" lon="6.41699">
        <ele>288</ele>
        <time>2017-10-11T12:30:44Z</time>
      </trkpt>
      <trkpt lat="47.35778" lon="6.41719">
        <ele>288</ele>
        <time>2017-10-11T12:30:46Z</time>
      </trkpt>
      <trkpt lat="47.35782" lon="6.4174">
        <ele>290</ele>
        <time>2017-10-11T12:30:48Z</time>
      </trkpt>
      <trkpt lat="47.35786" lon="6.4176">
        <ele>297</ele>
        <time>2017-10-11T12:30:50Z</time>
      </trkpt>
      <trkpt lat="47.35791" lon="6.4178">
        <ele>297</ele>
        <time>2017-10-11T12:30:52Z</time>
      </trkpt>
      <trkpt lat="47.35796" lon="6.41799">
        <ele>297</ele>
        <time>2017-10-11T12:30:54Z</time>
      </trkpt>
      <trkpt lat="47.35803" lon="6.41818">
        <ele>296</ele>
        <time>2017-10-11T12:30:56Z</time>
      </trkpt>
      <trkpt lat="47.35813" lon="6.41837">
        <ele>302</ele>
        <time>2017-10-11T12:30:58Z</time>
      </trkpt>
      <trkpt lat="47.35825" lon="6.41858">
        <ele>304</ele>
        <time>2017-10-11T12:31:00Z</time>
      </trkpt>
      <trkpt lat="47.35836" lon="6.41879">
        <ele>287</ele>
        <time>2017-10-11T12:31:02Z</time>
      </trkpt>
      <trkpt lat="47.35846" lon="6.41898">
        <ele>290</ele>
        <time>2017-10-11T12:31:04Z</time>
      </trkpt>
      <trkpt lat="47.35852" lon="6.41909">
        <ele>291</ele>
        <time>2017-10-11T12:31:05Z</time>
      </trkpt>
      <trkpt lat="47.35865" lon="6.41924">
        <ele>298</ele>
        <time>2017-10-11T12:31:07Z</time>
      </trkpt>
      <trkpt lat="47.35874" lon="6.4193">
        <ele>297</ele>
        <time>2017-10-11T12:31:08Z</time>
      </trkpt>
      <trkpt lat="47.35888" lon="6.41943">
        <ele>295</ele>
        <time>2017-10-11T12:31:10Z</time>
      </trkpt>
      <trkpt lat="47.35904" lon="6.41952">
        <ele>294</ele>
        <time>2017-10-11T12:31:12Z</time>
      </trkpt>
      <trkpt lat="47.3592" lon="6.41957">
        <ele>278</ele>
        <time>2017-10-11T12:31:14Z</time>
      </trkpt>
      <trkpt lat="47.35938" lon="6.41958">
        <ele>277</ele>
        <time>2017-10-11T12:31:16Z</time>
      </trkpt>
      <trkpt lat="47.35947" lon="6.41958">
        <ele>276</ele>
        <time>2017-10-11T12:31:17Z</time>
      </trkpt>
      <trkpt lat="47.35964" lon="6.4196">
        <ele>275</ele>
        <time>2017-10-11T12:31:19Z</time>
      </trkpt>
      <trkpt lat="47.35981" lon="6.41963">
        <ele>273</ele>
        <time>2017-10-11T12:31:21Z</time>
      </trkpt>
      <trkpt lat="47.36" lon="6.41962">
        <ele>272</ele>
        <time>2017-10-11T12:31:23Z</time>
      </trkpt>
      <trkpt lat="47.36017" lon="6.41963">
        <ele>266</ele>
        <time>2017-10-11T12:31:25Z</time>
      </trkpt>
      <trkpt lat="47.36033" lon="6.41964">
        <ele>266</ele>
        <time>2017-10-11T12:31:27Z</time>
      </trkpt>
      <trkpt lat="47.36052" lon="6.41963">
        <ele>266</ele>
        <time>2017-10-11T12:31:29Z</time>
      </trkpt>
      <trkpt lat="47.36073" lon="6.4196">
        <ele>266</ele>
        <time>2017-10-11T12:31:31Z</time>
      </trkpt>
      <trkpt lat="47.36083" lon="6.41959">
        <ele>266</ele>
        <time>2017-10-11T12:31:32Z</time>
      </trkpt>
      <trkpt lat="47.361" lon="6.41959">
        <ele>266</ele>
        <time>2017-10-11T12:31:34Z</time>
      </trkpt>
      <trkpt lat="47.36118" lon="6.41958">
        <ele>266</ele>
        <time>2017-10-11T12:31:36Z</time>
      </trkpt>
      <trkpt lat="47.36128" lon="6.41957">
        <ele>266</ele>
        <time>2017-10-11T12:31:37Z</time>
      </trkpt>
      <trkpt lat="47.36146" lon="6.41954">
        <ele>267</ele>
        <time>2017-10-11T12:31:39Z</time>
      </trkpt>
      <trkpt lat="47.36164" lon="6.4195">
        <ele>267</ele>
        <time>2017-10-11T12:31:41Z</time>
      </trkpt>
      <trkpt lat="47.36182" lon="6.41944">
        <ele>267</ele>
        <time>2017-10-11T12:31:43Z</time>
      </trkpt>
      <trkpt lat="47.362" lon="6.41939">
        <ele>267</ele>
        <time>2017-10-11T12:31:45Z</time>
      </trkpt>
      <trkpt lat="47.36217" lon="6.41933">
        <ele>267</ele>
        <time>2017-10-11T12:31:47Z</time>
      </trkpt>
      <trkpt lat="47.36233" lon="6.41928">
        <ele>268</ele>
        <time>2017-10-11T12:31:49Z</time>
      </trkpt>
      <trkpt lat="47.36248" lon="6.41926">
        <ele>268</ele>
        <time>2017-10-11T12:31:51Z</time>
      </trkpt>
      <trkpt lat="47.36264" lon="6.41924">
        <ele>268</ele>
        <time>2017-10-11T12:31:53Z</time>
      </trkpt>
      <trkpt lat="47.36279" lon="6.41922">
        <ele>268</ele>
        <time>2017-10-11T12:31:55Z</time>
      </trkpt>
      <trkpt lat="47.36294" lon="6.41919">
        <ele>268</ele>
        <time>2017-10-11T12:31:57Z</time>
      </trkpt>
      <trkpt lat="47.36309" lon="6.41918">
        <ele>268</ele>
        <time>2017-10-11T12:31:59Z</time>
      </trkpt>
      <trkpt lat="47.36325" lon="6.41915">
        <ele>268</ele>
        <time>2017-10-11T12:32:01Z</time>
      </trkpt>
      <trkpt lat="47.36341" lon="6.4191">
        <ele>268</ele>
        <time>2017-10-11T12:32:03Z</time>
      </trkpt>
      <trkpt lat="47.36356" lon="6.41906">
        <ele>268</ele>
        <time>2017-10-11T12:32:05Z</time>
      </trkpt>
      <trkpt lat="47.36372" lon="6.41904">
        <ele>268</ele>
        <time>2017-10-11T12:32:07Z</time>
      </trkpt>
      <trkpt lat="47.36387" lon="6.41904">
        <ele>268</ele>
        <time>2017-10-11T12:32:09Z</time>
      </trkpt>
      <trkpt lat="47.36404" lon="6.41903">
        <ele>267</ele>
        <time>2017-10-11T12:32:11Z</time>
      </trkpt>
      <trkpt lat="47.36422" lon="6.41902">
        <ele>267</ele>
        <time>2017-10-11T12:32:13Z</time>
      </trkpt>
      <trkpt lat="47.36441" lon="6.41901">
        <ele>267</ele>
        <time>2017-10-11T12:32:15Z</time>
      </trkpt>
      <trkpt lat="47.36459" lon="6.419">
        <ele>267</ele>
        <time>2017-10-11T12:32:17Z</time>
      </trkpt>
      <trkpt lat="47.3647" lon="6.419">
        <ele>267</ele>
        <time>2017-10-11T12:32:19Z</time>
      </trkpt>
      <trkpt lat="47.36479" lon="6.41902">
        <ele>267</ele>
        <time>2017-10-11T12:36:45Z</time>
      </trkpt>
      <trkpt lat="47.36488" lon="6.41906">
        <ele>267</ele>
        <time>2017-10-11T12:36:50Z</time>
      </trkpt>
      <trkpt lat="47.36498" lon="6.4191">
        <ele>267</ele>
        <time>2017-10-11T12:36:55Z</time>
      </trkpt>
      <trkpt lat="47.36507" lon="6.41914">
        <ele>267</ele>
        <time>2017-10-11T12:37:00Z</time>
      </trkpt>
      <trkpt lat="47.36518" lon="6.4192">
        <ele>267</ele>
        <time>2017-10-11T12:37:04Z</time>
      </trkpt>
      <trkpt lat="47.36528" lon="6.41927">
        <ele>267</ele>
        <time>2017-10-11T12:37:07Z</time>
      </trkpt>
      <trkpt lat="47.36536" lon="6.41933">
        <ele>267</ele>
        <time>2017-10-11T12:37:09Z</time>
      </trkpt>
      <trkpt lat="47.36548" lon="6.41934">
        <ele>267</ele>
        <time>2017-10-11T12:37:12Z</time>
      </trkpt>
      <trkpt lat="47.3656" lon="6.41935">
        <ele>267</ele>
        <time>2017-10-11T12:37:15Z</time>
      </trkpt>
      <trkpt lat="47.36573" lon="6.41937">
        <ele>266</ele>
        <time>2017-10-11T12:37:18Z</time>
      </trkpt>
      <trkpt lat="47.36583" lon="6.41943">
        <ele>266</ele>
        <time>2017-10-11T12:37:21Z</time>
      </trkpt>
      <trkpt lat="47.36596" lon="6.41947">
        <ele>268</ele>
        <time>2017-10-11T12:37:24Z</time>
      </trkpt>
      <trkpt lat="47.36607" lon="6.41954">
        <ele>268</ele>
        <time>2017-10-11T12:37:27Z</time>
      </trkpt>
      <trkpt lat="47.3662" lon="6.41959">
        <ele>269</ele>
        <time>2017-10-11T12:37:30Z</time>
      </trkpt>
      <trkpt lat="47.36631" lon="6.41963">
        <ele>269</ele>
        <time>2017-10-11T12:37:32Z</time>
      </trkpt>
      <trkpt lat="47.36639" lon="6.41967">
        <ele>269</ele>
        <time>2017-10-11T12:37:34Z</time>
      </trkpt>
      <trkpt lat="47.36652" lon="6.4197">
        <ele>270</ele>
        <time>2017-10-11T12:37:36Z</time>
      </trkpt>
      <trkpt lat="47.36663" lon="6.41978">
        <ele>270</ele>
        <time>2017-10-11T12:37:38Z</time>
      </trkpt>
      <trkpt lat="47.36679" lon="6.41982">
        <ele>272</ele>
        <time>2017-10-11T12:37:40Z</time>
      </trkpt>
      <trkpt lat="47.36698" lon="6.41981">
        <ele>272</ele>
        <time>2017-10-11T12:37:42Z</time>
      </trkpt>
      <trkpt lat="47.36713" lon="6.41984">
        <ele>272</ele>
        <time>2017-10-11T12:37:44Z</time>
      </trkpt>
      <trkpt lat="47.36727" lon="6.41989">
        <ele>272</ele>
        <time>2017-10-11T12:37:46Z</time>
      </trkpt>
      <trkpt lat="47.36739" lon="6.41994">
        <ele>272</ele>
        <time>2017-10-11T12:37:48Z</time>
      </trkpt>
      <trkpt lat="47.3675" lon="6.42001">
        <ele>271</ele>
        <time>2017-10-11T12:37:50Z</time>
      </trkpt>
      <trkpt lat="47.36761" lon="6.42008">
        <ele>271</ele>
        <time>2017-10-11T12:37:52Z</time>
      </trkpt>
      <trkpt lat="47.36771" lon="6.42015">
        <ele>271</ele>
        <time>2017-10-11T12:37:54Z</time>
      </trkpt>
      <trkpt lat="47.36779" lon="6.42023">
        <ele>271</ele>
        <time>2017-10-11T12:37:56Z</time>
      </trkpt>
      <trkpt lat="47.36787" lon="6.42031">
        <ele>271</ele>
        <time>2017-10-11T12:37:58Z</time>
      </trkpt>
      <trkpt lat="47.36797" lon="6.42038">
        <ele>271</ele>
        <time>2017-10-11T12:38:00Z</time>
      </trkpt>
      <trkpt lat="47.36807" lon="6.42044">
        <ele>271</ele>
        <time>2017-10-11T12:38:02Z</time>
      </trkpt>
      <trkpt lat="47.36817" lon="6.42049">
        <ele>271</ele>
        <time>2017-10-11T12:38:04Z</time>
      </trkpt>
      <trkpt lat="47.36828" lon="6.42054">
        <ele>270</ele>
        <time>2017-10-11T12:38:06Z</time>
      </trkpt>
      <trkpt lat="47.36837" lon="6.4206">
        <ele>271</ele>
        <time>2017-10-11T12:38:08Z</time>
      </trkpt>
      <trkpt lat="47.36847" lon="6.42066">
        <ele>271</ele>
        <time>2017-10-11T12:38:10Z</time>
      </trkpt>
      <trkpt lat="47.36857" lon="6.42073">
        <ele>272</ele>
        <time>2017-10-11T12:38:12Z</time>
      </trkpt>
      <trkpt lat="47.36867" lon="6.4208">
        <ele>272</ele>
        <time>2017-10-11T12:38:14Z</time>
      </trkpt>
      <trkpt lat="47.36877" lon="6.42087">
        <ele>270</ele>
        <time>2017-10-11T12:38:16Z</time>
      </trkpt>
      <trkpt lat="47.36887" lon="6.42093">
        <ele>271</ele>
        <time>2017-10-11T12:38:18Z</time>
      </trkpt>
      <trkpt lat="47.36897" lon="6.42098">
        <ele>271</ele>
        <time>2017-10-11T12:38:20Z</time>
      </trkpt>
      <trkpt lat="47.36907" lon="6.42104">
        <ele>271</ele>
        <time>2017-10-11T12:38:22Z</time>
      </trkpt>
      <trkpt lat="47.36916" lon="6.42111">
        <ele>271</ele>
        <time>2017-10-11T12:38:24Z</time>
      </trkpt>
      <trkpt lat="47.36926" lon="6.42118">
        <ele>271</ele>
        <time>2017-10-11T12:38:26Z</time>
      </trkpt>
      <trkpt lat="47.36935" lon="6.42125">
        <ele>271</ele>
        <time>2017-10-11T12:38:28Z</time>
      </trkpt>
      <trkpt lat="47.36943" lon="6.42133">
        <ele>270</ele>
        <time>2017-10-11T12:38:30Z</time>
      </trkpt>
      <trkpt lat="47.36953" lon="6.42145">
        <ele>270</ele>
        <time>2017-10-11T12:38:33Z</time>
      </trkpt>
      <trkpt lat="47.36959" lon="6.42156">
        <ele>270</ele>
        <time>2017-10-11T12:38:35Z</time>
      </trkpt>
      <trkpt lat="47.36964" lon="6.42169">
        <ele>268</ele>
        <time>2017-10-11T12:38:37Z</time>
      </trkpt>
      <trkpt lat="47.3697" lon="6.42179">
        <ele>268</ele>
        <time>2017-10-11T12:38:39Z</time>
      </trkpt>
      <trkpt lat="47.36977" lon="6.42189">
        <ele>268</ele>
        <time>2017-10-11T12:38:41Z</time>
      </trkpt>
      <trkpt lat="47.36986" lon="6.42198">
        <ele>268</ele>
        <time>2017-10-11T12:38:43Z</time>
      </trkpt>
      <trkpt lat="47.36995" lon="6.42208">
        <ele>268</ele>
        <time>2017-10-11T12:38:45Z</time>
      </trkpt>
      <trkpt lat="47.37002" lon="6.42218">
        <ele>268</ele>
        <time>2017-10-11T12:38:47Z</time>
      </trkpt>
      <trkpt lat="47.3701" lon="6.42229">
        <ele>268</ele>
        <time>2017-10-11T12:38:49Z</time>
      </trkpt>
      <trkpt lat="47.37018" lon="6.4224">
        <ele>268</ele>
        <time>2017-10-11T12:38:51Z</time>
      </trkpt>
      <trkpt lat="47.37026" lon="6.42249">
        <ele>268</ele>
        <time>2017-10-11T12:38:53Z</time>
      </trkpt>
      <trkpt lat="47.37033" lon="6.4226">
        <ele>268</ele>
        <time>2017-10-11T12:38:55Z</time>
      </trkpt>
      <trkpt lat="47.3704" lon="6.4227">
        <ele>268</ele>
        <time>2017-10-11T12:38:57Z</time>
      </trkpt>
      <trkpt lat="47.37048" lon="6.42282">
        <ele>267</ele>
        <time>2017-10-11T12:38:59Z</time>
      </trkpt>
      <trkpt lat="47.37054" lon="6.42295">
        <ele>268</ele>
        <time>2017-10-11T12:39:01Z</time>
      </trkpt>
      <trkpt lat="47.37061" lon="6.42307">
        <ele>268</ele>
        <time>2017-10-11T12:39:03Z</time>
      </trkpt>
      <trkpt lat="47.37068" lon="6.42319">
        <ele>268</ele>
        <time>2017-10-11T12:39:05Z</time>
      </trkpt>
      <trkpt lat="47.37074" lon="6.42331">
        <ele>268</ele>
        <time>2017-10-11T12:39:07Z</time>
      </trkpt>
      <trkpt lat="47.3708" lon="6.42344">
        <ele>268</ele>
        <time>2017-10-11T12:39:09Z</time>
      </trkpt>
      <trkpt lat="47.37085" lon="6.42357">
        <ele>269</ele>
        <time>2017-10-11T12:39:11Z</time>
      </trkpt>
      <trkpt lat="47.37093" lon="6.42371">
        <ele>269</ele>
        <time>2017-10-11T12:39:13Z</time>
      </trkpt>
      <trkpt lat="47.37103" lon="6.42384">
        <ele>269</ele>
        <time>2017-10-11T12:39:15Z</time>
      </trkpt>
      <trkpt lat="47.37112" lon="6.42397">
        <ele>269</ele>
        <time>2017-10-11T12:39:17Z</time>
      </trkpt>
      <trkpt lat="47.37119" lon="6.42409">
        <ele>269</ele>
        <time>2017-10-11T12:39:19Z</time>
      </trkpt>
      <trkpt lat="47.37125" lon="6.42421">
        <ele>268</ele>
        <time>2017-10-11T12:39:21Z</time>
      </trkpt>
      <trkpt lat="47.37132" lon="6.42435">
        <ele>267</ele>
        <time>2017-10-11T12:39:23Z</time>
      </trkpt>
      <trkpt lat="47.37138" lon="6.4245">
        <ele>267</ele>
        <time>2017-10-11T12:39:25Z</time>
      </trkpt>
      <trkpt lat="47.37144" lon="6.42463">
        <ele>267</ele>
        <time>2017-10-11T12:39:27Z</time>
      </trkpt>
      <trkpt lat="47.37149" lon="6.42478">
        <ele>267</ele>
        <time>2017-10-11T12:39:29Z</time>
      </trkpt>
      <trkpt lat="47.37155" lon="6.42493">
        <ele>267</ele>
        <time>2017-10-11T12:39:31Z</time>
      </trkpt>
      <trkpt lat="47.37161" lon="6.42508">
        <ele>267</ele>
        <time>2017-10-11T12:39:33Z</time>
      </trkpt>
      <trkpt lat="47.37166" lon="6.42523">
        <ele>267</ele>
        <time>2017-10-11T12:39:35Z</time>
      </trkpt>
      <trkpt lat="47.37167" lon="6.42538">
        <ele>272</ele>
        <time>2017-10-11T12:39:37Z</time>
      </trkpt>
      <trkpt lat="47.37168" lon="6.42555">
        <ele>272</ele>
        <time>2017-10-11T12:39:39Z</time>
      </trkpt>
      <trkpt lat="47.37167" lon="6.42571">
        <ele>267</ele>
        <time>2017-10-11T12:39:41Z</time>
      </trkpt>
      <trkpt lat="47.37164" lon="6.42586">
        <ele>268</ele>
        <time>2017-10-11T12:39:43Z</time>
      </trkpt>
      <trkpt lat="47.37158" lon="6.42598">
        <ele>270</ele>
        <time>2017-10-11T12:39:45Z</time>
      </trkpt>
      <trkpt lat="47.37153" lon="6.4261">
        <ele>271</ele>
        <time>2017-10-11T12:39:47Z</time>
      </trkpt>
      <trkpt lat="47.37148" lon="6.4262">
        <ele>271</ele>
        <time>2017-10-11T12:39:50Z</time>
      </trkpt>
      <trkpt lat="47.3714" lon="6.4263">
        <ele>272</ele>
        <time>2017-10-11T12:39:54Z</time>
      </trkpt>
      <trkpt lat="47.37133" lon="6.42641">
        <ele>272</ele>
        <time>2017-10-11T12:39:57Z</time>
      </trkpt>
      <trkpt lat="47.37127" lon="6.42651">
        <ele>273</ele>
        <time>2017-10-11T12:39:59Z</time>
      </trkpt>
      <trkpt lat="47.37119" lon="6.42665">
        <ele>274</ele>
        <time>2017-10-11T12:40:01Z</time>
      </trkpt>
      <trkpt lat="47.37112" lon="6.4268">
        <ele>274</ele>
        <time>2017-10-11T12:40:03Z</time>
      </trkpt>
      <trkpt lat="47.37104" lon="6.42689">
        <ele>274</ele>
        <time>2017-10-11T12:40:05Z</time>
      </trkpt>
      <trkpt lat="47.37096" lon="6.42695">
        <ele>275</ele>
        <time>2017-10-11T12:40:07Z</time>
      </trkpt>
      <trkpt lat="47.37086" lon="6.42698">
        <ele>275</ele>
        <time>2017-10-11T12:40:09Z</time>
      </trkpt>
      <trkpt lat="47.37075" lon="6.42699">
        <ele>280</ele>
        <time>2017-10-11T12:40:11Z</time>
      </trkpt>
      <trkpt lat="47.37066" lon="6.42702">
        <ele>280</ele>
        <time>2017-10-11T12:40:13Z</time>
      </trkpt>
      <trkpt lat="47.37055" lon="6.42705">
        <ele>280</ele>
        <time>2017-10-11T12:40:15Z</time>
      </trkpt>
      <trkpt lat="47.37039" lon="6.42711">
        <ele>281</ele>
        <time>2017-10-11T12:40:17Z</time>
      </trkpt>
      <trkpt lat="47.3702" lon="6.42717">
        <ele>281</ele>
        <time>2017-10-11T12:40:19Z</time>
      </trkpt>
      <trkpt lat="47.37004" lon="6.4272">
        <ele>281</ele>
        <time>2017-10-11T12:40:21Z</time>
      </trkpt>
      <trkpt lat="47.3699" lon="6.42718">
        <ele>288</ele>
        <time>2017-10-11T12:40:23Z</time>
      </trkpt>
      <trkpt lat="47.36978" lon="6.42716">
        <ele>289</ele>
        <time>2017-10-11T12:40:25Z</time>
      </trkpt>
      <trkpt lat="47.36967" lon="6.42715">
        <ele>289</ele>
        <time>2017-10-11T12:40:27Z</time>
      </trkpt>
      <trkpt lat="47.36955" lon="6.42719">
        <ele>290</ele>
        <time>2017-10-11T12:40:29Z</time>
      </trkpt>
      <trkpt lat="47.36944" lon="6.42721">
        <ele>290</ele>
        <time>2017-10-11T12:40:31Z</time>
      </trkpt>
      <trkpt lat="47.36934" lon="6.4272">
        <ele>290</ele>
        <time>2017-10-11T12:40:33Z</time>
      </trkpt>
      <trkpt lat="47.36924" lon="6.42721">
        <ele>291</ele>
        <time>2017-10-11T12:40:35Z</time>
      </trkpt>
      <trkpt lat="47.3691" lon="6.42724">
        <ele>297</ele>
        <time>2017-10-11T12:40:37Z</time>
      </trkpt>
      <trkpt lat="47.36896" lon="6.42729">
        <ele>298</ele>
        <time>2017-10-11T12:40:39Z</time>
      </trkpt>
      <trkpt lat="47.36882" lon="6.42737">
        <ele>299</ele>
        <time>2017-10-11T12:40:41Z</time>
      </trkpt>
      <trkpt lat="47.36872" lon="6.42744">
        <ele>301</ele>
        <time>2017-10-11T12:40:43Z</time>
      </trkpt>
      <trkpt lat="47.3686" lon="6.42751">
        <ele>291</ele>
        <time>2017-10-11T12:40:45Z</time>
      </trkpt>
      <trkpt lat="47.36848" lon="6.42759">
        <ele>294</ele>
        <time>2017-10-11T12:40:47Z</time>
      </trkpt>
      <trkpt lat="47.36837" lon="6.42768">
        <ele>294</ele>
        <time>2017-10-11T12:40:49Z</time>
      </trkpt>
      <trkpt lat="47.36825" lon="6.42773">
        <ele>299</ele>
        <time>2017-10-11T12:40:51Z</time>
      </trkpt>
      <trkpt lat="47.36815" lon="6.4278">
        <ele>298</ele>
        <time>2017-10-11T12:40:53Z</time>
      </trkpt>
      <trkpt lat="47.36805" lon="6.4279">
        <ele>297</ele>
        <time>2017-10-11T12:40:55Z</time>
      </trkpt>
      <trkpt lat="47.36796" lon="6.42804">
        <ele>295</ele>
        <time>2017-10-11T12:40:57Z</time>
      </trkpt>
      <trkpt lat="47.36786" lon="6.42819">
        <ele>295</ele>
        <time>2017-10-11T12:40:59Z</time>
      </trkpt>
      <trkpt lat="47.36778" lon="6.42835">
        <ele>284</ele>
        <time>2017-10-11T12:41:01Z</time>
      </trkpt>
      <trkpt lat="47.36771" lon="6.42848">
        <ele>284</ele>
        <time>2017-10-11T12:41:03Z</time>
      </trkpt>
      <trkpt lat="47.36766" lon="6.42866">
        <ele>282</ele>
        <time>2017-10-11T12:41:05Z</time>
      </trkpt>
      <trkpt lat="47.36762" lon="6.42885">
        <ele>281</ele>
        <time>2017-10-11T12:41:07Z</time>
      </trkpt>
      <trkpt lat="47.36755" lon="6.42904">
        <ele>280</ele>
        <time>2017-10-11T12:41:09Z</time>
      </trkpt>
      <trkpt lat="47.3675" lon="6.42925">
        <ele>281</ele>
        <time>2017-10-11T12:41:11Z</time>
      </trkpt>
      <trkpt lat="47.36746" lon="6.42945">
        <ele>283</ele>
        <time>2017-10-11T12:41:13Z</time>
      </trkpt>
      <trkpt lat="47.36743" lon="6.42964">
        <ele>283</ele>
        <time>2017-10-11T12:41:15Z</time>
      </trkpt>
      <trkpt lat="47.3674" lon="6.42979">
        <ele>282</ele>
        <time>2017-10-11T12:41:17Z</time>
      </trkpt>
      <trkpt lat="47.36736" lon="6.42996">
        <ele>280</ele>
        <time>2017-10-11T12:41:20Z</time>
      </trkpt>
      <trkpt lat="47.36731" lon="6.43011">
        <ele>281</ele>
        <time>2017-10-11T12:41:23Z</time>
      </trkpt>
      <trkpt lat="47.36726" lon="6.43025">
        <ele>283</ele>
        <time>2017-10-11T12:41:25Z</time>
      </trkpt>
      <trkpt lat="47.36722" lon="6.4304">
        <ele>284</ele>
        <time>2017-10-11T12:41:27Z</time>
      </trkpt>
      <trkpt lat="47.3672" lon="6.43055">
        <ele>284</ele>
        <time>2017-10-11T12:41:29Z</time>
      </trkpt>
      <trkpt lat="47.36716" lon="6.43073">
        <ele>284</ele>
        <time>2017-10-11T12:41:31Z</time>
      </trkpt>
      <trkpt lat="47.36712" lon="6.43092">
        <ele>284</ele>
        <time>2017-10-11T12:41:33Z</time>
      </trkpt>
      <trkpt lat="47.36707" lon="6.43115">
        <ele>284</ele>
        <time>2017-10-11T12:41:35Z</time>
      </trkpt>
      <trkpt lat="47.36704" lon="6.4314">
        <ele>284</ele>
        <time>2017-10-11T12:41:37Z</time>
      </trkpt>
      <trkpt lat="47.36699" lon="6.43162">
        <ele>285</ele>
        <time>2017-10-11T12:41:39Z</time>
      </trkpt>
      <trkpt lat="47.36696" lon="6.43182">
        <ele>283</ele>
        <time>2017-10-11T12:41:41Z</time>
      </trkpt>
      <trkpt lat="47.36694" lon="6.432">
        <ele>282</ele>
        <time>2017-10-11T12:41:43Z</time>
      </trkpt>
      <trkpt lat="47.36691" lon="6.43215">
        <ele>282</ele>
        <time>2017-10-11T12:41:45Z</time>
      </trkpt>
      <trkpt lat="47.36688" lon="6.43229">
        <ele>282</ele>
        <time>2017-10-11T12:41:47Z</time>
      </trkpt>
      <trkpt lat="47.36684" lon="6.43241">
        <ele>282</ele>
        <time>2017-10-11T12:41:49Z</time>
      </trkpt>
      <trkpt lat="47.36682" lon="6.43258">
        <ele>281</ele>
        <time>2017-10-11T12:41:52Z</time>
      </trkpt>
      <trkpt lat="47.3668" lon="6.43273">
        <ele>280</ele>
        <time>2017-10-11T12:41:54Z</time>
      </trkpt>
      <trkpt lat="47.36678" lon="6.43289">
        <ele>279</ele>
        <time>2017-10-11T12:41:56Z</time>
      </trkpt>
      <trkpt lat="47.36675" lon="6.43306">
        <ele>279</ele>
        <time>2017-10-11T12:41:58Z</time>
      </trkpt>
      <trkpt lat="47.36674" lon="6.43333">
        <ele>280</ele>
        <time>2017-10-11T12:42:00Z</time>
      </trkpt>
      <trkpt lat="47.36672" lon="6.43357">
        <ele>277</ele>
        <time>2017-10-11T12:42:02Z</time>
      </trkpt>
      <trkpt lat="47.36675" lon="6.43384">
        <ele>276</ele>
        <time>2017-10-11T12:42:04Z</time>
      </trkpt>
      <trkpt lat="47.36674" lon="6.43406">
        <ele>275</ele>
        <time>2017-10-11T12:42:06Z</time>
      </trkpt>
      <trkpt lat="47.36673" lon="6.43428">
        <ele>274</ele>
        <time>2017-10-11T12:42:08Z</time>
      </trkpt>
      <trkpt lat="47.36672" lon="6.43447">
        <ele>272</ele>
        <time>2017-10-11T12:42:10Z</time>
      </trkpt>
      <trkpt lat="47.36671" lon="6.43467">
        <ele>271</ele>
        <time>2017-10-11T12:42:12Z</time>
      </trkpt>
      <trkpt lat="47.36671" lon="6.43488">
        <ele>270</ele>
        <time>2017-10-11T12:42:14Z</time>
      </trkpt>
      <trkpt lat="47.36671" lon="6.43509">
        <ele>269</ele>
        <time>2017-10-11T12:42:16Z</time>
      </trkpt>
      <trkpt lat="47.3667" lon="6.43529">
        <ele>269</ele>
        <time>2017-10-11T12:42:18Z</time>
      </trkpt>
      <trkpt lat="47.36669" lon="6.43548">
        <ele>269</ele>
        <time>2017-10-11T12:42:20Z</time>
      </trkpt>
      <trkpt lat="47.36668" lon="6.43566">
        <ele>269</ele>
        <time>2017-10-11T12:42:22Z</time>
      </trkpt>
      <trkpt lat="47.36666" lon="6.43582">
        <ele>269</ele>
        <time>2017-10-11T12:42:24Z</time>
      </trkpt>
      <trkpt lat="47.36663" lon="6.43599">
        <ele>270</ele>
        <time>2017-10-11T12:42:26Z</time>
      </trkpt>
      <trkpt lat="47.36662" lon="6.43617">
        <ele>271</ele>
        <time>2017-10-11T12:42:28Z</time>
      </trkpt>
      <trkpt lat="47.3666" lon="6.43635">
        <ele>271</ele>
        <time>2017-10-11T12:42:30Z</time>
      </trkpt>
      <trkpt lat="47.36659" lon="6.43652">
        <ele>270</ele>
        <time>2017-10-11T12:42:32Z</time>
      </trkpt>
      <trkpt lat="47.36657" lon="6.43669">
        <ele>270</ele>
        <time>2017-10-11T12:42:34Z</time>
      </trkpt>
      <trkpt lat="47.36655" lon="6.43686">
        <ele>272</ele>
        <time>2017-10-11T12:42:36Z</time>
      </trkpt>
      <trkpt lat="47.36653" lon="6.43703">
        <ele>273</ele>
        <time>2017-10-11T12:42:38Z</time>
      </trkpt>
      <trkpt lat="47.36652" lon="6.43721">
        <ele>273</ele>
        <time>2017-10-11T12:42:40Z</time>
      </trkpt>
      <trkpt lat="47.36652" lon="6.43739">
        <ele>273</ele>
        <time>2017-10-11T12:42:42Z</time>
      </trkpt>
      <trkpt lat="47.36654" lon="6.43756">
        <ele>273</ele>
        <time>2017-10-11T12:42:44Z</time>
      </trkpt>
      <trkpt lat="47.36654" lon="6.43773">
        <ele>274</ele>
        <time>2017-10-11T12:42:46Z</time>
      </trkpt>
      <trkpt lat="47.36653" lon="6.43789">
        <ele>275</ele>
        <time>2017-10-11T12:42:48Z</time>
      </trkpt>
      <trkpt lat="47.36652" lon="6.43806">
        <ele>275</ele>
        <time>2017-10-11T12:42:50Z</time>
      </trkpt>
      <trkpt lat="47.36649" lon="6.43821">
        <ele>275</ele>
        <time>2017-10-11T12:42:52Z</time>
      </trkpt>
      <trkpt lat="47.36647" lon="6.43836">
        <ele>275</ele>
        <time>2017-10-11T12:42:54Z</time>
      </trkpt>
      <trkpt lat="47.36643" lon="6.43852">
        <ele>276</ele>
        <time>2017-10-11T12:42:56Z</time>
      </trkpt>
      <trkpt lat="47.3664" lon="6.43868">
        <ele>276</ele>
        <time>2017-10-11T12:42:58Z</time>
      </trkpt>
      <trkpt lat="47.36636" lon="6.43884">
        <ele>276</ele>
        <time>2017-10-11T12:43:00Z</time>
      </trkpt>
      <trkpt lat="47.36631" lon="6.43901">
        <ele>276</ele>
        <time>2017-10-11T12:43:02Z</time>
      </trkpt>
      <trkpt lat="47.36627" lon="6.43917">
        <ele>276</ele>
        <time>2017-10-11T12:43:04Z</time>
      </trkpt>
      <trkpt lat="47.36622" lon="6.43933">
        <ele>276</ele>
        <time>2017-10-11T12:43:06Z</time>
      </trkpt>
      <trkpt lat="47.36616" lon="6.43949">
        <ele>277</ele>
        <time>2017-10-11T12:43:08Z</time>
      </trkpt>
      <trkpt lat="47.3661" lon="6.43964">
        <ele>277</ele>
        <time>2017-10-11T12:43:10Z</time>
      </trkpt>
      <trkpt lat="47.36604" lon="6.43977">
        <ele>277</ele>
        <time>2017-10-11T12:43:12Z</time>
      </trkpt>
      <trkpt lat="47.36598" lon="6.43988">
        <ele>278</ele>
        <time>2017-10-11T12:43:14Z</time>
      </trkpt>
      <trkpt lat="47.36589" lon="6.44">
        <ele>279</ele>
        <time>2017-10-11T12:43:17Z</time>
      </trkpt>
      <trkpt lat="47.3658" lon="6.44011">
        <ele>280</ele>
        <time>2017-10-11T12:43:20Z</time>
      </trkpt>
      <trkpt lat="47.36572" lon="6.4402">
        <ele>281</ele>
        <time>2017-10-11T12:43:22Z</time>
      </trkpt>
      <trkpt lat="47.36565" lon="6.4403">
        <ele>281</ele>
        <time>2017-10-11T12:43:24Z</time>
      </trkpt>
      <trkpt lat="47.36557" lon="6.44042">
        <ele>281</ele>
        <time>2017-10-11T12:43:26Z</time>
      </trkpt>
      <trkpt lat="47.36551" lon="6.44054">
        <ele>281</ele>
        <time>2017-10-11T12:43:28Z</time>
      </trkpt>
      <trkpt lat="47.36544" lon="6.44066">
        <ele>281</ele>
        <time>2017-10-11T12:43:30Z</time>
      </trkpt>
      <trkpt lat="47.36538" lon="6.44076">
        <ele>282</ele>
        <time>2017-10-11T12:43:32Z</time>
      </trkpt>
      <trkpt lat="47.36532" lon="6.44087">
        <ele>282</ele>
        <time>2017-10-11T12:43:34Z</time>
      </trkpt>
      <trkpt lat="47.36525" lon="6.441">
        <ele>282</ele>
        <time>2017-10-11T12:43:36Z</time>
      </trkpt>
      <trkpt lat="47.36517" lon="6.44114">
        <ele>282</ele>
        <time>2017-10-11T12:43:38Z</time>
      </trkpt>
      <trkpt lat="47.36509" lon="6.44128">
        <ele>282</ele>
        <time>2017-10-11T12:43:40Z</time>
      </trkpt>
      <trkpt lat="47.36505" lon="6.44145">
        <ele>282</ele>
        <time>2017-10-11T12:43:42Z</time>
      </trkpt>
      <trkpt lat="47.36497" lon="6.44161">
        <ele>284</ele>
        <time>2017-10-11T12:43:44Z</time>
      </trkpt>
      <trkpt lat="47.36488" lon="6.4418">
        <ele>287</ele>
        <time>2017-10-11T12:43:46Z</time>
      </trkpt>
      <trkpt lat="47.36481" lon="6.44196">
        <ele>288</ele>
        <time>2017-10-11T12:43:48Z</time>
      </trkpt>
      <trkpt lat="47.36478" lon="6.44213">
        <ele>288</ele>
        <time>2017-10-11T12:43:50Z</time>
      </trkpt>
      <trkpt lat="47.36473" lon="6.44229">
        <ele>288</ele>
        <time>2017-10-11T12:43:52Z</time>
      </trkpt>
      <trkpt lat="47.36465" lon="6.44244">
        <ele>289</ele>
        <time>2017-10-11T12:43:54Z</time>
      </trkpt>
      <trkpt lat="47.36456" lon="6.44256">
        <ele>290</ele>
        <time>2017-10-11T12:43:56Z</time>
      </trkpt>
      <trkpt lat="47.3645" lon="6.44271">
        <ele>290</ele>
        <time>2017-10-11T12:43:58Z</time>
      </trkpt>
      <trkpt lat="47.36442" lon="6.44282">
        <ele>291</ele>
        <time>2017-10-11T12:44:00Z</time>
      </trkpt>
      <trkpt lat="47.36435" lon="6.44291">
        <ele>291</ele>
        <time>2017-10-11T12:44:02Z</time>
      </trkpt>
      <trkpt lat="47.36429" lon="6.44301">
        <ele>291</ele>
        <time>2017-10-11T12:44:04Z</time>
      </trkpt>
      <trkpt lat="47.36422" lon="6.44318">
        <ele>293</ele>
        <time>2017-10-11T12:44:07Z</time>
      </trkpt>
      <trkpt lat="47.36417" lon="6.4433">
        <ele>295</ele>
        <time>2017-10-11T12:44:09Z</time>
      </trkpt>
      <trkpt lat="47.3641" lon="6.44343">
        <ele>296</ele>
        <time>2017-10-11T12:44:11Z</time>
      </trkpt>
      <trkpt lat="47.36404" lon="6.44361">
        <ele>296</ele>
        <time>2017-10-11T12:44:13Z</time>
      </trkpt>
      <trkpt lat="47.36399" lon="6.44377">
        <ele>295</ele>
        <time>2017-10-11T12:44:15Z</time>
      </trkpt>
      <trkpt lat="47.36393" lon="6.44392">
        <ele>294</ele>
        <time>2017-10-11T12:44:17Z</time>
      </trkpt>
      <trkpt lat="47.36385" lon="6.44406">
        <ele>295</ele>
        <time>2017-10-11T12:44:19Z</time>
      </trkpt>
      <trkpt lat="47.36377" lon="6.44417">
        <ele>295</ele>
        <time>2017-10-11T12:44:21Z</time>
      </trkpt>
      <trkpt lat="47.3637" lon="6.44428">
        <ele>291</ele>
        <time>2017-10-11T12:44:23Z</time>
      </trkpt>
      <trkpt lat="47.36364" lon="6.44441">
        <ele>291</ele>
        <time>2017-10-11T12:44:25Z</time>
      </trkpt>
      <trkpt lat="47.36356" lon="6.44453">
        <ele>291</ele>
        <time>2017-10-11T12:44:27Z</time>
      </trkpt>
      <trkpt lat="47.36348" lon="6.44465">
        <ele>291</ele>
        <time>2017-10-11T12:44:29Z</time>
      </trkpt>
      <trkpt lat="47.36341" lon="6.4448">
        <ele>292</ele>
        <time>2017-10-11T12:44:31Z</time>
      </trkpt>
      <trkpt lat="47.36334" lon="6.44495">
        <ele>295</ele>
        <time>2017-10-11T12:44:33Z</time>
      </trkpt>
      <trkpt lat="47.36326" lon="6.44511">
        <ele>296</ele>
        <time>2017-10-11T12:44:35Z</time>
      </trkpt>
      <trkpt lat="47.36319" lon="6.44527">
        <ele>296</ele>
        <time>2017-10-11T12:44:37Z</time>
      </trkpt>
      <trkpt lat="47.36312" lon="6.44541">
        <ele>295</ele>
        <time>2017-10-11T12:44:39Z</time>
      </trkpt>
      <trkpt lat="47.36308" lon="6.44557">
        <ele>294</ele>
        <time>2017-10-11T12:44:41Z</time>
      </trkpt>
      <trkpt lat="47.36303" lon="6.44575">
        <ele>294</ele>
        <time>2017-10-11T12:44:43Z</time>
      </trkpt>
      <trkpt lat="47.36298" lon="6.44593">
        <ele>292</ele>
        <time>2017-10-11T12:44:45Z</time>
      </trkpt>
      <trkpt lat="47.36292" lon="6.44608">
        <ele>293</ele>
        <time>2017-10-11T12:44:47Z</time>
      </trkpt>
      <trkpt lat="47.36286" lon="6.44626">
        <ele>294</ele>
        <time>2017-10-11T12:44:49Z</time>
      </trkpt>
      <trkpt lat="47.3628" lon="6.44645">
        <ele>295</ele>
        <time>2017-10-11T12:44:51Z</time>
      </trkpt>
      <trkpt lat="47.36276" lon="6.44661">
        <ele>296</ele>
        <time>2017-10-11T12:44:53Z</time>
      </trkpt>
      <trkpt lat="47.36272" lon="6.44677">
        <ele>294</ele>
        <time>2017-10-11T12:44:55Z</time>
      </trkpt>
      <trkpt lat="47.36264" lon="6.44692">
        <ele>294</ele>
        <time>2017-10-11T12:44:57Z</time>
      </trkpt>
      <trkpt lat="47.36257" lon="6.44708">
        <ele>293</ele>
        <time>2017-10-11T12:44:59Z</time>
      </trkpt>
      <trkpt lat="47.36253" lon="6.44725">
        <ele>293</ele>
        <time>2017-10-11T12:45:01Z</time>
      </trkpt>
      <trkpt lat="47.36248" lon="6.44741">
        <ele>300</ele>
        <time>2017-10-11T12:45:03Z</time>
      </trkpt>
      <trkpt lat="47.36245" lon="6.44753">
        <ele>299</ele>
        <time>2017-10-11T12:45:05Z</time>
      </trkpt>
      <trkpt lat="47.36239" lon="6.44765">
        <ele>300</ele>
        <time>2017-10-11T12:45:07Z</time>
      </trkpt>
      <trkpt lat="47.36235" lon="6.44778">
        <ele>300</ele>
        <time>2017-10-11T12:45:09Z</time>
      </trkpt>
      <trkpt lat="47.36233" lon="6.44792">
        <ele>300</ele>
        <time>2017-10-11T12:45:11Z</time>
      </trkpt>
      <trkpt lat="47.36228" lon="6.44807">
        <ele>299</ele>
        <time>2017-10-11T12:45:14Z</time>
      </trkpt>
      <trkpt lat="47.36221" lon="6.4482">
        <ele>299</ele>
        <time>2017-10-11T12:45:17Z</time>
      </trkpt>
      <trkpt lat="47.36218" lon="6.44832">
        <ele>299</ele>
        <time>2017-10-11T12:45:19Z</time>
      </trkpt>
      <trkpt lat="47.36217" lon="6.44848">
        <ele>299</ele>
        <time>2017-10-11T12:45:21Z</time>
      </trkpt>
      <trkpt lat="47.36216" lon="6.44861">
        <ele>299</ele>
        <time>2017-10-11T12:45:23Z</time>
      </trkpt>
      <trkpt lat="47.36215" lon="6.44876">
        <ele>300</ele>
        <time>2017-10-11T12:45:25Z</time>
      </trkpt>
      <trkpt lat="47.36217" lon="6.44892">
        <ele>299</ele>
        <time>2017-10-11T12:45:27Z</time>
      </trkpt>
      <trkpt lat="47.36218" lon="6.44907">
        <ele>299</ele>
        <time>2017-10-11T12:45:29Z</time>
      </trkpt>
      <trkpt lat="47.36222" lon="6.4494">
        <ele>299</ele>
        <time>2017-10-11T12:45:33Z</time>
      </trkpt>
      <trkpt lat="47.36225" lon="6.44963">
        <ele>299</ele>
        <time>2017-10-11T12:45:35Z</time>
      </trkpt>
      <trkpt lat="47.36233" lon="6.44998">
        <ele>296</ele>
        <time>2017-10-11T12:45:38Z</time>
      </trkpt>
      <trkpt lat="47.36237" lon="6.45024">
        <ele>297</ele>
        <time>2017-10-11T12:45:40Z</time>
      </trkpt>
      <trkpt lat="47.36241" lon="6.45037">
        <ele>298</ele>
        <time>2017-10-11T12:45:41Z</time>
      </trkpt>
      <trkpt lat="47.36247" lon="6.4506">
        <ele>297</ele>
        <time>2017-10-11T12:45:43Z</time>
      </trkpt>
      <trkpt lat="47.36253" lon="6.45082">
        <ele>290</ele>
        <time>2017-10-11T12:45:45Z</time>
      </trkpt>
      <trkpt lat="47.3626" lon="6.45102">
        <ele>285</ele>
        <time>2017-10-11T12:45:47Z</time>
      </trkpt>
      <trkpt lat="47.36267" lon="6.45121">
        <ele>284</ele>
        <time>2017-10-11T12:45:49Z</time>
      </trkpt>
      <trkpt lat="47.36276" lon="6.45139">
        <ele>283</ele>
        <time>2017-10-11T12:45:51Z</time>
      </trkpt>
      <trkpt lat="47.36281" lon="6.45153">
        <ele>283</ele>
        <time>2017-10-11T12:45:53Z</time>
      </trkpt>
      <trkpt lat="47.36287" lon="6.45168">
        <ele>282</ele>
        <time>2017-10-11T12:45:56Z</time>
      </trkpt>
      <trkpt lat="47.36291" lon="6.4518">
        <ele>281</ele>
        <time>2017-10-11T12:45:59Z</time>
      </trkpt>
      <trkpt lat="47.363" lon="6.45189">
        <ele>280</ele>
        <time>2017-10-11T12:46:03Z</time>
      </trkpt>
      <trkpt lat="47.36317" lon="6.45179">
        <ele>276</ele>
        <time>2017-10-11T12:55:58Z</time>
      </trkpt>
      <trkpt lat="47.36308" lon="6.4517">
        <ele>278</ele>
        <time>2017-10-11T12:56:08Z</time>
      </trkpt>
      <trkpt lat="47.36301" lon="6.45159">
        <ele>279</ele>
        <time>2017-10-11T12:56:11Z</time>
      </trkpt>
      <trkpt lat="47.36292" lon="6.4515">
        <ele>281</ele>
        <time>2017-10-11T12:56:14Z</time>
      </trkpt>
      <trkpt lat="47.36285" lon="6.45143">
        <ele>282</ele>
        <time>2017-10-11T12:56:16Z</time>
      </trkpt>
      <trkpt lat="47.36278" lon="6.45131">
        <ele>283</ele>
        <time>2017-10-11T12:56:18Z</time>
      </trkpt>
      <trkpt lat="47.36271" lon="6.45117">
        <ele>283</ele>
        <time>2017-10-11T12:56:20Z</time>
      </trkpt>
      <trkpt lat="47.36264" lon="6.45103">
        <ele>285</ele>
        <time>2017-10-11T12:56:22Z</time>
      </trkpt>
      <trkpt lat="47.36258" lon="6.45087">
        <ele>288</ele>
        <time>2017-10-11T12:56:24Z</time>
      </trkpt>
      <trkpt lat="47.36253" lon="6.4507">
        <ele>286</ele>
        <time>2017-10-11T12:56:26Z</time>
      </trkpt>
      <trkpt lat="47.36248" lon="6.45055">
        <ele>297</ele>
        <time>2017-10-11T12:56:28Z</time>
      </trkpt>
      <trkpt lat="47.36243" lon="6.45041">
        <ele>298</ele>
        <time>2017-10-11T12:56:30Z</time>
      </trkpt>
      <trkpt lat="47.36239" lon="6.45026">
        <ele>297</ele>
        <time>2017-10-11T12:56:32Z</time>
      </trkpt>
      <trkpt lat="47.36237" lon="6.4501">
        <ele>295</ele>
        <time>2017-10-11T12:56:34Z</time>
      </trkpt>
      <trkpt lat="47.36236" lon="6.44993">
        <ele>295</ele>
        <time>2017-10-11T12:56:36Z</time>
      </trkpt>
      <trkpt lat="47.36236" lon="6.44976">
        <ele>297</ele>
        <time>2017-10-11T12:56:38Z</time>
      </trkpt>
      <trkpt lat="47.36237" lon="6.44958">
        <ele>298</ele>
        <time>2017-10-11T12:56:40Z</time>
      </trkpt>
      <trkpt lat="47.36239" lon="6.44941">
        <ele>297</ele>
        <time>2017-10-11T12:56:42Z</time>
      </trkpt>
      <trkpt lat="47.36239" lon="6.44923">
        <ele>294</ele>
        <time>2017-10-11T12:56:44Z</time>
      </trkpt>
      <trkpt lat="47.36241" lon="6.44906">
        <ele>294</ele>
        <time>2017-10-11T12:56:46Z</time>
      </trkpt>
      <trkpt lat="47.36242" lon="6.4489">
        <ele>296</ele>
        <time>2017-10-11T12:56:48Z</time>
      </trkpt>
      <trkpt lat="47.36243" lon="6.44873">
        <ele>297</ele>
        <time>2017-10-11T12:56:50Z</time>
      </trkpt>
      <trkpt lat="47.36245" lon="6.44856">
        <ele>296</ele>
        <time>2017-10-11T12:56:52Z</time>
      </trkpt>
      <trkpt lat="47.36246" lon="6.44839">
        <ele>293</ele>
        <time>2017-10-11T12:56:54Z</time>
      </trkpt>
      <trkpt lat="47.36247" lon="6.44822">
        <ele>295</ele>
        <time>2017-10-11T12:56:56Z</time>
      </trkpt>
      <trkpt lat="47.3625" lon="6.44805">
        <ele>287</ele>
        <time>2017-10-11T12:56:58Z</time>
      </trkpt>
      <trkpt lat="47.36254" lon="6.44789">
        <ele>287</ele>
        <time>2017-10-11T12:57:00Z</time>
      </trkpt>
      <trkpt lat="47.36259" lon="6.44773">
        <ele>289</ele>
        <time>2017-10-11T12:57:02Z</time>
      </trkpt>
      <trkpt lat="47.36264" lon="6.44757">
        <ele>291</ele>
        <time>2017-10-11T12:57:04Z</time>
      </trkpt>
      <trkpt lat="47.36269" lon="6.44742">
        <ele>292</ele>
        <time>2017-10-11T12:57:06Z</time>
      </trkpt>
      <trkpt lat="47.36274" lon="6.44725">
        <ele>290</ele>
        <time>2017-10-11T12:57:08Z</time>
      </trkpt>
      <trkpt lat="47.36279" lon="6.44709">
        <ele>290</ele>
        <time>2017-10-11T12:57:10Z</time>
      </trkpt>
      <trkpt lat="47.36284" lon="6.44693">
        <ele>290</ele>
        <time>2017-10-11T12:57:12Z</time>
      </trkpt>
      <trkpt lat="47.36289" lon="6.44678">
        <ele>290</ele>
        <time>2017-10-11T12:57:14Z</time>
      </trkpt>
      <trkpt lat="47.36295" lon="6.44662">
        <ele>292</ele>
        <time>2017-10-11T12:57:16Z</time>
      </trkpt>
      <trkpt lat="47.36301" lon="6.44647">
        <ele>291</ele>
        <time>2017-10-11T12:57:18Z</time>
      </trkpt>
      <trkpt lat="47.36306" lon="6.44631">
        <ele>291</ele>
        <time>2017-10-11T12:57:20Z</time>
      </trkpt>
      <trkpt lat="47.36312" lon="6.44614">
        <ele>290</ele>
        <time>2017-10-11T12:57:22Z</time>
      </trkpt>
      <trkpt lat="47.36317" lon="6.44597">
        <ele>289</ele>
        <time>2017-10-11T12:57:24Z</time>
      </trkpt>
      <trkpt lat="47.36324" lon="6.44582">
        <ele>288</ele>
        <time>2017-10-11T12:57:26Z</time>
      </trkpt>
      <trkpt lat="47.36329" lon="6.44567">
        <ele>290</ele>
        <time>2017-10-11T12:57:28Z</time>
      </trkpt>
      <trkpt lat="47.36335" lon="6.44551">
        <ele>284</ele>
        <time>2017-10-11T12:57:30Z</time>
      </trkpt>
      <trkpt lat="47.36341" lon="6.44536">
        <ele>285</ele>
        <time>2017-10-11T12:57:32Z</time>
      </trkpt>
      <trkpt lat="47.36347" lon="6.44523">
        <ele>286</ele>
        <time>2017-10-11T12:57:34Z</time>
      </trkpt>
      <trkpt lat="47.36354" lon="6.44508">
        <ele>287</ele>
        <time>2017-10-11T12:57:36Z</time>
      </trkpt>
      <trkpt lat="47.36362" lon="6.44495">
        <ele>290</ele>
        <time>2017-10-11T12:57:38Z</time>
      </trkpt>
      <trkpt lat="47.3637" lon="6.44482">
        <ele>288</ele>
        <time>2017-10-11T12:57:40Z</time>
      </trkpt>
      <trkpt lat="47.36377" lon="6.44468">
        <ele>288</ele>
        <time>2017-10-11T12:57:42Z</time>
      </trkpt>
      <trkpt lat="47.36383" lon="6.44453">
        <ele>288</ele>
        <time>2017-10-11T12:57:44Z</time>
      </trkpt>
      <trkpt lat="47.36388" lon="6.44437">
        <ele>289</ele>
        <time>2017-10-11T12:57:46Z</time>
      </trkpt>
      <trkpt lat="47.36395" lon="6.44422">
        <ele>288</ele>
        <time>2017-10-11T12:57:48Z</time>
      </trkpt>
      <trkpt lat="47.36402" lon="6.44407">
        <ele>292</ele>
        <time>2017-10-11T12:57:50Z</time>
      </trkpt>
      <trkpt lat="47.3641" lon="6.44392">
        <ele>293</ele>
        <time>2017-10-11T12:57:52Z</time>
      </trkpt>
      <trkpt lat="47.36419" lon="6.4438">
        <ele>286</ele>
        <time>2017-10-11T12:57:54Z</time>
      </trkpt>
      <trkpt lat="47.36427" lon="6.44367">
        <ele>286</ele>
        <time>2017-10-11T12:57:56Z</time>
      </trkpt>
      <trkpt lat="47.36435" lon="6.44353">
        <ele>287</ele>
        <time>2017-10-11T12:57:58Z</time>
      </trkpt>
      <trkpt lat="47.36442" lon="6.44338">
        <ele>287</ele>
        <time>2017-10-11T12:58:00Z</time>
      </trkpt>
      <trkpt lat="47.3645" lon="6.44324">
        <ele>289</ele>
        <time>2017-10-11T12:58:02Z</time>
      </trkpt>
      <trkpt lat="47.36457" lon="6.4431">
        <ele>288</ele>
        <time>2017-10-11T12:58:04Z</time>
      </trkpt>
      <trkpt lat="47.36465" lon="6.44296">
        <ele>288</ele>
        <time>2017-10-11T12:58:06Z</time>
      </trkpt>
      <trkpt lat="47.36473" lon="6.44283">
        <ele>287</ele>
        <time>2017-10-11T12:58:08Z</time>
      </trkpt>
      <trkpt lat="47.36479" lon="6.4427">
        <ele>286</ele>
        <time>2017-10-11T12:58:10Z</time>
      </trkpt>
      <trkpt lat="47.36485" lon="6.44258">
        <ele>285</ele>
        <time>2017-10-11T12:58:12Z</time>
      </trkpt>
      <trkpt lat="47.36491" lon="6.44246">
        <ele>284</ele>
        <time>2017-10-11T12:58:14Z</time>
      </trkpt>
      <trkpt lat="47.36497" lon="6.44233">
        <ele>285</ele>
        <time>2017-10-11T12:58:16Z</time>
      </trkpt>
      <trkpt lat="47.36501" lon="6.44221">
        <ele>279</ele>
        <time>2017-10-11T12:58:18Z</time>
      </trkpt>
      <trkpt lat="47.36507" lon="6.44209">
        <ele>279</ele>
        <time>2017-10-11T12:58:20Z</time>
      </trkpt>
      <trkpt lat="47.36514" lon="6.44196">
        <ele>279</ele>
        <time>2017-10-11T12:58:22Z</time>
      </trkpt>
      <trkpt lat="47.36519" lon="6.44184">
        <ele>280</ele>
        <time>2017-10-11T12:58:24Z</time>
      </trkpt>
      <trkpt lat="47.36525" lon="6.44167">
        <ele>280</ele>
        <time>2017-10-11T12:58:27Z</time>
      </trkpt>
      <trkpt lat="47.36531" lon="6.44154">
        <ele>281</ele>
        <time>2017-10-11T12:58:29Z</time>
      </trkpt>
      <trkpt lat="47.36536" lon="6.44139">
        <ele>281</ele>
        <time>2017-10-11T12:58:31Z</time>
      </trkpt>
      <trkpt lat="47.36543" lon="6.44125">
        <ele>281</ele>
        <time>2017-10-11T12:58:33Z</time>
      </trkpt>
      <trkpt lat="47.3655" lon="6.44112">
        <ele>281</ele>
        <time>2017-10-11T12:58:35Z</time>
      </trkpt>
      <trkpt lat="47.36556" lon="6.44099">
        <ele>281</ele>
        <time>2017-10-11T12:58:38Z</time>
      </trkpt>
      <trkpt lat="47.36564" lon="6.44086">
        <ele>281</ele>
        <time>2017-10-11T12:58:39Z</time>
      </trkpt>
      <trkpt lat="47.3657" lon="6.44072">
        <ele>281</ele>
        <time>2017-10-11T12:58:41Z</time>
      </trkpt>
      <trkpt lat="47.36577" lon="6.44057">
        <ele>281</ele>
        <time>2017-10-11T12:58:43Z</time>
      </trkpt>
      <trkpt lat="47.36582" lon="6.44044">
        <ele>281</ele>
        <time>2017-10-11T12:58:46Z</time>
      </trkpt>
      <trkpt lat="47.36589" lon="6.44025">
        <ele>279</ele>
        <time>2017-10-11T12:58:49Z</time>
      </trkpt>
      <trkpt lat="47.36597" lon="6.4401">
        <ele>279</ele>
        <time>2017-10-11T12:58:52Z</time>
      </trkpt>
      <trkpt lat="47.36602" lon="6.43999">
        <ele>278</ele>
        <time>2017-10-11T12:58:53Z</time>
      </trkpt>
      <trkpt lat="47.36609" lon="6.43988">
        <ele>277</ele>
        <time>2017-10-11T12:58:55Z</time>
      </trkpt>
      <trkpt lat="47.36615" lon="6.43977">
        <ele>277</ele>
        <time>2017-10-11T12:58:57Z</time>
      </trkpt>
      <trkpt lat="47.36621" lon="6.43966">
        <ele>277</ele>
        <time>2017-10-11T12:58:59Z</time>
      </trkpt>
      <trkpt lat="47.36627" lon="6.43951">
        <ele>276</ele>
        <time>2017-10-11T12:59:02Z</time>
      </trkpt>
      <trkpt lat="47.36633" lon="6.43938">
        <ele>276</ele>
        <time>2017-10-11T12:59:05Z</time>
      </trkpt>
      <trkpt lat="47.36638" lon="6.43922">
        <ele>276</ele>
        <time>2017-10-11T12:59:08Z</time>
      </trkpt>
      <trkpt lat="47.36645" lon="6.43904">
        <ele>275</ele>
        <time>2017-10-11T12:59:11Z</time>
      </trkpt>
      <trkpt lat="47.36649" lon="6.43891">
        <ele>275</ele>
        <time>2017-10-11T12:59:13Z</time>
      </trkpt>
      <trkpt lat="47.36654" lon="6.43878">
        <ele>276</ele>
        <time>2017-10-11T12:59:15Z</time>
      </trkpt>
      <trkpt lat="47.36656" lon="6.43862">
        <ele>275</ele>
        <time>2017-10-11T12:59:17Z</time>
      </trkpt>
      <trkpt lat="47.3666" lon="6.43844">
        <ele>275</ele>
        <time>2017-10-11T12:59:20Z</time>
      </trkpt>
      <trkpt lat="47.36664" lon="6.43826">
        <ele>275</ele>
        <time>2017-10-11T12:59:23Z</time>
      </trkpt>
      <trkpt lat="47.36665" lon="6.43809">
        <ele>275</ele>
        <time>2017-10-11T12:59:26Z</time>
      </trkpt>
      <trkpt lat="47.36666" lon="6.43796">
        <ele>275</ele>
        <time>2017-10-11T12:59:28Z</time>
      </trkpt>
      <trkpt lat="47.36665" lon="6.4378">
        <ele>274</ele>
        <time>2017-10-11T12:59:30Z</time>
      </trkpt>
      <trkpt lat="47.36664" lon="6.43764">
        <ele>273</ele>
        <time>2017-10-11T12:59:32Z</time>
      </trkpt>
      <trkpt lat="47.36663" lon="6.43749">
        <ele>271</ele>
        <time>2017-10-11T12:59:34Z</time>
      </trkpt>
      <trkpt lat="47.36663" lon="6.43735">
        <ele>272</ele>
        <time>2017-10-11T12:59:36Z</time>
      </trkpt>
      <trkpt lat="47.36663" lon="6.43722">
        <ele>272</ele>
        <time>2017-10-11T12:59:38Z</time>
      </trkpt>
      <trkpt lat="47.36664" lon="6.43708">
        <ele>272</ele>
        <time>2017-10-11T12:59:40Z</time>
      </trkpt>
      <trkpt lat="47.36665" lon="6.43695">
        <ele>272</ele>
        <time>2017-10-11T12:59:42Z</time>
      </trkpt>
      <trkpt lat="47.36667" lon="6.43681">
        <ele>270</ele>
        <time>2017-10-11T12:59:44Z</time>
      </trkpt>
      <trkpt lat="47.36668" lon="6.43667">
        <ele>268</ele>
        <time>2017-10-11T12:59:46Z</time>
      </trkpt>
      <trkpt lat="47.3667" lon="6.43654">
        <ele>269</ele>
        <time>2017-10-11T12:59:48Z</time>
      </trkpt>
      <trkpt lat="47.36671" lon="6.4364">
        <ele>269</ele>
        <time>2017-10-11T12:59:50Z</time>
      </trkpt>
      <trkpt lat="47.36673" lon="6.43625">
        <ele>269</ele>
        <time>2017-10-11T12:59:52Z</time>
      </trkpt>
      <trkpt lat="47.36676" lon="6.43607">
        <ele>269</ele>
        <time>2017-10-11T12:59:54Z</time>
      </trkpt>
      <trkpt lat="47.36679" lon="6.43585">
        <ele>269</ele>
        <time>2017-10-11T12:59:56Z</time>
      </trkpt>
      <trkpt lat="47.3668" lon="6.43564">
        <ele>269</ele>
        <time>2017-10-11T12:59:58Z</time>
      </trkpt>
      <trkpt lat="47.36681" lon="6.43545">
        <ele>269</ele>
        <time>2017-10-11T13:00:00Z</time>
      </trkpt>
      <trkpt lat="47.36683" lon="6.43527">
        <ele>269</ele>
        <time>2017-10-11T13:00:02Z</time>
      </trkpt>
      <trkpt lat="47.36683" lon="6.43509">
        <ele>269</ele>
        <time>2017-10-11T13:00:04Z</time>
      </trkpt>
      <trkpt lat="47.36682" lon="6.43493">
        <ele>270</ele>
        <time>2017-10-11T13:00:06Z</time>
      </trkpt>
      <trkpt lat="47.36681" lon="6.43478">
        <ele>271</ele>
        <time>2017-10-11T13:00:08Z</time>
      </trkpt>
      <trkpt lat="47.3668" lon="6.43464">
        <ele>272</ele>
        <time>2017-10-11T13:00:10Z</time>
      </trkpt>
      <trkpt lat="47.36681" lon="6.4345">
        <ele>272</ele>
        <time>2017-10-11T13:00:12Z</time>
      </trkpt>
      <trkpt lat="47.36682" lon="6.43431">
        <ele>273</ele>
        <time>2017-10-11T13:00:15Z</time>
      </trkpt>
      <trkpt lat="47.36684" lon="6.43411">
        <ele>275</ele>
        <time>2017-10-11T13:00:18Z</time>
      </trkpt>
      <trkpt lat="47.36684" lon="6.43397">
        <ele>275</ele>
        <time>2017-10-11T13:00:20Z</time>
      </trkpt>
      <trkpt lat="47.36686" lon="6.43382">
        <ele>276</ele>
        <time>2017-10-11T13:00:22Z</time>
      </trkpt>
      <trkpt lat="47.36688" lon="6.43367">
        <ele>276</ele>
        <time>2017-10-11T13:00:24Z</time>
      </trkpt>
      <trkpt lat="47.36689" lon="6.43351">
        <ele>277</ele>
        <time>2017-10-11T13:00:26Z</time>
      </trkpt>
      <trkpt lat="47.3669" lon="6.43336">
        <ele>277</ele>
        <time>2017-10-11T13:00:28Z</time>
      </trkpt>
      <trkpt lat="47.36691" lon="6.43321">
        <ele>278</ele>
        <time>2017-10-11T13:00:30Z</time>
      </trkpt>
      <trkpt lat="47.36693" lon="6.43305">
        <ele>278</ele>
        <time>2017-10-11T13:00:32Z</time>
      </trkpt>
      <trkpt lat="47.36696" lon="6.4329">
        <ele>278</ele>
        <time>2017-10-11T13:00:34Z</time>
      </trkpt>
      <trkpt lat="47.36699" lon="6.43274">
        <ele>278</ele>
        <time>2017-10-11T13:00:36Z</time>
      </trkpt>
      <trkpt lat="47.36702" lon="6.43259">
        <ele>278</ele>
        <time>2017-10-11T13:00:38Z</time>
      </trkpt>
      <trkpt lat="47.36703" lon="6.43243">
        <ele>280</ele>
        <time>2017-10-11T13:00:40Z</time>
      </trkpt>
      <trkpt lat="47.36705" lon="6.43226">
        <ele>280</ele>
        <time>2017-10-11T13:00:42Z</time>
      </trkpt>
      <trkpt lat="47.36708" lon="6.43209">
        <ele>281</ele>
        <time>2017-10-11T13:00:44Z</time>
      </trkpt>
      <trkpt lat="47.36711" lon="6.43192">
        <ele>281</ele>
        <time>2017-10-11T13:00:46Z</time>
      </trkpt>
      <trkpt lat="47.36713" lon="6.43175">
        <ele>280</ele>
        <time>2017-10-11T13:00:48Z</time>
      </trkpt>
      <trkpt lat="47.36717" lon="6.43159">
        <ele>282</ele>
        <time>2017-10-11T13:00:50Z</time>
      </trkpt>
      <trkpt lat="47.36722" lon="6.43144">
        <ele>282</ele>
        <time>2017-10-11T13:00:52Z</time>
      </trkpt>
      <trkpt lat="47.36726" lon="6.4313">
        <ele>282</ele>
        <time>2017-10-11T13:00:54Z</time>
      </trkpt>
      <trkpt lat="47.3673" lon="6.43115">
        <ele>281</ele>
        <time>2017-10-11T13:00:56Z</time>
      </trkpt>
      <trkpt lat="47.36733" lon="6.43099">
        <ele>280</ele>
        <time>2017-10-11T13:00:58Z</time>
      </trkpt>
      <trkpt lat="47.36736" lon="6.43085">
        <ele>278</ele>
        <time>2017-10-11T13:01:00Z</time>
      </trkpt>
      <trkpt lat="47.3674" lon="6.43068">
        <ele>280</ele>
        <time>2017-10-11T13:01:02Z</time>
      </trkpt>
      <trkpt lat="47.36742" lon="6.43051">
        <ele>281</ele>
        <time>2017-10-11T13:01:04Z</time>
      </trkpt>
      <trkpt lat="47.36745" lon="6.43036">
        <ele>281</ele>
        <time>2017-10-11T13:01:06Z</time>
      </trkpt>
      <trkpt lat="47.36748" lon="6.4302">
        <ele>280</ele>
        <time>2017-10-11T13:01:08Z</time>
      </trkpt>
      <trkpt lat="47.36751" lon="6.43005">
        <ele>274</ele>
        <time>2017-10-11T13:01:10Z</time>
      </trkpt>
      <trkpt lat="47.36754" lon="6.42989">
        <ele>274</ele>
        <time>2017-10-11T13:01:12Z</time>
      </trkpt>
      <trkpt lat="47.36756" lon="6.42973">
        <ele>274</ele>
        <time>2017-10-11T13:01:14Z</time>
      </trkpt>
      <trkpt lat="47.3676" lon="6.42955">
        <ele>274</ele>
        <time>2017-10-11T13:01:16Z</time>
      </trkpt>
      <trkpt lat="47.36763" lon="6.42938">
        <ele>275</ele>
        <time>2017-10-11T13:01:18Z</time>
      </trkpt>
      <trkpt lat="47.36767" lon="6.42922">
        <ele>276</ele>
        <time>2017-10-11T13:01:20Z</time>
      </trkpt>
      <trkpt lat="47.3677" lon="6.42907">
        <ele>279</ele>
        <time>2017-10-11T13:01:22Z</time>
      </trkpt>
      <trkpt lat="47.36774" lon="6.42892">
        <ele>280</ele>
        <time>2017-10-11T13:01:24Z</time>
      </trkpt>
      <trkpt lat="47.36778" lon="6.42879">
        <ele>280</ele>
        <time>2017-10-11T13:01:26Z</time>
      </trkpt>
      <trkpt lat="47.36784" lon="6.42866">
        <ele>281</ele>
        <time>2017-10-11T13:01:28Z</time>
      </trkpt>
      <trkpt lat="47.36789" lon="6.42853">
        <ele>281</ele>
        <time>2017-10-11T13:01:30Z</time>
      </trkpt>
      <trkpt lat="47.36795" lon="6.42839">
        <ele>281</ele>
        <time>2017-10-11T13:01:32Z</time>
      </trkpt>
      <trkpt lat="47.36802" lon="6.42826">
        <ele>292</ele>
        <time>2017-10-11T13:01:34Z</time>
      </trkpt>
      <trkpt lat="47.36808" lon="6.42812">
        <ele>293</ele>
        <time>2017-10-11T13:01:36Z</time>
      </trkpt>
      <trkpt lat="47.36816" lon="6.42802">
        <ele>294</ele>
        <time>2017-10-11T13:01:38Z</time>
      </trkpt>
      <trkpt lat="47.36825" lon="6.42795">
        <ele>295</ele>
        <time>2017-10-11T13:01:40Z</time>
      </trkpt>
      <trkpt lat="47.36834" lon="6.42789">
        <ele>288</ele>
        <time>2017-10-11T13:01:42Z</time>
      </trkpt>
      <trkpt lat="47.36843" lon="6.42781">
        <ele>289</ele>
        <time>2017-10-11T13:01:44Z</time>
      </trkpt>
      <trkpt lat="47.36852" lon="6.42774">
        <ele>290</ele>
        <time>2017-10-11T13:01:46Z</time>
      </trkpt>
      <trkpt lat="47.36861" lon="6.42767">
        <ele>289</ele>
        <time>2017-10-11T13:01:48Z</time>
      </trkpt>
      <trkpt lat="47.3687" lon="6.4276">
        <ele>289</ele>
        <time>2017-10-11T13:01:50Z</time>
      </trkpt>
      <trkpt lat="47.36879" lon="6.42754">
        <ele>288</ele>
        <time>2017-10-11T13:01:52Z</time>
      </trkpt>
      <trkpt lat="47.36889" lon="6.42746">
        <ele>298</ele>
        <time>2017-10-11T13:01:54Z</time>
      </trkpt>
      <trkpt lat="47.36906" lon="6.42731">
        <ele>296</ele>
        <time>2017-10-11T13:01:58Z</time>
      </trkpt>
      <trkpt lat="47.36916" lon="6.42726">
        <ele>297</ele>
        <time>2017-10-11T13:02:00Z</time>
      </trkpt>
      <trkpt lat="47.36926" lon="6.42721">
        <ele>290</ele>
        <time>2017-10-11T13:02:02Z</time>
      </trkpt>
      <trkpt lat="47.36936" lon="6.42717">
        <ele>291</ele>
        <time>2017-10-11T13:02:04Z</time>
      </trkpt>
      <trkpt lat="47.36945" lon="6.42715">
        <ele>291</ele>
        <time>2017-10-11T13:02:06Z</time>
      </trkpt>
      <trkpt lat="47.36955" lon="6.42715">
        <ele>290</ele>
        <time>2017-10-11T13:02:08Z</time>
      </trkpt>
      <trkpt lat="47.36964" lon="6.42714">
        <ele>290</ele>
        <time>2017-10-11T13:02:10Z</time>
      </trkpt>
      <trkpt lat="47.36974" lon="6.42713">
        <ele>289</ele>
        <time>2017-10-11T13:02:12Z</time>
      </trkpt>
      <trkpt lat="47.36984" lon="6.42715">
        <ele>288</ele>
        <time>2017-10-11T13:02:14Z</time>
      </trkpt>
      <trkpt lat="47.36993" lon="6.42719">
        <ele>287</ele>
        <time>2017-10-11T13:02:16Z</time>
      </trkpt>
      <trkpt lat="47.37003" lon="6.42721">
        <ele>281</ele>
        <time>2017-10-11T13:02:18Z</time>
      </trkpt>
      <trkpt lat="47.37014" lon="6.4272">
        <ele>281</ele>
        <time>2017-10-11T13:02:20Z</time>
      </trkpt>
      <trkpt lat="47.37025" lon="6.42719">
        <ele>281</ele>
        <time>2017-10-11T13:02:22Z</time>
      </trkpt>
      <trkpt lat="47.37036" lon="6.42718">
        <ele>280</ele>
        <time>2017-10-11T13:02:24Z</time>
      </trkpt>
      <trkpt lat="47.37046" lon="6.42713">
        <ele>280</ele>
        <time>2017-10-11T13:02:26Z</time>
      </trkpt>
      <trkpt lat="47.37056" lon="6.42707">
        <ele>280</ele>
        <time>2017-10-11T13:02:28Z</time>
      </trkpt>
      <trkpt lat="47.37066" lon="6.42701">
        <ele>280</ele>
        <time>2017-10-11T13:02:30Z</time>
      </trkpt>
      <trkpt lat="47.37077" lon="6.42699">
        <ele>280</ele>
        <time>2017-10-11T13:02:32Z</time>
      </trkpt>
      <trkpt lat="47.37088" lon="6.42697">
        <ele>275</ele>
        <time>2017-10-11T13:02:34Z</time>
      </trkpt>
      <trkpt lat="47.37098" lon="6.42695">
        <ele>274</ele>
        <time>2017-10-11T13:02:36Z</time>
      </trkpt>
      <trkpt lat="47.37108" lon="6.42688">
        <ele>274</ele>
        <time>2017-10-11T13:02:38Z</time>
      </trkpt>
      <trkpt lat="47.37115" lon="6.42677">
        <ele>274</ele>
        <time>2017-10-11T13:02:40Z</time>
      </trkpt>
      <trkpt lat="47.37121" lon="6.42665">
        <ele>274</ele>
        <time>2017-10-11T13:02:42Z</time>
      </trkpt>
      <trkpt lat="47.37127" lon="6.42654">
        <ele>273</ele>
        <time>2017-10-11T13:02:44Z</time>
      </trkpt>
      <trkpt lat="47.37134" lon="6.42644">
        <ele>272</ele>
        <time>2017-10-11T13:02:46Z</time>
      </trkpt>
      <trkpt lat="47.37142" lon="6.42633">
        <ele>272</ele>
        <time>2017-10-11T13:02:48Z</time>
      </trkpt>
      <trkpt lat="47.3715" lon="6.42622">
        <ele>271</ele>
        <time>2017-10-11T13:02:50Z</time>
      </trkpt>
      <trkpt lat="47.37156" lon="6.42609">
        <ele>270</ele>
        <time>2017-10-11T13:02:52Z</time>
      </trkpt>
      <trkpt lat="47.37162" lon="6.42595">
        <ele>269</ele>
        <time>2017-10-11T13:02:54Z</time>
      </trkpt>
      <trkpt lat="47.37166" lon="6.4258">
        <ele>267</ele>
        <time>2017-10-11T13:02:56Z</time>
      </trkpt>
      <trkpt lat="47.37169" lon="6.42565">
        <ele>271</ele>
        <time>2017-10-11T13:02:58Z</time>
      </trkpt>
      <trkpt lat="47.37169" lon="6.42548">
        <ele>272</ele>
        <time>2017-10-11T13:03:00Z</time>
      </trkpt>
      <trkpt lat="47.37169" lon="6.4253">
        <ele>272</ele>
        <time>2017-10-11T13:03:02Z</time>
      </trkpt>
      <trkpt lat="47.37165" lon="6.42513">
        <ele>267</ele>
        <time>2017-10-11T13:03:04Z</time>
      </trkpt>
      <trkpt lat="47.3716" lon="6.42498">
        <ele>266</ele>
        <time>2017-10-11T13:03:06Z</time>
      </trkpt>
      <trkpt lat="47.37153" lon="6.42484">
        <ele>267</ele>
        <time>2017-10-11T13:03:08Z</time>
      </trkpt>
      <trkpt lat="47.37148" lon="6.42469">
        <ele>267</ele>
        <time>2017-10-11T13:03:10Z</time>
      </trkpt>
      <trkpt lat="47.37142" lon="6.42454">
        <ele>267</ele>
        <time>2017-10-11T13:03:12Z</time>
      </trkpt>
      <trkpt lat="47.37136" lon="6.42438">
        <ele>267</ele>
        <time>2017-10-11T13:03:14Z</time>
      </trkpt>
      <trkpt lat="47.37129" lon="6.42424">
        <ele>268</ele>
        <time>2017-10-11T13:03:16Z</time>
      </trkpt>
      <trkpt lat="47.37124" lon="6.4241">
        <ele>269</ele>
        <time>2017-10-11T13:03:18Z</time>
      </trkpt>
      <trkpt lat="47.37117" lon="6.42397">
        <ele>269</ele>
        <time>2017-10-11T13:03:20Z</time>
      </trkpt>
      <trkpt lat="47.37111" lon="6.42385">
        <ele>269</ele>
        <time>2017-10-11T13:03:22Z</time>
      </trkpt>
      <trkpt lat="47.37105" lon="6.42369">
        <ele>269</ele>
        <time>2017-10-11T13:03:24Z</time>
      </trkpt>
      <trkpt lat="47.37099" lon="6.42352">
        <ele>269</ele>
        <time>2017-10-11T13:03:26Z</time>
      </trkpt>
      <trkpt lat="47.37092" lon="6.42337">
        <ele>268</ele>
        <time>2017-10-11T13:03:28Z</time>
      </trkpt>
      <trkpt lat="47.37085" lon="6.42322">
        <ele>270</ele>
        <time>2017-10-11T13:03:30Z</time>
      </trkpt>
      <trkpt lat="47.37077" lon="6.42306">
        <ele>268</ele>
        <time>2017-10-11T13:03:32Z</time>
      </trkpt>
      <trkpt lat="47.37069" lon="6.42292">
        <ele>267</ele>
        <time>2017-10-11T13:03:34Z</time>
      </trkpt>
      <trkpt lat="47.3706" lon="6.42276">
        <ele>267</ele>
        <time>2017-10-11T13:03:36Z</time>
      </trkpt>
      <trkpt lat="47.37049" lon="6.42259">
        <ele>267</ele>
        <time>2017-10-11T13:03:38Z</time>
      </trkpt>
      <trkpt lat="47.3704" lon="6.42243">
        <ele>268</ele>
        <time>2017-10-11T13:03:40Z</time>
      </trkpt>
      <trkpt lat="47.37029" lon="6.42229">
        <ele>268</ele>
        <time>2017-10-11T13:03:42Z</time>
      </trkpt>
      <trkpt lat="47.37019" lon="6.42213">
        <ele>268</ele>
        <time>2017-10-11T13:03:44Z</time>
      </trkpt>
      <trkpt lat="47.37008" lon="6.42198">
        <ele>268</ele>
        <time>2017-10-11T13:03:46Z</time>
      </trkpt>
      <trkpt lat="47.36999" lon="6.42186">
        <ele>268</ele>
        <time>2017-10-11T13:03:48Z</time>
      </trkpt>
      <trkpt lat="47.36989" lon="6.42174">
        <ele>267</ele>
        <time>2017-10-11T13:03:51Z</time>
      </trkpt>
      <trkpt lat="47.36982" lon="6.42164">
        <ele>269</ele>
        <time>2017-10-11T13:03:53Z</time>
      </trkpt>
      <trkpt lat="47.36971" lon="6.42153">
        <ele>270</ele>
        <time>2017-10-11T13:03:56Z</time>
      </trkpt>
      <trkpt lat="47.36962" lon="6.42145">
        <ele>270</ele>
        <time>2017-10-11T13:03:58Z</time>
      </trkpt>
      <trkpt lat="47.36953" lon="6.42135">
        <ele>270</ele>
        <time>2017-10-11T13:04:00Z</time>
      </trkpt>
      <trkpt lat="47.36942" lon="6.42126">
        <ele>271</ele>
        <time>2017-10-11T13:04:02Z</time>
      </trkpt>
      <trkpt lat="47.36932" lon="6.42116">
        <ele>271</ele>
        <time>2017-10-11T13:04:04Z</time>
      </trkpt>
      <trkpt lat="47.36923" lon="6.42107">
        <ele>271</ele>
        <time>2017-10-11T13:04:06Z</time>
      </trkpt>
      <trkpt lat="47.36913" lon="6.42096">
        <ele>271</ele>
        <time>2017-10-11T13:04:08Z</time>
      </trkpt>
      <trkpt lat="47.36904" lon="6.42087">
        <ele>271</ele>
        <time>2017-10-11T13:04:10Z</time>
      </trkpt>
      <trkpt lat="47.36895" lon="6.42079">
        <ele>272</ele>
        <time>2017-10-11T13:04:12Z</time>
      </trkpt>
      <trkpt lat="47.36884" lon="6.42073">
        <ele>272</ele>
        <time>2017-10-11T13:04:14Z</time>
      </trkpt>
      <trkpt lat="47.36874" lon="6.42067">
        <ele>272</ele>
        <time>2017-10-11T13:04:16Z</time>
      </trkpt>
      <trkpt lat="47.36864" lon="6.42061">
        <ele>272</ele>
        <time>2017-10-11T13:04:18Z</time>
      </trkpt>
      <trkpt lat="47.36853" lon="6.42055">
        <ele>272</ele>
        <time>2017-10-11T13:04:20Z</time>
      </trkpt>
      <trkpt lat="47.36842" lon="6.4205">
        <ele>272</ele>
        <time>2017-10-11T13:04:22Z</time>
      </trkpt>
      <trkpt lat="47.36832" lon="6.42045">
        <ele>271</ele>
        <time>2017-10-11T13:04:24Z</time>
      </trkpt>
      <trkpt lat="47.36822" lon="6.42039">
        <ele>271</ele>
        <time>2017-10-11T13:04:26Z</time>
      </trkpt>
      <trkpt lat="47.36811" lon="6.42032">
        <ele>271</ele>
        <time>2017-10-11T13:04:28Z</time>
      </trkpt>
      <trkpt lat="47.36801" lon="6.42026">
        <ele>271</ele>
        <time>2017-10-11T13:04:30Z</time>
      </trkpt>
      <trkpt lat="47.3679" lon="6.4202">
        <ele>271</ele>
        <time>2017-10-11T13:04:32Z</time>
      </trkpt>
      <trkpt lat="47.36779" lon="6.42014">
        <ele>271</ele>
        <time>2017-10-11T13:04:34Z</time>
      </trkpt>
      <trkpt lat="47.36768" lon="6.42008">
        <ele>271</ele>
        <time>2017-10-11T13:04:36Z</time>
      </trkpt>
      <trkpt lat="47.36758" lon="6.42003">
        <ele>271</ele>
        <time>2017-10-11T13:04:38Z</time>
      </trkpt>
      <trkpt lat="47.36747" lon="6.42">
        <ele>271</ele>
        <time>2017-10-11T13:04:40Z</time>
      </trkpt>
      <trkpt lat="47.36735" lon="6.41996">
        <ele>272</ele>
        <time>2017-10-11T13:04:42Z</time>
      </trkpt>
      <trkpt lat="47.36723" lon="6.4199">
        <ele>272</ele>
        <time>2017-10-11T13:04:44Z</time>
      </trkpt>
      <trkpt lat="47.36712" lon="6.41982">
        <ele>272</ele>
        <time>2017-10-11T13:04:46Z</time>
      </trkpt>
      <trkpt lat="47.36701" lon="6.41974">
        <ele>272</ele>
        <time>2017-10-11T13:04:48Z</time>
      </trkpt>
      <trkpt lat="47.3669" lon="6.41968">
        <ele>272</ele>
        <time>2017-10-11T13:04:50Z</time>
      </trkpt>
      <trkpt lat="47.36678" lon="6.41962">
        <ele>272</ele>
        <time>2017-10-11T13:04:52Z</time>
      </trkpt>
      <trkpt lat="47.36667" lon="6.41955">
        <ele>270</ele>
        <time>2017-10-11T13:04:54Z</time>
      </trkpt>
      <trkpt lat="47.36655" lon="6.41947">
        <ele>270</ele>
        <time>2017-10-11T13:04:56Z</time>
      </trkpt>
      <trkpt lat="47.36643" lon="6.41941">
        <ele>270</ele>
        <time>2017-10-11T13:04:58Z</time>
      </trkpt>
      <trkpt lat="47.36631" lon="6.41934">
        <ele>269</ele>
        <time>2017-10-11T13:05:00Z</time>
      </trkpt>
      <trkpt lat="47.36618" lon="6.41929">
        <ele>269</ele>
        <time>2017-10-11T13:05:02Z</time>
      </trkpt>
      <trkpt lat="47.36605" lon="6.41923">
        <ele>268</ele>
        <time>2017-10-11T13:05:04Z</time>
      </trkpt>
      <trkpt lat="47.36591" lon="6.41916">
        <ele>267</ele>
        <time>2017-10-11T13:05:06Z</time>
      </trkpt>
      <trkpt lat="47.36577" lon="6.41909">
        <ele>266</ele>
        <time>2017-10-11T13:05:08Z</time>
      </trkpt>
      <trkpt lat="47.36565" lon="6.41904">
        <ele>266</ele>
        <time>2017-10-11T13:05:10Z</time>
      </trkpt>
      <trkpt lat="47.36551" lon="6.41898">
        <ele>266</ele>
        <time>2017-10-11T13:05:12Z</time>
      </trkpt>
      <trkpt lat="47.36538" lon="6.41895">
        <ele>266</ele>
        <time>2017-10-11T13:05:14Z</time>
      </trkpt>
      <trkpt lat="47.36525" lon="6.41894">
        <ele>266</ele>
        <time>2017-10-11T13:05:16Z</time>
      </trkpt>
      <trkpt lat="47.36512" lon="6.41892">
        <ele>266</ele>
        <time>2017-10-11T13:05:18Z</time>
      </trkpt>
      <trkpt lat="47.365" lon="6.4189">
        <ele>266</ele>
        <time>2017-10-11T13:05:20Z</time>
      </trkpt>
      <trkpt lat="47.36489" lon="6.41888">
        <ele>267</ele>
        <time>2017-10-11T13:05:22Z</time>
      </trkpt>
      <trkpt lat="47.36478" lon="6.41886">
        <ele>267</ele>
        <time>2017-10-11T13:05:24Z</time>
      </trkpt>
      <trkpt lat="47.36467" lon="6.41883">
        <ele>267</ele>
        <time>2017-10-11T13:05:26Z</time>
      </trkpt>
      <trkpt lat="47.36457" lon="6.41882">
        <ele>267</ele>
        <time>2017-10-11T13:05:28Z</time>
      </trkpt>
      <trkpt lat="47.36446" lon="6.41881">
        <ele>267</ele>
        <time>2017-10-11T13:05:30Z</time>
      </trkpt>
      <trkpt lat="47.36436" lon="6.41881">
        <ele>267</ele>
        <time>2017-10-11T13:05:32Z</time>
      </trkpt>
      <trkpt lat="47.36425" lon="6.41882">
        <ele>267</ele>
        <time>2017-10-11T13:05:34Z</time>
      </trkpt>
      <trkpt lat="47.36416" lon="6.41885">
        <ele>267</ele>
        <time>2017-10-11T13:05:36Z</time>
      </trkpt>
      <trkpt lat="47.36406" lon="6.41888">
        <ele>267</ele>
        <time>2017-10-11T13:05:38Z</time>
      </trkpt>
      <trkpt lat="47.36397" lon="6.4189">
        <ele>267</ele>
        <time>2017-10-11T13:05:40Z</time>
      </trkpt>
      <trkpt lat="47.36385" lon="6.41894">
        <ele>268</ele>
        <time>2017-10-11T13:05:43Z</time>
      </trkpt>
      <trkpt lat="47.36395" lon="6.41899">
        <ele>267</ele>
        <time>2017-10-11T13:06:47Z</time>
      </trkpt>
      <trkpt lat="47.36405" lon="6.41899">
        <ele>267</ele>
        <time>2017-10-11T13:06:52Z</time>
      </trkpt>
      <trkpt lat="47.36415" lon="6.419">
        <ele>267</ele>
        <time>2017-10-11T13:06:56Z</time>
      </trkpt>
      <trkpt lat="47.36425" lon="6.41904">
        <ele>267</ele>
        <time>2017-10-11T13:07:01Z</time>
      </trkpt>
      <trkpt lat="47.36417" lon="6.41897">
        <ele>267</ele>
        <time>2017-10-11T13:07:08Z</time>
      </trkpt>
      <trkpt lat="47.36406" lon="6.41897">
        <ele>267</ele>
        <time>2017-10-11T13:07:11Z</time>
      </trkpt>
      <trkpt lat="47.36396" lon="6.41897">
        <ele>267</ele>
        <time>2017-10-11T13:07:15Z</time>
      </trkpt>
      <trkpt lat="47.36387" lon="6.41898">
        <ele>268</ele>
        <time>2017-10-11T13:07:20Z</time>
      </trkpt>
      <trkpt lat="47.36377" lon="6.419">
        <ele>268</ele>
        <time>2017-10-11T13:07:23Z</time>
      </trkpt>
      <trkpt lat="47.36366" lon="6.419">
        <ele>268</ele>
        <time>2017-10-11T13:07:26Z</time>
      </trkpt>
      <trkpt lat="47.36357" lon="6.41901">
        <ele>268</ele>
        <time>2017-10-11T13:07:29Z</time>
      </trkpt>
      <trkpt lat="47.36345" lon="6.41904">
        <ele>268</ele>
        <time>2017-10-11T13:07:32Z</time>
      </trkpt>
      <trkpt lat="47.36333" lon="6.41907">
        <ele>268</ele>
        <time>2017-10-11T13:07:35Z</time>
      </trkpt>
      <trkpt lat="47.36321" lon="6.4191">
        <ele>269</ele>
        <time>2017-10-11T13:07:38Z</time>
      </trkpt>
      <trkpt lat="47.36311" lon="6.41911">
        <ele>269</ele>
        <time>2017-10-11T13:07:40Z</time>
      </trkpt>
      <trkpt lat="47.36302" lon="6.41913">
        <ele>269</ele>
        <time>2017-10-11T13:07:42Z</time>
      </trkpt>
      <trkpt lat="47.36289" lon="6.41915">
        <ele>269</ele>
        <time>2017-10-11T13:07:45Z</time>
      </trkpt>
      <trkpt lat="47.36279" lon="6.41915">
        <ele>269</ele>
        <time>2017-10-11T13:07:47Z</time>
      </trkpt>
      <trkpt lat="47.3627" lon="6.41915">
        <ele>269</ele>
        <time>2017-10-11T13:07:49Z</time>
      </trkpt>
      <trkpt lat="47.36257" lon="6.41916">
        <ele>268</ele>
        <time>2017-10-11T13:07:52Z</time>
      </trkpt>
      <trkpt lat="47.36248" lon="6.41916">
        <ele>268</ele>
        <time>2017-10-11T13:07:54Z</time>
      </trkpt>
      <trkpt lat="47.36239" lon="6.41916">
        <ele>268</ele>
        <time>2017-10-11T13:07:56Z</time>
      </trkpt>
      <trkpt lat="47.3623" lon="6.41917">
        <ele>268</ele>
        <time>2017-10-11T13:07:58Z</time>
      </trkpt>
      <trkpt lat="47.36221" lon="6.41919">
        <ele>268</ele>
        <time>2017-10-11T13:08:00Z</time>
      </trkpt>
      <trkpt lat="47.36211" lon="6.41923">
        <ele>268</ele>
        <time>2017-10-11T13:08:02Z</time>
      </trkpt>
      <trkpt lat="47.362" lon="6.41925">
        <ele>268</ele>
        <time>2017-10-11T13:08:04Z</time>
      </trkpt>
      <trkpt lat="47.36189" lon="6.41926">
        <ele>268</ele>
        <time>2017-10-11T13:08:06Z</time>
      </trkpt>
      <trkpt lat="47.36179" lon="6.41928">
        <ele>268</ele>
        <time>2017-10-11T13:08:08Z</time>
      </trkpt>
      <trkpt lat="47.36169" lon="6.4193">
        <ele>268</ele>
        <time>2017-10-11T13:08:10Z</time>
      </trkpt>
      <trkpt lat="47.3616" lon="6.41931">
        <ele>267</ele>
        <time>2017-10-11T13:08:12Z</time>
      </trkpt>
      <trkpt lat="47.36151" lon="6.41934">
        <ele>267</ele>
        <time>2017-10-11T13:08:14Z</time>
      </trkpt>
      <trkpt lat="47.36142" lon="6.41936">
        <ele>267</ele>
        <time>2017-10-11T13:08:16Z</time>
      </trkpt>
      <trkpt lat="47.36132" lon="6.41936">
        <ele>266</ele>
        <time>2017-10-11T13:08:18Z</time>
      </trkpt>
      <trkpt lat="47.36123" lon="6.41934">
        <ele>266</ele>
        <time>2017-10-11T13:08:20Z</time>
      </trkpt>
      <trkpt lat="47.36113" lon="6.41934">
        <ele>266</ele>
        <time>2017-10-11T13:08:22Z</time>
      </trkpt>
      <trkpt lat="47.36102" lon="6.41934">
        <ele>266</ele>
        <time>2017-10-11T13:08:24Z</time>
      </trkpt>
      <trkpt lat="47.36092" lon="6.41932">
        <ele>265</ele>
        <time>2017-10-11T13:08:26Z</time>
      </trkpt>
      <trkpt lat="47.36079" lon="6.41933">
        <ele>265</ele>
        <time>2017-10-11T13:08:29Z</time>
      </trkpt>
      <trkpt lat="47.3607" lon="6.41933">
        <ele>265</ele>
        <time>2017-10-11T13:08:31Z</time>
      </trkpt>
      <trkpt lat="47.3606" lon="6.41932">
        <ele>265</ele>
        <time>2017-10-11T13:08:33Z</time>
      </trkpt>
      <trkpt lat="47.36048" lon="6.41929">
        <ele>265</ele>
        <time>2017-10-11T13:08:36Z</time>
      </trkpt>
      <trkpt lat="47.36039" lon="6.41929">
        <ele>266</ele>
        <time>2017-10-11T13:08:38Z</time>
      </trkpt>
      <trkpt lat="47.36028" lon="6.41929">
        <ele>266</ele>
        <time>2017-10-11T13:08:40Z</time>
      </trkpt>
      <trkpt lat="47.36018" lon="6.41929">
        <ele>266</ele>
        <time>2017-10-11T13:08:42Z</time>
      </trkpt>
      <trkpt lat="47.36008" lon="6.41928">
        <ele>265</ele>
        <time>2017-10-11T13:08:44Z</time>
      </trkpt>
      <trkpt lat="47.35997" lon="6.41928">
        <ele>268</ele>
        <time>2017-10-11T13:08:46Z</time>
      </trkpt>
      <trkpt lat="47.35986" lon="6.41926">
        <ele>270</ele>
        <time>2017-10-11T13:08:48Z</time>
      </trkpt>
      <trkpt lat="47.35976" lon="6.41925">
        <ele>271</ele>
        <time>2017-10-11T13:08:50Z</time>
      </trkpt>
      <trkpt lat="47.35965" lon="6.41925">
        <ele>273</ele>
        <time>2017-10-11T13:08:52Z</time>
      </trkpt>
      <trkpt lat="47.35955" lon="6.41923">
        <ele>274</ele>
        <time>2017-10-11T13:08:54Z</time>
      </trkpt>
      <trkpt lat="47.35945" lon="6.41922">
        <ele>274</ele>
        <time>2017-10-11T13:08:56Z</time>
      </trkpt>
      <trkpt lat="47.35934" lon="6.41919">
        <ele>275</ele>
        <time>2017-10-11T13:08:58Z</time>
      </trkpt>
      <trkpt lat="47.35924" lon="6.41917">
        <ele>275</ele>
        <time>2017-10-11T13:09:00Z</time>
      </trkpt>
      <trkpt lat="47.35914" lon="6.41916">
        <ele>276</ele>
        <time>2017-10-11T13:09:02Z</time>
      </trkpt>
      <trkpt lat="47.35903" lon="6.41913">
        <ele>279</ele>
        <time>2017-10-11T13:09:04Z</time>
      </trkpt>
      <trkpt lat="47.35893" lon="6.4191">
        <ele>281</ele>
        <time>2017-10-11T13:09:06Z</time>
      </trkpt>
      <trkpt lat="47.35883" lon="6.41905">
        <ele>283</ele>
        <time>2017-10-11T13:09:08Z</time>
      </trkpt>
      <trkpt lat="47.35873" lon="6.41898">
        <ele>285</ele>
        <time>2017-10-11T13:09:10Z</time>
      </trkpt>
      <trkpt lat="47.35864" lon="6.41889">
        <ele>285</ele>
        <time>2017-10-11T13:09:12Z</time>
      </trkpt>
      <trkpt lat="47.35855" lon="6.4188">
        <ele>286</ele>
        <time>2017-10-11T13:09:14Z</time>
      </trkpt>
      <trkpt lat="47.35846" lon="6.41872">
        <ele>285</ele>
        <time>2017-10-11T13:09:16Z</time>
      </trkpt>
      <trkpt lat="47.35837" lon="6.41863">
        <ele>285</ele>
        <time>2017-10-11T13:09:18Z</time>
      </trkpt>
      <trkpt lat="47.3583" lon="6.41852">
        <ele>300</ele>
        <time>2017-10-11T13:09:20Z</time>
      </trkpt>
      <trkpt lat="47.35824" lon="6.41839">
        <ele>295</ele>
        <time>2017-10-11T13:09:22Z</time>
      </trkpt>
      <trkpt lat="47.35819" lon="6.41825">
        <ele>291</ele>
        <time>2017-10-11T13:09:24Z</time>
      </trkpt>
      <trkpt lat="47.35814" lon="6.4181">
        <ele>293</ele>
        <time>2017-10-11T13:09:26Z</time>
      </trkpt>
      <trkpt lat="47.35811" lon="6.41794">
        <ele>294</ele>
        <time>2017-10-11T13:09:28Z</time>
      </trkpt>
      <trkpt lat="47.35807" lon="6.41779">
        <ele>293</ele>
        <time>2017-10-11T13:09:30Z</time>
      </trkpt>
      <trkpt lat="47.35802" lon="6.41764">
        <ele>293</ele>
        <time>2017-10-11T13:09:32Z</time>
      </trkpt>
      <trkpt lat="47.35797" lon="6.41748">
        <ele>286</ele>
        <time>2017-10-11T13:09:34Z</time>
      </trkpt>
      <trkpt lat="47.35793" lon="6.41734">
        <ele>286</ele>
        <time>2017-10-11T13:09:36Z</time>
      </trkpt>
      <trkpt lat="47.35789" lon="6.41719">
        <ele>286</ele>
        <time>2017-10-11T13:09:38Z</time>
      </trkpt>
      <trkpt lat="47.35786" lon="6.41704">
        <ele>286</ele>
        <time>2017-10-11T13:09:40Z</time>
      </trkpt>
      <trkpt lat="47.35783" lon="6.4169">
        <ele>286</ele>
        <time>2017-10-11T13:09:42Z</time>
      </trkpt>
      <trkpt lat="47.35781" lon="6.41675">
        <ele>286</ele>
        <time>2017-10-11T13:09:44Z</time>
      </trkpt>
      <trkpt lat="47.35778" lon="6.4166">
        <ele>282</ele>
        <time>2017-10-11T13:09:46Z</time>
      </trkpt>
      <trkpt lat="47.35776" lon="6.41645">
        <ele>281</ele>
        <time>2017-10-11T13:09:48Z</time>
      </trkpt>
      <trkpt lat="47.35774" lon="6.41631">
        <ele>280</ele>
        <time>2017-10-11T13:09:50Z</time>
      </trkpt>
      <trkpt lat="47.35773" lon="6.41616">
        <ele>280</ele>
        <time>2017-10-11T13:09:52Z</time>
      </trkpt>
      <trkpt lat="47.35772" lon="6.41602">
        <ele>280</ele>
        <time>2017-10-11T13:09:54Z</time>
      </trkpt>
      <trkpt lat="47.35769" lon="6.41588">
        <ele>281</ele>
        <time>2017-10-11T13:09:56Z</time>
      </trkpt>
      <trkpt lat="47.35765" lon="6.41574">
        <ele>278</ele>
        <time>2017-10-11T13:09:58Z</time>
      </trkpt>
      <trkpt lat="47.35761" lon="6.41557">
        <ele>277</ele>
        <time>2017-10-11T13:10:01Z</time>
      </trkpt>
      <trkpt lat="47.3576" lon="6.41542">
        <ele>275</ele>
        <time>2017-10-11T13:10:04Z</time>
      </trkpt>
      <trkpt lat="47.35757" lon="6.41526">
        <ele>275</ele>
        <time>2017-10-11T13:11:22Z</time>
      </trkpt>
      <trkpt lat="47.35753" lon="6.41509">
        <ele>275</ele>
        <time>2017-10-11T13:11:25Z</time>
      </trkpt>
      <trkpt lat="47.35748" lon="6.41491">
        <ele>278</ele>
        <time>2017-10-11T13:11:27Z</time>
      </trkpt>
      <trkpt lat="47.35746" lon="6.4147">
        <ele>282</ele>
        <time>2017-10-11T13:11:29Z</time>
      </trkpt>
      <trkpt lat="47.35743" lon="6.41449">
        <ele>281</ele>
        <time>2017-10-11T13:11:31Z</time>
      </trkpt>
      <trkpt lat="47.35738" lon="6.41428">
        <ele>278</ele>
        <time>2017-10-11T13:11:33Z</time>
      </trkpt>
      <trkpt lat="47.35731" lon="6.41407">
        <ele>276</ele>
        <time>2017-10-11T13:11:35Z</time>
      </trkpt>
      <trkpt lat="47.35726" lon="6.41385">
        <ele>276</ele>
        <time>2017-10-11T13:11:37Z</time>
      </trkpt>
      <trkpt lat="47.3572" lon="6.41363">
        <ele>276</ele>
        <time>2017-10-11T13:11:39Z</time>
      </trkpt>
      <trkpt lat="47.35715" lon="6.4134">
        <ele>276</ele>
        <time>2017-10-11T13:11:41Z</time>
      </trkpt>
      <trkpt lat="47.3571" lon="6.41316">
        <ele>272</ele>
        <time>2017-10-11T13:11:43Z</time>
      </trkpt>
      <trkpt lat="47.35705" lon="6.41292">
        <ele>272</ele>
        <time>2017-10-11T13:11:45Z</time>
      </trkpt>
      <trkpt lat="47.357" lon="6.41268">
        <ele>272</ele>
        <time>2017-10-11T13:11:47Z</time>
      </trkpt>
      <trkpt lat="47.35695" lon="6.41244">
        <ele>272</ele>
        <time>2017-10-11T13:11:49Z</time>
      </trkpt>
      <trkpt lat="47.3569" lon="6.4122">
        <ele>272</ele>
        <time>2017-10-11T13:11:51Z</time>
      </trkpt>
      <trkpt lat="47.35686" lon="6.41197">
        <ele>272</ele>
        <time>2017-10-11T13:11:53Z</time>
      </trkpt>
      <trkpt lat="47.35682" lon="6.41174">
        <ele>273</ele>
        <time>2017-10-11T13:11:55Z</time>
      </trkpt>
      <trkpt lat="47.35679" lon="6.41151">
        <ele>273</ele>
        <time>2017-10-11T13:11:57Z</time>
      </trkpt>
      <trkpt lat="47.35675" lon="6.41128">
        <ele>271</ele>
        <time>2017-10-11T13:11:59Z</time>
      </trkpt>
      <trkpt lat="47.35671" lon="6.41105">
        <ele>271</ele>
        <time>2017-10-11T13:12:01Z</time>
      </trkpt>
      <trkpt lat="47.35667" lon="6.41082">
        <ele>270</ele>
        <time>2017-10-11T13:12:03Z</time>
      </trkpt>
      <trkpt lat="47.35663" lon="6.41062">
        <ele>280</ele>
        <time>2017-10-11T13:12:05Z</time>
      </trkpt>
      <trkpt lat="47.35659" lon="6.41042">
        <ele>282</ele>
        <time>2017-10-11T13:12:07Z</time>
      </trkpt>
      <trkpt lat="47.35656" lon="6.41022">
        <ele>281</ele>
        <time>2017-10-11T13:12:09Z</time>
      </trkpt>
      <trkpt lat="47.35652" lon="6.41">
        <ele>277</ele>
        <time>2017-10-11T13:12:11Z</time>
      </trkpt>
      <trkpt lat="47.35648" lon="6.40976">
        <ele>281</ele>
        <time>2017-10-11T13:12:13Z</time>
      </trkpt>
      <trkpt lat="47.35646" lon="6.40954">
        <ele>282</ele>
        <time>2017-10-11T13:12:15Z</time>
      </trkpt>
      <trkpt lat="47.35643" lon="6.40933">
        <ele>281</ele>
        <time>2017-10-11T13:12:17Z</time>
      </trkpt>
      <trkpt lat="47.35641" lon="6.40912">
        <ele>282</ele>
        <time>2017-10-11T13:12:19Z</time>
      </trkpt>
      <trkpt lat="47.35639" lon="6.4089">
        <ele>284</ele>
        <time>2017-10-11T13:12:21Z</time>
      </trkpt>
      <trkpt lat="47.35637" lon="6.40867">
        <ele>285</ele>
        <time>2017-10-11T13:12:23Z</time>
      </trkpt>
      <trkpt lat="47.35635" lon="6.40846">
        <ele>285</ele>
        <time>2017-10-11T13:12:25Z</time>
      </trkpt>
      <trkpt lat="47.35634" lon="6.40826">
        <ele>289</ele>
        <time>2017-10-11T13:12:27Z</time>
      </trkpt>
      <trkpt lat="47.35632" lon="6.40809">
        <ele>290</ele>
        <time>2017-10-11T13:12:29Z</time>
      </trkpt>
      <trkpt lat="47.3563" lon="6.40793">
        <ele>291</ele>
        <time>2017-10-11T13:12:32Z</time>
      </trkpt>
      <trkpt lat="47.3563" lon="6.40778">
        <ele>292</ele>
        <time>2017-10-11T13:12:36Z</time>
      </trkpt>
      <trkpt lat="47.35629" lon="6.40764">
        <ele>293</ele>
        <time>2017-10-11T13:12:38Z</time>
      </trkpt>
      <trkpt lat="47.3563" lon="6.40746">
        <ele>296</ele>
        <time>2017-10-11T13:12:40Z</time>
      </trkpt>
      <trkpt lat="47.35632" lon="6.40723">
        <ele>296</ele>
        <time>2017-10-11T13:12:42Z</time>
      </trkpt>
      <trkpt lat="47.35633" lon="6.407">
        <ele>296</ele>
        <time>2017-10-11T13:12:44Z</time>
      </trkpt>
      <trkpt lat="47.35634" lon="6.40676">
        <ele>295</ele>
        <time>2017-10-11T13:12:46Z</time>
      </trkpt>
      <trkpt lat="47.35635" lon="6.40652">
        <ele>298</ele>
        <time>2017-10-11T13:12:48Z</time>
      </trkpt>
      <trkpt lat="47.35636" lon="6.40625">
        <ele>299</ele>
        <time>2017-10-11T13:12:50Z</time>
      </trkpt>
      <trkpt lat="47.35637" lon="6.40612">
        <ele>299</ele>
        <time>2017-10-11T13:12:51Z</time>
      </trkpt>
      <trkpt lat="47.35638" lon="6.40585">
        <ele>298</ele>
        <time>2017-10-11T13:12:53Z</time>
      </trkpt>
      <trkpt lat="47.3564" lon="6.4056">
        <ele>303</ele>
        <time>2017-10-11T13:12:55Z</time>
      </trkpt>
      <trkpt lat="47.35643" lon="6.40538">
        <ele>304</ele>
        <time>2017-10-11T13:12:57Z</time>
      </trkpt>
      <trkpt lat="47.35645" lon="6.40516">
        <ele>302</ele>
        <time>2017-10-11T13:12:59Z</time>
      </trkpt>
      <trkpt lat="47.35649" lon="6.40495">
        <ele>302</ele>
        <time>2017-10-11T13:13:01Z</time>
      </trkpt>
      <trkpt lat="47.35653" lon="6.40473">
        <ele>306</ele>
        <time>2017-10-11T13:13:03Z</time>
      </trkpt>
      <trkpt lat="47.35655" lon="6.40452">
        <ele>306</ele>
        <time>2017-10-11T13:13:05Z</time>
      </trkpt>
      <trkpt lat="47.35657" lon="6.40431">
        <ele>300</ele>
        <time>2017-10-11T13:13:07Z</time>
      </trkpt>
      <trkpt lat="47.35661" lon="6.40408">
        <ele>297</ele>
        <time>2017-10-11T13:13:09Z</time>
      </trkpt>
      <trkpt lat="47.35664" lon="6.40385">
        <ele>306</ele>
        <time>2017-10-11T13:13:11Z</time>
      </trkpt>
      <trkpt lat="47.35667" lon="6.40361">
        <ele>280</ele>
        <time>2017-10-11T13:13:13Z</time>
      </trkpt>
      <trkpt lat="47.35671" lon="6.40337">
        <ele>283</ele>
        <time>2017-10-11T13:13:15Z</time>
      </trkpt>
      <trkpt lat="47.35674" lon="6.40315">
        <ele>281</ele>
        <time>2017-10-11T13:13:17Z</time>
      </trkpt>
      <trkpt lat="47.35679" lon="6.40294">
        <ele>281</ele>
        <time>2017-10-11T13:13:19Z</time>
      </trkpt>
      <trkpt lat="47.35683" lon="6.40273">
        <ele>282</ele>
        <time>2017-10-11T13:13:21Z</time>
      </trkpt>
      <trkpt lat="47.35688" lon="6.40251">
        <ele>283</ele>
        <time>2017-10-11T13:13:23Z</time>
      </trkpt>
      <trkpt lat="47.35693" lon="6.40229">
        <ele>282</ele>
        <time>2017-10-11T13:13:25Z</time>
      </trkpt>
      <trkpt lat="47.35698" lon="6.40206">
        <ele>280</ele>
        <time>2017-10-11T13:13:27Z</time>
      </trkpt>
      <trkpt lat="47.35703" lon="6.40184">
        <ele>280</ele>
        <time>2017-10-11T13:13:29Z</time>
      </trkpt>
      <trkpt lat="47.35708" lon="6.40162">
        <ele>279</ele>
        <time>2017-10-11T13:13:31Z</time>
      </trkpt>
      <trkpt lat="47.35712" lon="6.4014">
        <ele>279</ele>
        <time>2017-10-11T13:13:33Z</time>
      </trkpt>
      <trkpt lat="47.35716" lon="6.40119">
        <ele>279</ele>
        <time>2017-10-11T13:13:35Z</time>
      </trkpt>
      <trkpt lat="47.3572" lon="6.40098">
        <ele>278</ele>
        <time>2017-10-11T13:13:37Z</time>
      </trkpt>
      <trkpt lat="47.35725" lon="6.40077">
        <ele>277</ele>
        <time>2017-10-11T13:13:39Z</time>
      </trkpt>
      <trkpt lat="47.3573" lon="6.40057">
        <ele>277</ele>
        <time>2017-10-11T13:13:41Z</time>
      </trkpt>
      <trkpt lat="47.35736" lon="6.40036">
        <ele>277</ele>
        <time>2017-10-11T13:13:43Z</time>
      </trkpt>
      <trkpt lat="47.3574" lon="6.40015">
        <ele>275</ele>
        <time>2017-10-11T13:13:45Z</time>
      </trkpt>
      <trkpt lat="47.35744" lon="6.39996">
        <ele>271</ele>
        <time>2017-10-11T13:13:47Z</time>
      </trkpt>
      <trkpt lat="47.35746" lon="6.39978">
        <ele>274</ele>
        <time>2017-10-11T13:13:49Z</time>
      </trkpt>
      <trkpt lat="47.35746" lon="6.39959">
        <ele>275</ele>
        <time>2017-10-11T13:13:51Z</time>
      </trkpt>
      <trkpt lat="47.35744" lon="6.3994">
        <ele>273</ele>
        <time>2017-10-11T13:13:53Z</time>
      </trkpt>
      <trkpt lat="47.35745" lon="6.39922">
        <ele>270</ele>
        <time>2017-10-11T13:13:55Z</time>
      </trkpt>
      <trkpt lat="47.35752" lon="6.39904">
        <ele>268</ele>
        <time>2017-10-11T13:13:57Z</time>
      </trkpt>
      <trkpt lat="47.35759" lon="6.39886">
        <ele>268</ele>
        <time>2017-10-11T13:13:59Z</time>
      </trkpt>
      <trkpt lat="47.35762" lon="6.39866">
        <ele>268</ele>
        <time>2017-10-11T13:14:01Z</time>
      </trkpt>
      <trkpt lat="47.35762" lon="6.39843">
        <ele>266</ele>
        <time>2017-10-11T13:14:03Z</time>
      </trkpt>
      <trkpt lat="47.3576" lon="6.39817">
        <ele>267</ele>
        <time>2017-10-11T13:14:05Z</time>
      </trkpt>
      <trkpt lat="47.3576" lon="6.39794">
        <ele>269</ele>
        <time>2017-10-11T13:14:07Z</time>
      </trkpt>
      <trkpt lat="47.3576" lon="6.39772">
        <ele>268</ele>
        <time>2017-10-11T13:14:09Z</time>
      </trkpt>
      <trkpt lat="47.3576" lon="6.3975">
        <ele>266</ele>
        <time>2017-10-11T13:14:11Z</time>
      </trkpt>
      <trkpt lat="47.35759" lon="6.39728">
        <ele>269</ele>
        <time>2017-10-11T13:14:13Z</time>
      </trkpt>
      <trkpt lat="47.35758" lon="6.39707">
        <ele>270</ele>
        <time>2017-10-11T13:14:15Z</time>
      </trkpt>
      <trkpt lat="47.35756" lon="6.39687">
        <ele>269</ele>
        <time>2017-10-11T13:14:17Z</time>
      </trkpt>
      <trkpt lat="47.35755" lon="6.39667">
        <ele>267</ele>
        <time>2017-10-11T13:14:19Z</time>
      </trkpt>
      <trkpt lat="47.35753" lon="6.39646">
        <ele>269</ele>
        <time>2017-10-11T13:14:21Z</time>
      </trkpt>
      <trkpt lat="47.35751" lon="6.39624">
        <ele>271</ele>
        <time>2017-10-11T13:14:23Z</time>
      </trkpt>
      <trkpt lat="47.35748" lon="6.39603">
        <ele>268</ele>
        <time>2017-10-11T13:14:25Z</time>
      </trkpt>
      <trkpt lat="47.35745" lon="6.39582">
        <ele>267</ele>
        <time>2017-10-11T13:14:27Z</time>
      </trkpt>
      <trkpt lat="47.3574" lon="6.39562">
        <ele>267</ele>
        <time>2017-10-11T13:14:29Z</time>
      </trkpt>
      <trkpt lat="47.35735" lon="6.39541">
        <ele>267</ele>
        <time>2017-10-11T13:14:31Z</time>
      </trkpt>
      <trkpt lat="47.35731" lon="6.39521">
        <ele>267</ele>
        <time>2017-10-11T13:14:33Z</time>
      </trkpt>
      <trkpt lat="47.35726" lon="6.39502">
        <ele>267</ele>
        <time>2017-10-11T13:14:35Z</time>
      </trkpt>
      <trkpt lat="47.3572" lon="6.39483">
        <ele>267</ele>
        <time>2017-10-11T13:14:37Z</time>
      </trkpt>
      <trkpt lat="47.35712" lon="6.39464">
        <ele>267</ele>
        <time>2017-10-11T13:14:39Z</time>
      </trkpt>
      <trkpt lat="47.35704" lon="6.39445">
        <ele>268</ele>
        <time>2017-10-11T13:14:41Z</time>
      </trkpt>
      <trkpt lat="47.35695" lon="6.39427">
        <ele>267</ele>
        <time>2017-10-11T13:14:43Z</time>
      </trkpt>
      <trkpt lat="47.35686" lon="6.3941">
        <ele>268</ele>
        <time>2017-10-11T13:14:45Z</time>
      </trkpt>
      <trkpt lat="47.35675" lon="6.39394">
        <ele>269</ele>
        <time>2017-10-11T13:14:47Z</time>
      </trkpt>
      <trkpt lat="47.35664" lon="6.39378">
        <ele>268</ele>
        <time>2017-10-11T13:14:49Z</time>
      </trkpt>
      <trkpt lat="47.35653" lon="6.39363">
        <ele>269</ele>
        <time>2017-10-11T13:14:51Z</time>
      </trkpt>
      <trkpt lat="47.35642" lon="6.39349">
        <ele>269</ele>
        <time>2017-10-11T13:14:53Z</time>
      </trkpt>
      <trkpt lat="47.3563" lon="6.39335">
        <ele>269</ele>
        <time>2017-10-11T13:14:55Z</time>
      </trkpt>
      <trkpt lat="47.35619" lon="6.39323">
        <ele>269</ele>
        <time>2017-10-11T13:14:57Z</time>
      </trkpt>
      <trkpt lat="47.35608" lon="6.3931">
        <ele>269</ele>
        <time>2017-10-11T13:14:59Z</time>
      </trkpt>
      <trkpt lat="47.35597" lon="6.39298">
        <ele>269</ele>
        <time>2017-10-11T13:15:01Z</time>
      </trkpt>
      <trkpt lat="47.35586" lon="6.39288">
        <ele>269</ele>
        <time>2017-10-11T13:15:03Z</time>
      </trkpt>
      <trkpt lat="47.35576" lon="6.39278">
        <ele>271</ele>
        <time>2017-10-11T13:15:05Z</time>
      </trkpt>
      <trkpt lat="47.35566" lon="6.39267">
        <ele>271</ele>
        <time>2017-10-11T13:15:07Z</time>
      </trkpt>
      <trkpt lat="47.35557" lon="6.39255">
        <ele>272</ele>
        <time>2017-10-11T13:15:09Z</time>
      </trkpt>
      <trkpt lat="47.35547" lon="6.39245">
        <ele>272</ele>
        <time>2017-10-11T13:15:11Z</time>
      </trkpt>
      <trkpt lat="47.35538" lon="6.39236">
        <ele>273</ele>
        <time>2017-10-11T13:15:13Z</time>
      </trkpt>
      <trkpt lat="47.35528" lon="6.39226">
        <ele>274</ele>
        <time>2017-10-11T13:15:15Z</time>
      </trkpt>
      <trkpt lat="47.35518" lon="6.39217">
        <ele>274</ele>
        <time>2017-10-11T13:15:17Z</time>
      </trkpt>
      <trkpt lat="47.35508" lon="6.39208">
        <ele>273</ele>
        <time>2017-10-11T13:15:19Z</time>
      </trkpt>
      <trkpt lat="47.35496" lon="6.39198">
        <ele>282</ele>
        <time>2017-10-11T13:15:21Z</time>
      </trkpt>
      <trkpt lat="47.35484" lon="6.39189">
        <ele>282</ele>
        <time>2017-10-11T13:15:23Z</time>
      </trkpt>
      <trkpt lat="47.35471" lon="6.3918">
        <ele>284</ele>
        <time>2017-10-11T13:15:25Z</time>
      </trkpt>
      <trkpt lat="47.35458" lon="6.39171">
        <ele>286</ele>
        <time>2017-10-11T13:15:27Z</time>
      </trkpt>
      <trkpt lat="47.35445" lon="6.39161">
        <ele>282</ele>
        <time>2017-10-11T13:15:29Z</time>
      </trkpt>
      <trkpt lat="47.35435" lon="6.39149">
        <ele>283</ele>
        <time>2017-10-11T13:15:31Z</time>
      </trkpt>
      <trkpt lat="47.35426" lon="6.39136">
        <ele>282</ele>
        <time>2017-10-11T13:15:33Z</time>
      </trkpt>
      <trkpt lat="47.35417" lon="6.39122">
        <ele>281</ele>
        <time>2017-10-11T13:15:35Z</time>
      </trkpt>
      <trkpt lat="47.35409" lon="6.3911">
        <ele>297</ele>
        <time>2017-10-11T13:15:37Z</time>
      </trkpt>
      <trkpt lat="47.35402" lon="6.39099">
        <ele>295</ele>
        <time>2017-10-11T13:15:40Z</time>
      </trkpt>
      <trkpt lat="47.354" lon="6.39112">
        <ele>299</ele>
        <time>2017-10-11T13:15:54Z</time>
      </trkpt>
      <trkpt lat="47.35407" lon="6.39124">
        <ele>300</ele>
        <time>2017-10-11T13:17:18Z</time>
      </trkpt>
      <trkpt lat="47.35413" lon="6.39138">
        <ele>301</ele>
        <time>2017-10-11T13:17:22Z</time>
      </trkpt>
      <trkpt lat="47.35419" lon="6.39153">
        <ele>287</ele>
        <time>2017-10-11T13:17:25Z</time>
      </trkpt>
      <trkpt lat="47.35428" lon="6.39165">
        <ele>288</ele>
        <time>2017-10-11T13:17:28Z</time>
      </trkpt>
      <trkpt lat="47.35436" lon="6.39174">
        <ele>291</ele>
        <time>2017-10-11T13:17:31Z</time>
      </trkpt>
      <trkpt lat="47.35445" lon="6.39181">
        <ele>289</ele>
        <time>2017-10-11T13:17:35Z</time>
      </trkpt>
      <trkpt lat="47.35454" lon="6.39189">
        <ele>288</ele>
        <time>2017-10-11T13:17:39Z</time>
      </trkpt>
      <trkpt lat="47.35464" lon="6.39196">
        <ele>287</ele>
        <time>2017-10-11T13:17:43Z</time>
      </trkpt>
      <trkpt lat="47.35473" lon="6.392">
        <ele>286</ele>
        <time>2017-10-11T13:17:47Z</time>
      </trkpt>
      <trkpt lat="47.35466" lon="6.39187">
        <ele>285</ele>
        <time>2017-10-11T13:17:55Z</time>
      </trkpt>
      <trkpt lat="47.35458" lon="6.39177">
        <ele>287</ele>
        <time>2017-10-11T13:17:58Z</time>
      </trkpt>
      <trkpt lat="47.35448" lon="6.39167">
        <ele>288</ele>
        <time>2017-10-11T13:18:01Z</time>
      </trkpt>
      <trkpt lat="47.35439" lon="6.39156">
        <ele>283</ele>
        <time>2017-10-11T13:18:04Z</time>
      </trkpt>
      <trkpt lat="47.35431" lon="6.39145">
        <ele>283</ele>
        <time>2017-10-11T13:18:07Z</time>
      </trkpt>
      <trkpt lat="47.35424" lon="6.39131">
        <ele>282</ele>
        <time>2017-10-11T13:18:10Z</time>
      </trkpt>
      <trkpt lat="47.35416" lon="6.3912">
        <ele>299</ele>
        <time>2017-10-11T13:18:13Z</time>
      </trkpt>
      <trkpt lat="47.35404" lon="6.391">
        <ele>295</ele>
        <time>2017-10-11T13:18:21Z</time>
      </trkpt>
      <trkpt lat="47.35395" lon="6.39094">
        <ele>296</ele>
        <time>2017-10-11T13:19:37Z</time>
      </trkpt>
      <trkpt lat="47.3539" lon="6.3908">
        <ele>287</ele>
        <time>2017-10-11T13:19:41Z</time>
      </trkpt>
      <trkpt lat="47.35383" lon="6.39068">
        <ele>289</ele>
        <time>2017-10-11T13:19:44Z</time>
      </trkpt>
      <trkpt lat="47.35373" lon="6.39055">
        <ele>290</ele>
        <time>2017-10-11T13:19:47Z</time>
      </trkpt>
      <trkpt lat="47.35366" lon="6.39045">
        <ele>290</ele>
        <time>2017-10-11T13:19:49Z</time>
      </trkpt>
      <trkpt lat="47.3536" lon="6.39035">
        <ele>290</ele>
        <time>2017-10-11T13:19:51Z</time>
      </trkpt>
      <trkpt lat="47.35353" lon="6.39026">
        <ele>290</ele>
        <time>2017-10-11T13:19:53Z</time>
      </trkpt>
      <trkpt lat="47.35346" lon="6.39017">
        <ele>290</ele>
        <time>2017-10-11T13:19:55Z</time>
      </trkpt>
      <trkpt lat="47.3534" lon="6.39006">
        <ele>290</ele>
        <time>2017-10-11T13:19:57Z</time>
      </trkpt>
      <trkpt lat="47.35327" lon="6.38985">
        <ele>292</ele>
        <time>2017-10-11T13:20:01Z</time>
      </trkpt>
      <trkpt lat="47.3532" lon="6.38975">
        <ele>292</ele>
        <time>2017-10-11T13:20:03Z</time>
      </trkpt>
      <trkpt lat="47.35313" lon="6.38964">
        <ele>292</ele>
        <time>2017-10-11T13:20:05Z</time>
      </trkpt>
      <trkpt lat="47.35305" lon="6.38954">
        <ele>292</ele>
        <time>2017-10-11T13:20:07Z</time>
      </trkpt>
      <trkpt lat="47.35296" lon="6.38943">
        <ele>291</ele>
        <time>2017-10-11T13:20:09Z</time>
      </trkpt>
      <trkpt lat="47.35289" lon="6.38932">
        <ele>291</ele>
        <time>2017-10-11T13:20:11Z</time>
      </trkpt>
      <trkpt lat="47.35283" lon="6.3892">
        <ele>291</ele>
        <time>2017-10-11T13:20:13Z</time>
      </trkpt>
      <trkpt lat="47.35278" lon="6.38908">
        <ele>280</ele>
        <time>2017-10-11T13:20:15Z</time>
      </trkpt>
      <trkpt lat="47.35273" lon="6.38896">
        <ele>280</ele>
        <time>2017-10-11T13:20:17Z</time>
      </trkpt>
      <trkpt lat="47.35269" lon="6.3888">
        <ele>278</ele>
        <time>2017-10-11T13:20:20Z</time>
      </trkpt>
      <trkpt lat="47.35262" lon="6.38863">
        <ele>276</ele>
        <time>2017-10-11T13:20:23Z</time>
      </trkpt>
      <trkpt lat="47.35256" lon="6.38849">
        <ele>274</ele>
        <time>2017-10-11T13:20:25Z</time>
      </trkpt>
      <trkpt lat="47.35251" lon="6.38834">
        <ele>272</ele>
        <time>2017-10-11T13:20:27Z</time>
      </trkpt>
      <trkpt lat="47.35246" lon="6.38819">
        <ele>275</ele>
        <time>2017-10-11T13:20:29Z</time>
      </trkpt>
      <trkpt lat="47.3524" lon="6.38805">
        <ele>277</ele>
        <time>2017-10-11T13:20:31Z</time>
      </trkpt>
      <trkpt lat="47.35233" lon="6.3879">
        <ele>277</ele>
        <time>2017-10-11T13:20:33Z</time>
      </trkpt>
      <trkpt lat="47.35226" lon="6.38773">
        <ele>276</ele>
        <time>2017-10-11T13:20:35Z</time>
      </trkpt>
      <trkpt lat="47.35219" lon="6.38755">
        <ele>277</ele>
        <time>2017-10-11T13:20:37Z</time>
      </trkpt>
      <trkpt lat="47.35212" lon="6.38738">
        <ele>274</ele>
        <time>2017-10-11T13:20:39Z</time>
      </trkpt>
      <trkpt lat="47.35206" lon="6.38721">
        <ele>275</ele>
        <time>2017-10-11T13:20:41Z</time>
      </trkpt>
      <trkpt lat="47.35202" lon="6.38702">
        <ele>275</ele>
        <time>2017-10-11T13:20:43Z</time>
      </trkpt>
      <trkpt lat="47.35199" lon="6.38683">
        <ele>275</ele>
        <time>2017-10-11T13:20:45Z</time>
      </trkpt>
      <trkpt lat="47.35196" lon="6.38664">
        <ele>273</ele>
        <time>2017-10-11T13:20:47Z</time>
      </trkpt>
      <trkpt lat="47.35193" lon="6.38646">
        <ele>273</ele>
        <time>2017-10-11T13:20:49Z</time>
      </trkpt>
      <trkpt lat="47.35189" lon="6.38627">
        <ele>272</ele>
        <time>2017-10-11T13:20:51Z</time>
      </trkpt>
      <trkpt lat="47.35185" lon="6.38609">
        <ele>272</ele>
        <time>2017-10-11T13:20:53Z</time>
      </trkpt>
      <trkpt lat="47.35182" lon="6.38591">
        <ele>272</ele>
        <time>2017-10-11T13:20:55Z</time>
      </trkpt>
      <trkpt lat="47.3518" lon="6.38575">
        <ele>272</ele>
        <time>2017-10-11T13:20:57Z</time>
      </trkpt>
      <trkpt lat="47.3518" lon="6.38557">
        <ele>272</ele>
        <time>2017-10-11T13:20:59Z</time>
      </trkpt>
      <trkpt lat="47.35178" lon="6.3854">
        <ele>272</ele>
        <time>2017-10-11T13:21:01Z</time>
      </trkpt>
      <trkpt lat="47.35177" lon="6.38523">
        <ele>274</ele>
        <time>2017-10-11T13:21:03Z</time>
      </trkpt>
      <trkpt lat="47.35177" lon="6.38505">
        <ele>275</ele>
        <time>2017-10-11T13:21:05Z</time>
      </trkpt>
      <trkpt lat="47.35178" lon="6.38488">
        <ele>276</ele>
        <time>2017-10-11T13:21:07Z</time>
      </trkpt>
      <trkpt lat="47.3518" lon="6.38471">
        <ele>276</ele>
        <time>2017-10-11T13:21:09Z</time>
      </trkpt>
      <trkpt lat="47.35183" lon="6.38452">
        <ele>276</ele>
        <time>2017-10-11T13:21:11Z</time>
      </trkpt>
      <trkpt lat="47.35186" lon="6.38433">
        <ele>277</ele>
        <time>2017-10-11T13:21:13Z</time>
      </trkpt>
      <trkpt lat="47.35189" lon="6.38415">
        <ele>279</ele>
        <time>2017-10-11T13:21:15Z</time>
      </trkpt>
      <trkpt lat="47.35192" lon="6.38397">
        <ele>279</ele>
        <time>2017-10-11T13:21:17Z</time>
      </trkpt>
      <trkpt lat="47.35194" lon="6.38379">
        <ele>279</ele>
        <time>2017-10-11T13:21:19Z</time>
      </trkpt>
      <trkpt lat="47.35196" lon="6.38361">
        <ele>279</ele>
        <time>2017-10-11T13:21:21Z</time>
      </trkpt>
      <trkpt lat="47.35199" lon="6.38344">
        <ele>280</ele>
        <time>2017-10-11T13:21:23Z</time>
      </trkpt>
      <trkpt lat="47.35201" lon="6.38327">
        <ele>284</ele>
        <time>2017-10-11T13:21:25Z</time>
      </trkpt>
      <trkpt lat="47.35205" lon="6.38309">
        <ele>284</ele>
        <time>2017-10-11T13:21:27Z</time>
      </trkpt>
      <trkpt lat="47.35207" lon="6.38291">
        <ele>285</ele>
        <time>2017-10-11T13:21:29Z</time>
      </trkpt>
      <trkpt lat="47.3521" lon="6.38272">
        <ele>286</ele>
        <time>2017-10-11T13:21:31Z</time>
      </trkpt>
      <trkpt lat="47.35214" lon="6.38253">
        <ele>285</ele>
        <time>2017-10-11T13:21:33Z</time>
      </trkpt>
      <trkpt lat="47.35217" lon="6.38235">
        <ele>292</ele>
        <time>2017-10-11T13:21:35Z</time>
      </trkpt>
      <trkpt lat="47.35219" lon="6.38217">
        <ele>293</ele>
        <time>2017-10-11T13:21:37Z</time>
      </trkpt>
      <trkpt lat="47.3522" lon="6.382">
        <ele>294</ele>
        <time>2017-10-11T13:21:39Z</time>
      </trkpt>
      <trkpt lat="47.35222" lon="6.38183">
        <ele>294</ele>
        <time>2017-10-11T13:21:41Z</time>
      </trkpt>
      <trkpt lat="47.35223" lon="6.38166">
        <ele>299</ele>
        <time>2017-10-11T13:21:43Z</time>
      </trkpt>
      <trkpt lat="47.35225" lon="6.38148">
        <ele>300</ele>
        <time>2017-10-11T13:21:45Z</time>
      </trkpt>
      <trkpt lat="47.35228" lon="6.38131">
        <ele>302</ele>
        <time>2017-10-11T13:21:47Z</time>
      </trkpt>
      <trkpt lat="47.35231" lon="6.38114">
        <ele>301</ele>
        <time>2017-10-11T13:21:49Z</time>
      </trkpt>
      <trkpt lat="47.35234" lon="6.38097">
        <ele>299</ele>
        <time>2017-10-11T13:21:51Z</time>
      </trkpt>
      <trkpt lat="47.35236" lon="6.3808">
        <ele>299</ele>
        <time>2017-10-11T13:21:53Z</time>
      </trkpt>
      <trkpt lat="47.35239" lon="6.38064">
        <ele>303</ele>
        <time>2017-10-11T13:21:55Z</time>
      </trkpt>
      <trkpt lat="47.35241" lon="6.38049">
        <ele>305</ele>
        <time>2017-10-11T13:21:57Z</time>
      </trkpt>
      <trkpt lat="47.35244" lon="6.38033">
        <ele>306</ele>
        <time>2017-10-11T13:21:59Z</time>
      </trkpt>
      <trkpt lat="47.35246" lon="6.38016">
        <ele>303</ele>
        <time>2017-10-11T13:22:01Z</time>
      </trkpt>
      <trkpt lat="47.35248" lon="6.37998">
        <ele>296</ele>
        <time>2017-10-11T13:22:03Z</time>
      </trkpt>
      <trkpt lat="47.35251" lon="6.3798">
        <ele>289</ele>
        <time>2017-10-11T13:22:05Z</time>
      </trkpt>
      <trkpt lat="47.35255" lon="6.37962">
        <ele>287</ele>
        <time>2017-10-11T13:22:07Z</time>
      </trkpt>
      <trkpt lat="47.35257" lon="6.37945">
        <ele>287</ele>
        <time>2017-10-11T13:22:09Z</time>
      </trkpt>
      <trkpt lat="47.3526" lon="6.37928">
        <ele>288</ele>
        <time>2017-10-11T13:22:11Z</time>
      </trkpt>
      <trkpt lat="47.35263" lon="6.37911">
        <ele>288</ele>
        <time>2017-10-11T13:22:13Z</time>
      </trkpt>
      <trkpt lat="47.35267" lon="6.37894">
        <ele>285</ele>
        <time>2017-10-11T13:22:15Z</time>
      </trkpt>
      <trkpt lat="47.35272" lon="6.37877">
        <ele>284</ele>
        <time>2017-10-11T13:22:17Z</time>
      </trkpt>
      <trkpt lat="47.35278" lon="6.3786">
        <ele>283</ele>
        <time>2017-10-11T13:22:19Z</time>
      </trkpt>
      <trkpt lat="47.35281" lon="6.37844">
        <ele>282</ele>
        <time>2017-10-11T13:22:21Z</time>
      </trkpt>
      <trkpt lat="47.35283" lon="6.37828">
        <ele>277</ele>
        <time>2017-10-11T13:22:23Z</time>
      </trkpt>
      <trkpt lat="47.35285" lon="6.37811">
        <ele>277</ele>
        <time>2017-10-11T13:22:25Z</time>
      </trkpt>
      <trkpt lat="47.35286" lon="6.37794">
        <ele>276</ele>
        <time>2017-10-11T13:22:27Z</time>
      </trkpt>
      <trkpt lat="47.35287" lon="6.37775">
        <ele>275</ele>
        <time>2017-10-11T13:22:29Z</time>
      </trkpt>
      <trkpt lat="47.35288" lon="6.37756">
        <ele>274</ele>
        <time>2017-10-11T13:22:31Z</time>
      </trkpt>
      <trkpt lat="47.35288" lon="6.37738">
        <ele>270</ele>
        <time>2017-10-11T13:22:33Z</time>
      </trkpt>
      <trkpt lat="47.35288" lon="6.3772">
        <ele>270</ele>
        <time>2017-10-11T13:22:35Z</time>
      </trkpt>
      <trkpt lat="47.35287" lon="6.37702">
        <ele>270</ele>
        <time>2017-10-11T13:22:37Z</time>
      </trkpt>
      <trkpt lat="47.35285" lon="6.37682">
        <ele>269</ele>
        <time>2017-10-11T13:22:39Z</time>
      </trkpt>
      <trkpt lat="47.35283" lon="6.37663">
        <ele>268</ele>
        <time>2017-10-11T13:22:41Z</time>
      </trkpt>
      <trkpt lat="47.3528" lon="6.37644">
        <ele>268</ele>
        <time>2017-10-11T13:22:43Z</time>
      </trkpt>
      <trkpt lat="47.35277" lon="6.37626">
        <ele>267</ele>
        <time>2017-10-11T13:22:45Z</time>
      </trkpt>
      <trkpt lat="47.35274" lon="6.37607">
        <ele>267</ele>
        <time>2017-10-11T13:22:47Z</time>
      </trkpt>
      <trkpt lat="47.35272" lon="6.37589">
        <ele>267</ele>
        <time>2017-10-11T13:22:49Z</time>
      </trkpt>
      <trkpt lat="47.35269" lon="6.3757">
        <ele>267</ele>
        <time>2017-10-11T13:22:51Z</time>
      </trkpt>
      <trkpt lat="47.35265" lon="6.37552">
        <ele>266</ele>
        <time>2017-10-11T13:22:53Z</time>
      </trkpt>
      <trkpt lat="47.35261" lon="6.37534">
        <ele>266</ele>
        <time>2017-10-11T13:22:55Z</time>
      </trkpt>
      <trkpt lat="47.35256" lon="6.37517">
        <ele>266</ele>
        <time>2017-10-11T13:22:57Z</time>
      </trkpt>
      <trkpt lat="47.3525" lon="6.375">
        <ele>266</ele>
        <time>2017-10-11T13:22:59Z</time>
      </trkpt>
      <trkpt lat="47.35243" lon="6.37484">
        <ele>266</ele>
        <time>2017-10-11T13:23:01Z</time>
      </trkpt>
      <trkpt lat="47.35236" lon="6.37468">
        <ele>266</ele>
        <time>2017-10-11T13:23:03Z</time>
      </trkpt>
      <trkpt lat="47.35227" lon="6.37453">
        <ele>266</ele>
        <time>2017-10-11T13:23:05Z</time>
      </trkpt>
      <trkpt lat="47.35219" lon="6.37438">
        <ele>266</ele>
        <time>2017-10-11T13:23:07Z</time>
      </trkpt>
      <trkpt lat="47.35212" lon="6.37423">
        <ele>266</ele>
        <time>2017-10-11T13:23:09Z</time>
      </trkpt>
      <trkpt lat="47.35204" lon="6.37408">
        <ele>265</ele>
        <time>2017-10-11T13:23:11Z</time>
      </trkpt>
      <trkpt lat="47.35196" lon="6.37394">
        <ele>265</ele>
        <time>2017-10-11T13:23:13Z</time>
      </trkpt>
      <trkpt lat="47.35188" lon="6.3738">
        <ele>265</ele>
        <time>2017-10-11T13:23:15Z</time>
      </trkpt>
      <trkpt lat="47.3518" lon="6.37367">
        <ele>265</ele>
        <time>2017-10-11T13:23:17Z</time>
      </trkpt>
      <trkpt lat="47.3517" lon="6.37356">
        <ele>265</ele>
        <time>2017-10-11T13:23:19Z</time>
      </trkpt>
      <trkpt lat="47.35159" lon="6.37348">
        <ele>266</ele>
        <time>2017-10-11T13:23:21Z</time>
      </trkpt>
      <trkpt lat="47.35149" lon="6.37341">
        <ele>266</ele>
        <time>2017-10-11T13:23:23Z</time>
      </trkpt>
      <trkpt lat="47.35138" lon="6.37337">
        <ele>266</ele>
        <time>2017-10-11T13:23:25Z</time>
      </trkpt>
      <trkpt lat="47.35126" lon="6.37341">
        <ele>266</ele>
        <time>2017-10-11T13:23:27Z</time>
      </trkpt>
      <trkpt lat="47.35117" lon="6.3735">
        <ele>267</ele>
        <time>2017-10-11T13:23:29Z</time>
      </trkpt>
      <trkpt lat="47.35108" lon="6.3736">
        <ele>267</ele>
        <time>2017-10-11T13:23:31Z</time>
      </trkpt>
      <trkpt lat="47.35099" lon="6.37367">
        <ele>267</ele>
        <time>2017-10-11T13:23:33Z</time>
      </trkpt>
      <trkpt lat="47.35087" lon="6.37358">
        <ele>267</ele>
        <time>2017-10-11T13:23:36Z</time>
      </trkpt>
      <trkpt lat="47.35077" lon="6.37346">
        <ele>268</ele>
        <time>2017-10-11T13:23:38Z</time>
      </trkpt>
      <trkpt lat="47.35065" lon="6.37338">
        <ele>268</ele>
        <time>2017-10-11T13:23:40Z</time>
      </trkpt>
      <trkpt lat="47.35051" lon="6.37338">
        <ele>269</ele>
        <time>2017-10-11T13:23:42Z</time>
      </trkpt>
      <trkpt lat="47.35036" lon="6.37345">
        <ele>269</ele>
        <time>2017-10-11T13:23:44Z</time>
      </trkpt>
      <trkpt lat="47.3502" lon="6.37352">
        <ele>270</ele>
        <time>2017-10-11T13:23:46Z</time>
      </trkpt>
      <trkpt lat="47.35005" lon="6.37357">
        <ele>270</ele>
        <time>2017-10-11T13:23:48Z</time>
      </trkpt>
      <trkpt lat="47.3499" lon="6.37363">
        <ele>270</ele>
        <time>2017-10-11T13:23:50Z</time>
      </trkpt>
      <trkpt lat="47.34976" lon="6.3737">
        <ele>270</ele>
        <time>2017-10-11T13:23:52Z</time>
      </trkpt>
      <trkpt lat="47.34963" lon="6.37376">
        <ele>270</ele>
        <time>2017-10-11T13:23:54Z</time>
      </trkpt>
      <trkpt lat="47.34949" lon="6.37381">
        <ele>269</ele>
        <time>2017-10-11T13:23:56Z</time>
      </trkpt>
      <trkpt lat="47.34936" lon="6.37387">
        <ele>269</ele>
        <time>2017-10-11T13:23:58Z</time>
      </trkpt>
      <trkpt lat="47.34924" lon="6.37392">
        <ele>269</ele>
        <time>2017-10-11T13:24:00Z</time>
      </trkpt>
      <trkpt lat="47.34911" lon="6.37397">
        <ele>269</ele>
        <time>2017-10-11T13:24:02Z</time>
      </trkpt>
      <trkpt lat="47.34899" lon="6.374">
        <ele>269</ele>
        <time>2017-10-11T13:24:04Z</time>
      </trkpt>
      <trkpt lat="47.34886" lon="6.37403">
        <ele>269</ele>
        <time>2017-10-11T13:24:06Z</time>
      </trkpt>
      <trkpt lat="47.34873" lon="6.37408">
        <ele>270</ele>
        <time>2017-10-11T13:24:08Z</time>
      </trkpt>
      <trkpt lat="47.3486" lon="6.37411">
        <ele>270</ele>
        <time>2017-10-11T13:24:10Z</time>
      </trkpt>
      <trkpt lat="47.34846" lon="6.37414">
        <ele>271</ele>
        <time>2017-10-11T13:24:12Z</time>
      </trkpt>
      <trkpt lat="47.34832" lon="6.37416">
        <ele>272</ele>
        <time>2017-10-11T13:24:14Z</time>
      </trkpt>
      <trkpt lat="47.34818" lon="6.37417">
        <ele>276</ele>
        <time>2017-10-11T13:24:16Z</time>
      </trkpt>
      <trkpt lat="47.34804" lon="6.37416">
        <ele>271</ele>
        <time>2017-10-11T13:24:18Z</time>
      </trkpt>
      <trkpt lat="47.3479" lon="6.37416">
        <ele>271</ele>
        <time>2017-10-11T13:24:20Z</time>
      </trkpt>
      <trkpt lat="47.34775" lon="6.37415">
        <ele>271</ele>
        <time>2017-10-11T13:24:22Z</time>
      </trkpt>
      <trkpt lat="47.34761" lon="6.37413">
        <ele>271</ele>
        <time>2017-10-11T13:24:24Z</time>
      </trkpt>
      <trkpt lat="47.34747" lon="6.37413">
        <ele>272</ele>
        <time>2017-10-11T13:24:26Z</time>
      </trkpt>
      <trkpt lat="47.34733" lon="6.37414">
        <ele>271</ele>
        <time>2017-10-11T13:24:28Z</time>
      </trkpt>
      <trkpt lat="47.3472" lon="6.37413">
        <ele>271</ele>
        <time>2017-10-11T13:24:30Z</time>
      </trkpt>
      <trkpt lat="47.34707" lon="6.37412">
        <ele>271</ele>
        <time>2017-10-11T13:24:32Z</time>
      </trkpt>
      <trkpt lat="47.34694" lon="6.37409">
        <ele>271</ele>
        <time>2017-10-11T13:24:34Z</time>
      </trkpt>
      <trkpt lat="47.34681" lon="6.37407">
        <ele>271</ele>
        <time>2017-10-11T13:24:36Z</time>
      </trkpt>
      <trkpt lat="47.34669" lon="6.37406">
        <ele>271</ele>
        <time>2017-10-11T13:24:38Z</time>
      </trkpt>
      <trkpt lat="47.34657" lon="6.37405">
        <ele>271</ele>
        <time>2017-10-11T13:24:40Z</time>
      </trkpt>
      <trkpt lat="47.34646" lon="6.37402">
        <ele>271</ele>
        <time>2017-10-11T13:24:42Z</time>
      </trkpt>
      <trkpt lat="47.34634" lon="6.37399">
        <ele>271</ele>
        <time>2017-10-11T13:24:44Z</time>
      </trkpt>
      <trkpt lat="47.34623" lon="6.37394">
        <ele>271</ele>
        <time>2017-10-11T13:24:46Z</time>
      </trkpt>
      <trkpt lat="47.34611" lon="6.37389">
        <ele>271</ele>
        <time>2017-10-11T13:24:48Z</time>
      </trkpt>
      <trkpt lat="47.346" lon="6.37383">
        <ele>271</ele>
        <time>2017-10-11T13:24:50Z</time>
      </trkpt>
      <trkpt lat="47.34588" lon="6.37379">
        <ele>270</ele>
        <time>2017-10-11T13:24:52Z</time>
      </trkpt>
      <trkpt lat="47.34577" lon="6.37376">
        <ele>271</ele>
        <time>2017-10-11T13:24:54Z</time>
      </trkpt>
      <trkpt lat="47.34567" lon="6.37374">
        <ele>271</ele>
        <time>2017-10-11T13:24:56Z</time>
      </trkpt>
      <trkpt lat="47.34557" lon="6.37372">
        <ele>271</ele>
        <time>2017-10-11T13:24:58Z</time>
      </trkpt>
      <trkpt lat="47.34546" lon="6.37372">
        <ele>271</ele>
        <time>2017-10-11T13:25:00Z</time>
      </trkpt>
      <trkpt lat="47.34535" lon="6.3737">
        <ele>271</ele>
        <time>2017-10-11T13:25:02Z</time>
      </trkpt>
      <trkpt lat="47.34523" lon="6.37368">
        <ele>270</ele>
        <time>2017-10-11T13:25:04Z</time>
      </trkpt>
      <trkpt lat="47.34511" lon="6.37367">
        <ele>270</ele>
        <time>2017-10-11T13:25:06Z</time>
      </trkpt>
      <trkpt lat="47.34499" lon="6.37366">
        <ele>269</ele>
        <time>2017-10-11T13:25:08Z</time>
      </trkpt>
      <trkpt lat="47.34488" lon="6.37366">
        <ele>269</ele>
        <time>2017-10-11T13:25:10Z</time>
      </trkpt>
      <trkpt lat="47.34479" lon="6.37366">
        <ele>269</ele>
        <time>2017-10-11T13:25:12Z</time>
      </trkpt>
      <trkpt lat="47.34468" lon="6.37367">
        <ele>269</ele>
        <time>2017-10-11T13:25:14Z</time>
      </trkpt>
      <trkpt lat="47.34456" lon="6.37368">
        <ele>269</ele>
        <time>2017-10-11T13:25:16Z</time>
      </trkpt>
      <trkpt lat="47.34444" lon="6.37371">
        <ele>269</ele>
        <time>2017-10-11T13:25:18Z</time>
      </trkpt>
      <trkpt lat="47.34431" lon="6.37373">
        <ele>269</ele>
        <time>2017-10-11T13:25:20Z</time>
      </trkpt>
      <trkpt lat="47.34418" lon="6.37376">
        <ele>269</ele>
        <time>2017-10-11T13:25:22Z</time>
      </trkpt>
      <trkpt lat="47.34404" lon="6.37378">
        <ele>267</ele>
        <time>2017-10-11T13:25:24Z</time>
      </trkpt>
      <trkpt lat="47.3439" lon="6.37381">
        <ele>267</ele>
        <time>2017-10-11T13:25:26Z</time>
      </trkpt>
      <trkpt lat="47.34374" lon="6.37385">
        <ele>267</ele>
        <time>2017-10-11T13:25:28Z</time>
      </trkpt>
      <trkpt lat="47.34359" lon="6.37389">
        <ele>267</ele>
        <time>2017-10-11T13:25:30Z</time>
      </trkpt>
      <trkpt lat="47.34343" lon="6.37394">
        <ele>267</ele>
        <time>2017-10-11T13:25:32Z</time>
      </trkpt>
      <trkpt lat="47.34328" lon="6.37398">
        <ele>266</ele>
        <time>2017-10-11T13:25:34Z</time>
      </trkpt>
      <trkpt lat="47.34315" lon="6.374">
        <ele>266</ele>
        <time>2017-10-11T13:25:36Z</time>
      </trkpt>
      <trkpt lat="47.34303" lon="6.37399">
        <ele>265</ele>
        <time>2017-10-11T13:25:38Z</time>
      </trkpt>
      <trkpt lat="47.34292" lon="6.37394">
        <ele>265</ele>
        <time>2017-10-11T13:25:40Z</time>
      </trkpt>
      <trkpt lat="47.34281" lon="6.37388">
        <ele>265</ele>
        <time>2017-10-11T13:25:42Z</time>
      </trkpt>
      <trkpt lat="47.34271" lon="6.37384">
        <ele>265</ele>
        <time>2017-10-11T13:25:44Z</time>
      </trkpt>
      <trkpt lat="47.34261" lon="6.37379">
        <ele>265</ele>
        <time>2017-10-11T13:25:46Z</time>
      </trkpt>
      <trkpt lat="47.3425" lon="6.37374">
        <ele>265</ele>
        <time>2017-10-11T13:25:48Z</time>
      </trkpt>
      <trkpt lat="47.34238" lon="6.37371">
        <ele>265</ele>
        <time>2017-10-11T13:25:50Z</time>
      </trkpt>
      <trkpt lat="47.34227" lon="6.3737">
        <ele>265</ele>
        <time>2017-10-11T13:25:52Z</time>
      </trkpt>
      <trkpt lat="47.34215" lon="6.37368">
        <ele>265</ele>
        <time>2017-10-11T13:25:54Z</time>
      </trkpt>
      <trkpt lat="47.34203" lon="6.37366">
        <ele>265</ele>
        <time>2017-10-11T13:25:56Z</time>
      </trkpt>
      <trkpt lat="47.34192" lon="6.37364">
        <ele>265</ele>
        <time>2017-10-11T13:25:58Z</time>
      </trkpt>
      <trkpt lat="47.3418" lon="6.37362">
        <ele>265</ele>
        <time>2017-10-11T13:26:00Z</time>
      </trkpt>
      <trkpt lat="47.3417" lon="6.37357">
        <ele>266</ele>
        <time>2017-10-11T13:26:02Z</time>
      </trkpt>
      <trkpt lat="47.34161" lon="6.37351">
        <ele>272</ele>
        <time>2017-10-11T13:26:04Z</time>
      </trkpt>
      <trkpt lat="47.34154" lon="6.37342">
        <ele>272</ele>
        <time>2017-10-11T13:26:06Z</time>
      </trkpt>
      <trkpt lat="47.34148" lon="6.37331">
        <ele>275</ele>
        <time>2017-10-11T13:26:08Z</time>
      </trkpt>
      <trkpt lat="47.34142" lon="6.37319">
        <ele>278</ele>
        <time>2017-10-11T13:26:10Z</time>
      </trkpt>
      <trkpt lat="47.34137" lon="6.37308">
        <ele>281</ele>
        <time>2017-10-11T13:26:12Z</time>
      </trkpt>
      <trkpt lat="47.3413" lon="6.37295">
        <ele>283</ele>
        <time>2017-10-11T13:26:15Z</time>
      </trkpt>
      <trkpt lat="47.34123" lon="6.37282">
        <ele>284</ele>
        <time>2017-10-11T13:26:18Z</time>
      </trkpt>
      <trkpt lat="47.34117" lon="6.37268">
        <ele>286</ele>
        <time>2017-10-11T13:26:21Z</time>
      </trkpt>
      <trkpt lat="47.34119" lon="6.37255">
        <ele>286</ele>
        <time>2017-10-11T13:26:40Z</time>
      </trkpt>
      <trkpt lat="47.34116" lon="6.3727">
        <ele>286</ele>
        <time>2017-10-11T13:28:46Z</time>
      </trkpt>
      <trkpt lat="47.34116" lon="6.37266">
        <ele>287</ele>
        <time>2017-10-11T13:29:36Z</time>
      </trkpt>
      <trkpt lat="47.34121" lon="6.37249">
        <ele>288</ele>
        <time>2017-10-11T13:30:06Z</time>
      </trkpt>
      <trkpt lat="47.34125" lon="6.37232">
        <ele>288</ele>
        <time>2017-10-11T13:30:09Z</time>
      </trkpt>
      <trkpt lat="47.34126" lon="6.37213">
        <ele>288</ele>
        <time>2017-10-11T13:30:12Z</time>
      </trkpt>
      <trkpt lat="47.34126" lon="6.37195">
        <ele>288</ele>
        <time>2017-10-11T13:30:15Z</time>
      </trkpt>
      <trkpt lat="47.34126" lon="6.3718">
        <ele>288</ele>
        <time>2017-10-11T13:30:17Z</time>
      </trkpt>
      <trkpt lat="47.34125" lon="6.37166">
        <ele>288</ele>
        <time>2017-10-11T13:30:19Z</time>
      </trkpt>
      <trkpt lat="47.34124" lon="6.37151">
        <ele>288</ele>
        <time>2017-10-11T13:30:21Z</time>
      </trkpt>
      <trkpt lat="47.34124" lon="6.37137">
        <ele>287</ele>
        <time>2017-10-11T13:30:23Z</time>
      </trkpt>
      <trkpt lat="47.34124" lon="6.37123">
        <ele>287</ele>
        <time>2017-10-11T13:30:25Z</time>
      </trkpt>
      <trkpt lat="47.34124" lon="6.37108">
        <ele>286</ele>
        <time>2017-10-11T13:30:27Z</time>
      </trkpt>
      <trkpt lat="47.34124" lon="6.37094">
        <ele>286</ele>
        <time>2017-10-11T13:30:29Z</time>
      </trkpt>
      <trkpt lat="47.34126" lon="6.37081">
        <ele>280</ele>
        <time>2017-10-11T13:30:31Z</time>
      </trkpt>
      <trkpt lat="47.34126" lon="6.37066">
        <ele>280</ele>
        <time>2017-10-11T13:30:33Z</time>
      </trkpt>
      <trkpt lat="47.34126" lon="6.3705">
        <ele>279</ele>
        <time>2017-10-11T13:30:35Z</time>
      </trkpt>
      <trkpt lat="47.34126" lon="6.37035">
        <ele>278</ele>
        <time>2017-10-11T13:30:37Z</time>
      </trkpt>
      <trkpt lat="47.34126" lon="6.37021">
        <ele>278</ele>
        <time>2017-10-11T13:30:39Z</time>
      </trkpt>
      <trkpt lat="47.34125" lon="6.37008">
        <ele>277</ele>
        <time>2017-10-11T13:30:41Z</time>
      </trkpt>
      <trkpt lat="47.34125" lon="6.36987">
        <ele>273</ele>
        <time>2017-10-11T13:30:44Z</time>
      </trkpt>
      <trkpt lat="47.34125" lon="6.36972">
        <ele>273</ele>
        <time>2017-10-11T13:30:46Z</time>
      </trkpt>
      <trkpt lat="47.34124" lon="6.36956">
        <ele>273</ele>
        <time>2017-10-11T13:30:48Z</time>
      </trkpt>
      <trkpt lat="47.34122" lon="6.3694">
        <ele>273</ele>
        <time>2017-10-11T13:30:50Z</time>
      </trkpt>
      <trkpt lat="47.34121" lon="6.36923">
        <ele>273</ele>
        <time>2017-10-11T13:30:52Z</time>
      </trkpt>
      <trkpt lat="47.34121" lon="6.36905">
        <ele>273</ele>
        <time>2017-10-11T13:30:54Z</time>
      </trkpt>
      <trkpt lat="47.3412" lon="6.36888">
        <ele>273</ele>
        <time>2017-10-11T13:30:56Z</time>
      </trkpt>
      <trkpt lat="47.34123" lon="6.36871">
        <ele>273</ele>
        <time>2017-10-11T13:30:58Z</time>
      </trkpt>
      <trkpt lat="47.34123" lon="6.36857">
        <ele>274</ele>
        <time>2017-10-11T13:31:00Z</time>
      </trkpt>
      <trkpt lat="47.34122" lon="6.36841">
        <ele>274</ele>
        <time>2017-10-11T13:31:02Z</time>
      </trkpt>
      <trkpt lat="47.34122" lon="6.36824">
        <ele>276</ele>
        <time>2017-10-11T13:31:04Z</time>
      </trkpt>
      <trkpt lat="47.34123" lon="6.36809">
        <ele>276</ele>
        <time>2017-10-11T13:31:06Z</time>
      </trkpt>
      <trkpt lat="47.34123" lon="6.36794">
        <ele>276</ele>
        <time>2017-10-11T13:31:08Z</time>
      </trkpt>
      <trkpt lat="47.34122" lon="6.36779">
        <ele>276</ele>
        <time>2017-10-11T13:31:10Z</time>
      </trkpt>
      <trkpt lat="47.34121" lon="6.36763">
        <ele>276</ele>
        <time>2017-10-11T13:31:12Z</time>
      </trkpt>
      <trkpt lat="47.34121" lon="6.36748">
        <ele>278</ele>
        <time>2017-10-11T13:31:14Z</time>
      </trkpt>
      <trkpt lat="47.34123" lon="6.36733">
        <ele>278</ele>
        <time>2017-10-11T13:31:16Z</time>
      </trkpt>
      <trkpt lat="47.34124" lon="6.36718">
        <ele>278</ele>
        <time>2017-10-11T13:31:18Z</time>
      </trkpt>
      <trkpt lat="47.34124" lon="6.36702">
        <ele>279</ele>
        <time>2017-10-11T13:31:20Z</time>
      </trkpt>
      <trkpt lat="47.34126" lon="6.36687">
        <ele>279</ele>
        <time>2017-10-11T13:31:22Z</time>
      </trkpt>
      <trkpt lat="47.34129" lon="6.36673">
        <ele>278</ele>
        <time>2017-10-11T13:31:24Z</time>
      </trkpt>
      <trkpt lat="47.34133" lon="6.36659">
        <ele>279</ele>
        <time>2017-10-11T13:31:26Z</time>
      </trkpt>
      <trkpt lat="47.34136" lon="6.36644">
        <ele>279</ele>
        <time>2017-10-11T13:31:28Z</time>
      </trkpt>
      <trkpt lat="47.34139" lon="6.36629">
        <ele>278</ele>
        <time>2017-10-11T13:31:30Z</time>
      </trkpt>
      <trkpt lat="47.34144" lon="6.36614">
        <ele>278</ele>
        <time>2017-10-11T13:31:32Z</time>
      </trkpt>
      <trkpt lat="47.34147" lon="6.36599">
        <ele>276</ele>
        <time>2017-10-11T13:31:34Z</time>
      </trkpt>
      <trkpt lat="47.34149" lon="6.36582">
        <ele>275</ele>
        <time>2017-10-11T13:31:36Z</time>
      </trkpt>
      <trkpt lat="47.34152" lon="6.36566">
        <ele>276</ele>
        <time>2017-10-11T13:31:38Z</time>
      </trkpt>
      <trkpt lat="47.34153" lon="6.36548">
        <ele>278</ele>
        <time>2017-10-11T13:31:40Z</time>
      </trkpt>
      <trkpt lat="47.34156" lon="6.3653">
        <ele>277</ele>
        <time>2017-10-11T13:31:42Z</time>
      </trkpt>
      <trkpt lat="47.34158" lon="6.36513">
        <ele>275</ele>
        <time>2017-10-11T13:31:44Z</time>
      </trkpt>
      <trkpt lat="47.34161" lon="6.36496">
        <ele>274</ele>
        <time>2017-10-11T13:31:46Z</time>
      </trkpt>
      <trkpt lat="47.34163" lon="6.36482">
        <ele>277</ele>
        <time>2017-10-11T13:31:48Z</time>
      </trkpt>
      <trkpt lat="47.34166" lon="6.36467">
        <ele>279</ele>
        <time>2017-10-11T13:31:50Z</time>
      </trkpt>
      <trkpt lat="47.34169" lon="6.36451">
        <ele>269</ele>
        <time>2017-10-11T13:31:52Z</time>
      </trkpt>
      <trkpt lat="47.34172" lon="6.36434">
        <ele>270</ele>
        <time>2017-10-11T13:31:54Z</time>
      </trkpt>
      <trkpt lat="47.34176" lon="6.36416">
        <ele>271</ele>
        <time>2017-10-11T13:31:56Z</time>
      </trkpt>
      <trkpt lat="47.34179" lon="6.36399">
        <ele>270</ele>
        <time>2017-10-11T13:31:58Z</time>
      </trkpt>
      <trkpt lat="47.34183" lon="6.36382">
        <ele>269</ele>
        <time>2017-10-11T13:32:00Z</time>
      </trkpt>
      <trkpt lat="47.34186" lon="6.36363">
        <ele>269</ele>
        <time>2017-10-11T13:32:02Z</time>
      </trkpt>
      <trkpt lat="47.34189" lon="6.36345">
        <ele>270</ele>
        <time>2017-10-11T13:32:04Z</time>
      </trkpt>
      <trkpt lat="47.34192" lon="6.36326">
        <ele>269</ele>
        <time>2017-10-11T13:32:06Z</time>
      </trkpt>
      <trkpt lat="47.34194" lon="6.36308">
        <ele>269</ele>
        <time>2017-10-11T13:32:08Z</time>
      </trkpt>
      <trkpt lat="47.34197" lon="6.3629">
        <ele>268</ele>
        <time>2017-10-11T13:32:10Z</time>
      </trkpt>
      <trkpt lat="47.342" lon="6.36275">
        <ele>268</ele>
        <time>2017-10-11T13:32:12Z</time>
      </trkpt>
      <trkpt lat="47.34203" lon="6.36259">
        <ele>268</ele>
        <time>2017-10-11T13:32:14Z</time>
      </trkpt>
      <trkpt lat="47.34206" lon="6.36243">
        <ele>267</ele>
        <time>2017-10-11T13:32:16Z</time>
      </trkpt>
      <trkpt lat="47.34209" lon="6.36229">
        <ele>266</ele>
        <time>2017-10-11T13:32:18Z</time>
      </trkpt>
      <trkpt lat="47.34211" lon="6.36214">
        <ele>266</ele>
        <time>2017-10-11T13:32:20Z</time>
      </trkpt>
      <trkpt lat="47.34214" lon="6.36198">
        <ele>266</ele>
        <time>2017-10-11T13:32:22Z</time>
      </trkpt>
      <trkpt lat="47.34217" lon="6.36183">
        <ele>266</ele>
        <time>2017-10-11T13:32:24Z</time>
      </trkpt>
      <trkpt lat="47.34217" lon="6.36165">
        <ele>266</ele>
        <time>2017-10-11T13:32:26Z</time>
      </trkpt>
      <trkpt lat="47.34214" lon="6.36148">
        <ele>266</ele>
        <time>2017-10-11T13:32:28Z</time>
      </trkpt>
      <trkpt lat="47.34212" lon="6.36131">
        <ele>266</ele>
        <time>2017-10-11T13:32:30Z</time>
      </trkpt>
      <trkpt lat="47.34208" lon="6.36112">
        <ele>266</ele>
        <time>2017-10-11T13:32:32Z</time>
      </trkpt>
      <trkpt lat="47.34204" lon="6.36096">
        <ele>266</ele>
        <time>2017-10-11T13:32:34Z</time>
      </trkpt>
      <trkpt lat="47.34201" lon="6.36081">
        <ele>266</ele>
        <time>2017-10-11T13:32:36Z</time>
      </trkpt>
      <trkpt lat="47.34198" lon="6.36068">
        <ele>266</ele>
        <time>2017-10-11T13:32:38Z</time>
      </trkpt>
      <trkpt lat="47.34197" lon="6.3605">
        <ele>266</ele>
        <time>2017-10-11T13:32:41Z</time>
      </trkpt>
      <trkpt lat="47.34203" lon="6.36037">
        <ele>265</ele>
        <time>2017-10-11T13:32:44Z</time>
      </trkpt>
      <trkpt lat="47.34208" lon="6.36023">
        <ele>265</ele>
        <time>2017-10-11T13:32:46Z</time>
      </trkpt>
      <trkpt lat="47.34208" lon="6.36007">
        <ele>265</ele>
        <time>2017-10-11T13:32:48Z</time>
      </trkpt>
      <trkpt lat="47.34203" lon="6.35992">
        <ele>265</ele>
        <time>2017-10-11T13:32:50Z</time>
      </trkpt>
      <trkpt lat="47.34197" lon="6.35978">
        <ele>265</ele>
        <time>2017-10-11T13:32:52Z</time>
      </trkpt>
      <trkpt lat="47.34191" lon="6.35965">
        <ele>265</ele>
        <time>2017-10-11T13:32:54Z</time>
      </trkpt>
      <trkpt lat="47.34184" lon="6.35949">
        <ele>266</ele>
        <time>2017-10-11T13:32:56Z</time>
      </trkpt>
      <trkpt lat="47.34178" lon="6.35932">
        <ele>266</ele>
        <time>2017-10-11T13:32:58Z</time>
      </trkpt>
      <trkpt lat="47.34173" lon="6.35915">
        <ele>266</ele>
        <time>2017-10-11T13:33:00Z</time>
      </trkpt>
      <trkpt lat="47.34168" lon="6.35899">
        <ele>266</ele>
        <time>2017-10-11T13:33:02Z</time>
      </trkpt>
      <trkpt lat="47.34163" lon="6.35884">
        <ele>267</ele>
        <time>2017-10-11T13:33:04Z</time>
      </trkpt>
      <trkpt lat="47.34157" lon="6.35869">
        <ele>267</ele>
        <time>2017-10-11T13:33:06Z</time>
      </trkpt>
      <trkpt lat="47.34153" lon="6.35852">
        <ele>267</ele>
        <time>2017-10-11T13:33:08Z</time>
      </trkpt>
      <trkpt lat="47.34147" lon="6.35837">
        <ele>267</ele>
        <time>2017-10-11T13:33:10Z</time>
      </trkpt>
      <trkpt lat="47.34143" lon="6.35821">
        <ele>267</ele>
        <time>2017-10-11T13:33:12Z</time>
      </trkpt>
      <trkpt lat="47.34138" lon="6.35805">
        <ele>267</ele>
        <time>2017-10-11T13:33:14Z</time>
      </trkpt>
      <trkpt lat="47.34131" lon="6.3579">
        <ele>267</ele>
        <time>2017-10-11T13:33:16Z</time>
      </trkpt>
      <trkpt lat="47.34125" lon="6.35774">
        <ele>267</ele>
        <time>2017-10-11T13:33:18Z</time>
      </trkpt>
      <trkpt lat="47.3412" lon="6.35758">
        <ele>267</ele>
        <time>2017-10-11T13:33:20Z</time>
      </trkpt>
      <trkpt lat="47.34113" lon="6.35743">
        <ele>267</ele>
        <time>2017-10-11T13:33:22Z</time>
      </trkpt>
      <trkpt lat="47.34108" lon="6.35725">
        <ele>267</ele>
        <time>2017-10-11T13:33:24Z</time>
      </trkpt>
      <trkpt lat="47.34098" lon="6.35706">
        <ele>267</ele>
        <time>2017-10-11T13:33:26Z</time>
      </trkpt>
      <trkpt lat="47.34092" lon="6.35694">
        <ele>266</ele>
        <time>2017-10-11T13:33:27Z</time>
      </trkpt>
      <trkpt lat="47.34079" lon="6.35673">
        <ele>266</ele>
        <time>2017-10-11T13:33:29Z</time>
      </trkpt>
      <trkpt lat="47.34069" lon="6.35654">
        <ele>265</ele>
        <time>2017-10-11T13:33:31Z</time>
      </trkpt>
      <trkpt lat="47.3406" lon="6.35636">
        <ele>265</ele>
        <time>2017-10-11T13:33:33Z</time>
      </trkpt>
      <trkpt lat="47.34054" lon="6.35619">
        <ele>265</ele>
        <time>2017-10-11T13:33:35Z</time>
      </trkpt>
      <trkpt lat="47.34057" lon="6.35605">
        <ele>265</ele>
        <time>2017-10-11T13:33:38Z</time>
      </trkpt>
      <trkpt lat="47.34069" lon="6.35594">
        <ele>264</ele>
        <time>2017-10-11T13:33:41Z</time>
      </trkpt>
      <trkpt lat="47.34078" lon="6.3558">
        <ele>263</ele>
        <time>2017-10-11T13:33:44Z</time>
      </trkpt>
      <trkpt lat="47.34089" lon="6.35568">
        <ele>264</ele>
        <time>2017-10-11T13:33:47Z</time>
      </trkpt>
      <trkpt lat="47.34097" lon="6.3556">
        <ele>264</ele>
        <time>2017-10-11T13:33:49Z</time>
      </trkpt>
      <trkpt lat="47.34105" lon="6.35551">
        <ele>265</ele>
        <time>2017-10-11T13:33:51Z</time>
      </trkpt>
      <trkpt lat="47.34109" lon="6.35536">
        <ele>265</ele>
        <time>2017-10-11T13:33:54Z</time>
      </trkpt>
      <trkpt lat="47.34102" lon="6.35524">
        <ele>265</ele>
        <time>2017-10-11T13:33:56Z</time>
      </trkpt>
      <trkpt lat="47.34094" lon="6.35512">
        <ele>265</ele>
        <time>2017-10-11T13:33:58Z</time>
      </trkpt>
      <trkpt lat="47.34087" lon="6.35498">
        <ele>264</ele>
        <time>2017-10-11T13:34:00Z</time>
      </trkpt>
      <trkpt lat="47.34082" lon="6.35483">
        <ele>265</ele>
        <time>2017-10-11T13:34:03Z</time>
      </trkpt>
      <trkpt lat="47.3408" lon="6.35468">
        <ele>265</ele>
        <time>2017-10-11T13:34:08Z</time>
      </trkpt>
      <trkpt lat="47.34084" lon="6.35454">
        <ele>266</ele>
        <time>2017-10-11T13:34:13Z</time>
      </trkpt>
      <trkpt lat="47.34093" lon="6.3545">
        <ele>266</ele>
        <time>2017-10-11T13:34:18Z</time>
      </trkpt>
      <trkpt lat="47.34102" lon="6.35444">
        <ele>266</ele>
        <time>2017-10-11T13:34:22Z</time>
      </trkpt>
      <trkpt lat="47.34111" lon="6.35439">
        <ele>266</ele>
        <time>2017-10-11T13:34:26Z</time>
      </trkpt>
      <trkpt lat="47.34118" lon="6.3543">
        <ele>266</ele>
        <time>2017-10-11T13:34:30Z</time>
      </trkpt>
      <trkpt lat="47.34126" lon="6.35417">
        <ele>266</ele>
        <time>2017-10-11T13:34:34Z</time>
      </trkpt>
      <trkpt lat="47.34134" lon="6.3541">
        <ele>269</ele>
        <time>2017-10-11T13:34:38Z</time>
      </trkpt>
      <trkpt lat="47.34139" lon="6.35399">
        <ele>270</ele>
        <time>2017-10-11T13:34:42Z</time>
      </trkpt>
      <trkpt lat="47.34139" lon="6.35384">
        <ele>271</ele>
        <time>2017-10-11T13:34:53Z</time>
      </trkpt>
      <trkpt lat="47.34138" lon="6.35371">
        <ele>272</ele>
        <time>2017-10-11T13:35:02Z</time>
      </trkpt>
      <trkpt lat="47.34145" lon="6.35362">
        <ele>272</ele>
        <time>2017-10-11T13:35:05Z</time>
      </trkpt>
      <trkpt lat="47.34155" lon="6.3535">
        <ele>271</ele>
        <time>2017-10-11T13:35:08Z</time>
      </trkpt>
      <trkpt lat="47.34165" lon="6.35339">
        <ele>271</ele>
        <time>2017-10-11T13:35:11Z</time>
      </trkpt>
      <trkpt lat="47.34172" lon="6.3533">
        <ele>271</ele>
        <time>2017-10-11T13:35:13Z</time>
      </trkpt>
      <trkpt lat="47.3418" lon="6.35321">
        <ele>272</ele>
        <time>2017-10-11T13:35:15Z</time>
      </trkpt>
      <trkpt lat="47.34188" lon="6.35312">
        <ele>273</ele>
        <time>2017-10-11T13:35:17Z</time>
      </trkpt>
      <trkpt lat="47.34197" lon="6.35302">
        <ele>273</ele>
        <time>2017-10-11T13:35:19Z</time>
      </trkpt>
      <trkpt lat="47.34205" lon="6.3529">
        <ele>274</ele>
        <time>2017-10-11T13:35:21Z</time>
      </trkpt>
      <trkpt lat="47.34213" lon="6.35277">
        <ele>273</ele>
        <time>2017-10-11T13:35:23Z</time>
      </trkpt>
      <trkpt lat="47.34222" lon="6.35264">
        <ele>272</ele>
        <time>2017-10-11T13:35:25Z</time>
      </trkpt>
      <trkpt lat="47.34231" lon="6.35252">
        <ele>270</ele>
        <time>2017-10-11T13:35:27Z</time>
      </trkpt>
      <trkpt lat="47.34238" lon="6.35238">
        <ele>276</ele>
        <time>2017-10-11T13:35:29Z</time>
      </trkpt>
      <trkpt lat="47.34245" lon="6.35223">
        <ele>280</ele>
        <time>2017-10-11T13:35:31Z</time>
      </trkpt>
      <trkpt lat="47.3425" lon="6.35206">
        <ele>268</ele>
        <time>2017-10-11T13:35:33Z</time>
      </trkpt>
      <trkpt lat="47.34256" lon="6.35189">
        <ele>270</ele>
        <time>2017-10-11T13:35:35Z</time>
      </trkpt>
      <trkpt lat="47.34261" lon="6.35171">
        <ele>272</ele>
        <time>2017-10-11T13:35:37Z</time>
      </trkpt>
      <trkpt lat="47.34264" lon="6.35154">
        <ele>273</ele>
        <time>2017-10-11T13:35:39Z</time>
      </trkpt>
      <trkpt lat="47.34267" lon="6.35138">
        <ele>273</ele>
        <time>2017-10-11T13:35:41Z</time>
      </trkpt>
      <trkpt lat="47.34271" lon="6.35122">
        <ele>273</ele>
        <time>2017-10-11T13:35:43Z</time>
      </trkpt>
      <trkpt lat="47.34274" lon="6.35106">
        <ele>274</ele>
        <time>2017-10-11T13:35:45Z</time>
      </trkpt>
      <trkpt lat="47.34278" lon="6.35088">
        <ele>275</ele>
        <time>2017-10-11T13:35:47Z</time>
      </trkpt>
      <trkpt lat="47.34281" lon="6.3507">
        <ele>278</ele>
        <time>2017-10-11T13:35:49Z</time>
      </trkpt>
      <trkpt lat="47.34284" lon="6.35053">
        <ele>278</ele>
        <time>2017-10-11T13:35:51Z</time>
      </trkpt>
      <trkpt lat="47.34288" lon="6.35036">
        <ele>279</ele>
        <time>2017-10-11T13:35:53Z</time>
      </trkpt>
      <trkpt lat="47.34293" lon="6.35023">
        <ele>278</ele>
        <time>2017-10-11T13:35:55Z</time>
      </trkpt>
      <trkpt lat="47.34301" lon="6.35013">
        <ele>277</ele>
        <time>2017-10-11T13:35:57Z</time>
      </trkpt>
      <trkpt lat="47.34312" lon="6.35008">
        <ele>274</ele>
        <time>2017-10-11T13:35:59Z</time>
      </trkpt>
      <trkpt lat="47.34323" lon="6.35007">
        <ele>271</ele>
        <time>2017-10-11T13:36:01Z</time>
      </trkpt>
      <trkpt lat="47.34335" lon="6.35007">
        <ele>266</ele>
        <time>2017-10-11T13:36:03Z</time>
      </trkpt>
      <trkpt lat="47.34346" lon="6.35003">
        <ele>265</ele>
        <time>2017-10-11T13:36:05Z</time>
      </trkpt>
      <trkpt lat="47.34355" lon="6.34994">
        <ele>266</ele>
        <time>2017-10-11T13:36:07Z</time>
      </trkpt>
      <trkpt lat="47.34362" lon="6.34984">
        <ele>266</ele>
        <time>2017-10-11T13:36:09Z</time>
      </trkpt>
      <trkpt lat="47.34366" lon="6.3497">
        <ele>266</ele>
        <time>2017-10-11T13:36:11Z</time>
      </trkpt>
      <trkpt lat="47.34366" lon="6.34955">
        <ele>266</ele>
        <time>2017-10-11T13:36:13Z</time>
      </trkpt>
      <trkpt lat="47.34365" lon="6.34941">
        <ele>266</ele>
        <time>2017-10-11T13:36:15Z</time>
      </trkpt>
      <trkpt lat="47.34364" lon="6.34925">
        <ele>266</ele>
        <time>2017-10-11T13:36:18Z</time>
      </trkpt>
      <trkpt lat="47.34367" lon="6.34912">
        <ele>267</ele>
        <time>2017-10-11T13:36:59Z</time>
      </trkpt>
      <trkpt lat="47.34372" lon="6.34901">
        <ele>267</ele>
        <time>2017-10-11T13:37:03Z</time>
      </trkpt>
      <trkpt lat="47.34377" lon="6.34889">
        <ele>267</ele>
        <time>2017-10-11T13:37:09Z</time>
      </trkpt>
      <trkpt lat="47.3438" lon="6.34875">
        <ele>267</ele>
        <time>2017-10-11T13:37:15Z</time>
      </trkpt>
      <trkpt lat="47.34388" lon="6.34863">
        <ele>267</ele>
        <time>2017-10-11T13:37:19Z</time>
      </trkpt>
      <trkpt lat="47.34394" lon="6.34852">
        <ele>267</ele>
        <time>2017-10-11T13:37:22Z</time>
      </trkpt>
      <trkpt lat="47.34399" lon="6.34837">
        <ele>266</ele>
        <time>2017-10-11T13:37:26Z</time>
      </trkpt>
      <trkpt lat="47.34407" lon="6.34828">
        <ele>266</ele>
        <time>2017-10-11T13:37:29Z</time>
      </trkpt>
      <trkpt lat="47.34417" lon="6.34823">
        <ele>266</ele>
        <time>2017-10-11T13:37:33Z</time>
      </trkpt>
      <trkpt lat="47.34427" lon="6.34816">
        <ele>264</ele>
        <time>2017-10-11T13:37:37Z</time>
      </trkpt>
      <trkpt lat="47.34435" lon="6.3481">
        <ele>264</ele>
        <time>2017-10-11T13:37:40Z</time>
      </trkpt>
      <trkpt lat="47.34444" lon="6.34802">
        <ele>264</ele>
        <time>2017-10-11T13:37:43Z</time>
      </trkpt>
      <trkpt lat="47.34454" lon="6.34794">
        <ele>264</ele>
        <time>2017-10-11T13:37:47Z</time>
      </trkpt>
      <trkpt lat="47.34463" lon="6.34786">
        <ele>265</ele>
        <time>2017-10-11T13:37:51Z</time>
      </trkpt>
      <trkpt lat="47.34473" lon="6.34778">
        <ele>265</ele>
        <time>2017-10-11T13:37:55Z</time>
      </trkpt>
      <trkpt lat="47.34482" lon="6.3477">
        <ele>265</ele>
        <time>2017-10-11T13:37:58Z</time>
      </trkpt>
      <trkpt lat="47.34491" lon="6.34767">
        <ele>265</ele>
        <time>2017-10-11T13:38:01Z</time>
      </trkpt>
      <trkpt lat="47.34501" lon="6.34766">
        <ele>265</ele>
        <time>2017-10-11T13:38:04Z</time>
      </trkpt>
      <trkpt lat="47.34511" lon="6.34763">
        <ele>265</ele>
        <time>2017-10-11T13:38:07Z</time>
      </trkpt>
      <trkpt lat="47.34521" lon="6.34758">
        <ele>265</ele>
        <time>2017-10-11T13:38:10Z</time>
      </trkpt>
      <trkpt lat="47.34532" lon="6.34756">
        <ele>265</ele>
        <time>2017-10-11T13:38:13Z</time>
      </trkpt>
      <trkpt lat="47.34543" lon="6.3475">
        <ele>265</ele>
        <time>2017-10-11T13:38:16Z</time>
      </trkpt>
      <trkpt lat="47.34552" lon="6.34744">
        <ele>265</ele>
        <time>2017-10-11T13:38:19Z</time>
      </trkpt>
      <trkpt lat="47.34561" lon="6.34739">
        <ele>265</ele>
        <time>2017-10-11T13:38:22Z</time>
      </trkpt>
      <trkpt lat="47.34572" lon="6.34742">
        <ele>265</ele>
        <time>2017-10-11T13:38:25Z</time>
      </trkpt>
      <trkpt lat="47.3458" lon="6.34751">
        <ele>265</ele>
        <time>2017-10-11T13:38:28Z</time>
      </trkpt>
      <trkpt lat="47.34588" lon="6.34764">
        <ele>265</ele>
        <time>2017-10-11T13:38:31Z</time>
      </trkpt>
      <trkpt lat="47.34595" lon="6.34777">
        <ele>265</ele>
        <time>2017-10-11T13:38:34Z</time>
      </trkpt>
      <trkpt lat="47.34601" lon="6.34789">
        <ele>265</ele>
        <time>2017-10-11T13:38:37Z</time>
      </trkpt>
      <trkpt lat="47.34606" lon="6.34801">
        <ele>265</ele>
        <time>2017-10-11T13:38:40Z</time>
      </trkpt>
      <trkpt lat="47.34612" lon="6.34812">
        <ele>265</ele>
        <time>2017-10-11T13:38:43Z</time>
      </trkpt>
      <trkpt lat="47.34618" lon="6.34827">
        <ele>265</ele>
        <time>2017-10-11T13:38:46Z</time>
      </trkpt>
      <trkpt lat="47.34623" lon="6.34839">
        <ele>265</ele>
        <time>2017-10-11T13:38:48Z</time>
      </trkpt>
      <trkpt lat="47.34627" lon="6.34852">
        <ele>265</ele>
        <time>2017-10-11T13:38:50Z</time>
      </trkpt>
      <trkpt lat="47.34631" lon="6.34865">
        <ele>265</ele>
        <time>2017-10-11T13:38:52Z</time>
      </trkpt>
      <trkpt lat="47.34635" lon="6.34878">
        <ele>265</ele>
        <time>2017-10-11T13:38:54Z</time>
      </trkpt>
      <trkpt lat="47.34639" lon="6.34891">
        <ele>265</ele>
        <time>2017-10-11T13:38:56Z</time>
      </trkpt>
      <trkpt lat="47.34646" lon="6.34907">
        <ele>265</ele>
        <time>2017-10-11T13:38:59Z</time>
      </trkpt>
      <trkpt lat="47.34652" lon="6.34921">
        <ele>265</ele>
        <time>2017-10-11T13:39:02Z</time>
      </trkpt>
      <trkpt lat="47.3466" lon="6.34937">
        <ele>265</ele>
        <time>2017-10-11T13:39:05Z</time>
      </trkpt>
      <trkpt lat="47.34665" lon="6.34953">
        <ele>265</ele>
        <time>2017-10-11T13:39:08Z</time>
      </trkpt>
      <trkpt lat="47.34672" lon="6.34968">
        <ele>265</ele>
        <time>2017-10-11T13:39:11Z</time>
      </trkpt>
      <trkpt lat="47.34678" lon="6.34986">
        <ele>265</ele>
        <time>2017-10-11T13:39:14Z</time>
      </trkpt>
      <trkpt lat="47.34684" lon="6.35005">
        <ele>265</ele>
        <time>2017-10-11T13:39:17Z</time>
      </trkpt>
      <trkpt lat="47.3469" lon="6.35017">
        <ele>265</ele>
        <time>2017-10-11T13:39:19Z</time>
      </trkpt>
      <trkpt lat="47.34696" lon="6.3503">
        <ele>265</ele>
        <time>2017-10-11T13:39:21Z</time>
      </trkpt>
      <trkpt lat="47.347" lon="6.35044">
        <ele>265</ele>
        <time>2017-10-11T13:39:23Z</time>
      </trkpt>
      <trkpt lat="47.34705" lon="6.35057">
        <ele>265</ele>
        <time>2017-10-11T13:39:25Z</time>
      </trkpt>
      <trkpt lat="47.34708" lon="6.3507">
        <ele>265</ele>
        <time>2017-10-11T13:39:27Z</time>
      </trkpt>
      <trkpt lat="47.34711" lon="6.35083">
        <ele>265</ele>
        <time>2017-10-11T13:39:29Z</time>
      </trkpt>
      <trkpt lat="47.34715" lon="6.35095">
        <ele>265</ele>
        <time>2017-10-11T13:39:31Z</time>
      </trkpt>
      <trkpt lat="47.34717" lon="6.35109">
        <ele>265</ele>
        <time>2017-10-11T13:39:33Z</time>
      </trkpt>
      <trkpt lat="47.34721" lon="6.35123">
        <ele>265</ele>
        <time>2017-10-11T13:39:35Z</time>
      </trkpt>
      <trkpt lat="47.34726" lon="6.35137">
        <ele>265</ele>
        <time>2017-10-11T13:39:37Z</time>
      </trkpt>
      <trkpt lat="47.3473" lon="6.3515">
        <ele>265</ele>
        <time>2017-10-11T13:39:39Z</time>
      </trkpt>
      <trkpt lat="47.34736" lon="6.35168">
        <ele>265</ele>
        <time>2017-10-11T13:39:42Z</time>
      </trkpt>
      <trkpt lat="47.34741" lon="6.35179">
        <ele>265</ele>
        <time>2017-10-11T13:39:44Z</time>
      </trkpt>
      <trkpt lat="47.34745" lon="6.35191">
        <ele>265</ele>
        <time>2017-10-11T13:39:46Z</time>
      </trkpt>
      <trkpt lat="47.34749" lon="6.35204">
        <ele>265</ele>
        <time>2017-10-11T13:39:48Z</time>
      </trkpt>
      <trkpt lat="47.34752" lon="6.35218">
        <ele>264</ele>
        <time>2017-10-11T13:39:50Z</time>
      </trkpt>
      <trkpt lat="47.34757" lon="6.35229">
        <ele>264</ele>
        <time>2017-10-11T13:39:52Z</time>
      </trkpt>
      <trkpt lat="47.34762" lon="6.35245">
        <ele>265</ele>
        <time>2017-10-11T13:39:55Z</time>
      </trkpt>
      <trkpt lat="47.34768" lon="6.35259">
        <ele>265</ele>
        <time>2017-10-11T13:39:58Z</time>
      </trkpt>
      <trkpt lat="47.34772" lon="6.35271">
        <ele>265</ele>
        <time>2017-10-11T13:40:01Z</time>
      </trkpt>
      <trkpt lat="47.34781" lon="6.35275">
        <ele>265</ele>
        <time>2017-10-11T13:40:18Z</time>
      </trkpt>
      <trkpt lat="47.34792" lon="6.35275">
        <ele>264</ele>
        <time>2017-10-11T13:40:21Z</time>
      </trkpt>
      <trkpt lat="47.34802" lon="6.35275">
        <ele>264</ele>
        <time>2017-10-11T13:40:24Z</time>
      </trkpt>
      <trkpt lat="47.34811" lon="6.35277">
        <ele>264</ele>
        <time>2017-10-11T13:40:26Z</time>
      </trkpt>
      <trkpt lat="47.34821" lon="6.35278">
        <ele>264</ele>
        <time>2017-10-11T13:40:28Z</time>
      </trkpt>
      <trkpt lat="47.34834" lon="6.35277">
        <ele>263</ele>
        <time>2017-10-11T13:40:31Z</time>
      </trkpt>
      <trkpt lat="47.34847" lon="6.35275">
        <ele>263</ele>
        <time>2017-10-11T13:40:34Z</time>
      </trkpt>
      <trkpt lat="47.34857" lon="6.35271">
        <ele>264</ele>
        <time>2017-10-11T13:40:36Z</time>
      </trkpt>
      <trkpt lat="47.34868" lon="6.35267">
        <ele>264</ele>
        <time>2017-10-11T13:40:38Z</time>
      </trkpt>
      <trkpt lat="47.34889" lon="6.35257">
        <ele>264</ele>
        <time>2017-10-11T13:40:43Z</time>
      </trkpt>
      <trkpt lat="47.34899" lon="6.35254">
        <ele>264</ele>
        <time>2017-10-11T13:40:44Z</time>
      </trkpt>
      <trkpt lat="47.34911" lon="6.3525">
        <ele>265</ele>
        <time>2017-10-11T13:40:47Z</time>
      </trkpt>
      <trkpt lat="47.34921" lon="6.35249">
        <ele>265</ele>
        <time>2017-10-11T13:40:50Z</time>
      </trkpt>
      <trkpt lat="47.34932" lon="6.35264">
        <ele>265</ele>
        <time>2017-10-11T13:40:55Z</time>
      </trkpt>
      <trkpt lat="47.34937" lon="6.35281">
        <ele>265</ele>
        <time>2017-10-11T13:40:57Z</time>
      </trkpt>
      <trkpt lat="47.34942" lon="6.35295">
        <ele>265</ele>
        <time>2017-10-11T13:41:00Z</time>
      </trkpt>
      <trkpt lat="47.34949" lon="6.35311">
        <ele>265</ele>
        <time>2017-10-11T13:41:03Z</time>
      </trkpt>
      <trkpt lat="47.34955" lon="6.35322">
        <ele>265</ele>
        <time>2017-10-11T13:41:05Z</time>
      </trkpt>
      <trkpt lat="47.3496" lon="6.35333">
        <ele>265</ele>
        <time>2017-10-11T13:41:07Z</time>
      </trkpt>
      <trkpt lat="47.34966" lon="6.35344">
        <ele>265</ele>
        <time>2017-10-11T13:41:09Z</time>
      </trkpt>
      <trkpt lat="47.34972" lon="6.35355">
        <ele>265</ele>
        <time>2017-10-11T13:41:11Z</time>
      </trkpt>
      <trkpt lat="47.34977" lon="6.35368">
        <ele>265</ele>
        <time>2017-10-11T13:41:13Z</time>
      </trkpt>
      <trkpt lat="47.34981" lon="6.35381">
        <ele>265</ele>
        <time>2017-10-11T13:41:15Z</time>
      </trkpt>
      <trkpt lat="47.34985" lon="6.35394">
        <ele>266</ele>
        <time>2017-10-11T13:41:17Z</time>
      </trkpt>
      <trkpt lat="47.3499" lon="6.35406">
        <ele>266</ele>
        <time>2017-10-11T13:41:19Z</time>
      </trkpt>
      <trkpt lat="47.34994" lon="6.35419">
        <ele>266</ele>
        <time>2017-10-11T13:41:21Z</time>
      </trkpt>
      <trkpt lat="47.34997" lon="6.35431">
        <ele>266</ele>
        <time>2017-10-11T13:41:23Z</time>
      </trkpt>
      <trkpt lat="47.35003" lon="6.35444">
        <ele>266</ele>
        <time>2017-10-11T13:41:26Z</time>
      </trkpt>
      <trkpt lat="47.35008" lon="6.35456">
        <ele>266</ele>
        <time>2017-10-11T13:41:31Z</time>
      </trkpt>
      <trkpt lat="47.35018" lon="6.35458">
        <ele>266</ele>
        <time>2017-10-11T13:41:45Z</time>
      </trkpt>
      <trkpt lat="47.35028" lon="6.35455">
        <ele>266</ele>
        <time>2017-10-11T13:41:48Z</time>
      </trkpt>
      <trkpt lat="47.35038" lon="6.35454">
        <ele>266</ele>
        <time>2017-10-11T13:41:51Z</time>
      </trkpt>
      <trkpt lat="47.35049" lon="6.35451">
        <ele>266</ele>
        <time>2017-10-11T13:41:54Z</time>
      </trkpt>
      <trkpt lat="47.35061" lon="6.35445">
        <ele>266</ele>
        <time>2017-10-11T13:41:57Z</time>
      </trkpt>
    </trkseg>
  </trk>
</gpx>